<?xml version="1.0" encoding="UTF-8" standalone="no" ?>
<gpx xmlns="http://www.topografix.com/GPX/1/1" xmlns:xsi="http://www.w3.org/2001/XMLSchema-instance" xsi:schemaLocation="http://www.topografix.com/GPX/1/1 http://www.topografix.com/GPX/1/1/gpx.xsd" version="1.1" creator="VisuGPX - https://www.visugpx.com">
  <metadata>
    <name>Merens - Refuge du Rhule en boucle</name>
  </metadata>
  <trk>
    <name><![CDATA[Merens -Refuge du Rhule en boucle]]></name>
    <extensions>
      <line xmlns="http://www.topografix.com/GPX/gpx_style/0/2">
        <color>0000FF</color>
        <width>4</width>
      </line>
    </extensions>
    <trkseg>
      <trkpt lat="42.65856" lon="1.83607">
        <ele>1052.9</ele>
        <time>2022-08-13T08:41:09Z</time>
      </trkpt>
      <trkpt lat="42.65853" lon="1.83604">
        <ele>1052.7</ele>
        <time>2022-08-13T08:41:11Z</time>
      </trkpt>
      <trkpt lat="42.65845" lon="1.83593">
        <ele>1051.9</ele>
        <time>2022-08-13T08:41:23Z</time>
      </trkpt>
      <trkpt lat="42.65836" lon="1.83561">
        <ele>1049.4</ele>
        <time>2022-08-13T08:41:42Z</time>
      </trkpt>
      <trkpt lat="42.65829" lon="1.8357">
        <ele>1050.1</ele>
        <time>2022-08-13T08:41:46Z</time>
      </trkpt>
      <trkpt lat="42.65822" lon="1.83578">
        <ele>1050.9</ele>
        <time>2022-08-13T08:41:52Z</time>
      </trkpt>
      <trkpt lat="42.65813" lon="1.83582">
        <ele>1051.6</ele>
        <time>2022-08-13T08:42:02Z</time>
      </trkpt>
      <trkpt lat="42.65803" lon="1.83581">
        <ele>1051.7</ele>
        <time>2022-08-13T08:42:11Z</time>
      </trkpt>
      <trkpt lat="42.65793" lon="1.83578">
        <ele>1060</ele>
        <time>2022-08-13T08:42:17Z</time>
      </trkpt>
      <trkpt lat="42.65783" lon="1.83575">
        <ele>1060</ele>
        <time>2022-08-13T08:42:23Z</time>
      </trkpt>
      <trkpt lat="42.65774" lon="1.83572">
        <ele>1060</ele>
        <time>2022-08-13T08:42:27Z</time>
      </trkpt>
      <trkpt lat="42.65765" lon="1.83576">
        <ele>1060</ele>
        <time>2022-08-13T08:42:39Z</time>
      </trkpt>
      <trkpt lat="42.65757" lon="1.83584">
        <ele>1062</ele>
        <time>2022-08-13T08:42:47Z</time>
      </trkpt>
      <trkpt lat="42.65748" lon="1.83585">
        <ele>1059</ele>
        <time>2022-08-13T08:42:57Z</time>
      </trkpt>
      <trkpt lat="42.65738" lon="1.83584">
        <ele>1059</ele>
        <time>2022-08-13T08:43:04Z</time>
      </trkpt>
      <trkpt lat="42.65727" lon="1.83584">
        <ele>1059</ele>
        <time>2022-08-13T08:43:11Z</time>
      </trkpt>
      <trkpt lat="42.65717" lon="1.83584">
        <ele>1059</ele>
        <time>2022-08-13T08:43:20Z</time>
      </trkpt>
      <trkpt lat="42.65709" lon="1.8359">
        <ele>1059</ele>
        <time>2022-08-13T08:43:27Z</time>
      </trkpt>
      <trkpt lat="42.65699" lon="1.83592">
        <ele>1059</ele>
        <time>2022-08-13T08:43:35Z</time>
      </trkpt>
      <trkpt lat="42.6569" lon="1.83595">
        <ele>1059</ele>
        <time>2022-08-13T08:43:42Z</time>
      </trkpt>
      <trkpt lat="42.65681" lon="1.83595">
        <ele>1059</ele>
        <time>2022-08-13T08:43:48Z</time>
      </trkpt>
      <trkpt lat="42.6567" lon="1.83597">
        <ele>1059</ele>
        <time>2022-08-13T08:43:56Z</time>
      </trkpt>
      <trkpt lat="42.65662" lon="1.8359">
        <ele>1059</ele>
        <time>2022-08-13T08:44:06Z</time>
      </trkpt>
      <trkpt lat="42.65653" lon="1.83581">
        <ele>1059</ele>
        <time>2022-08-13T08:44:22Z</time>
      </trkpt>
      <trkpt lat="42.65652" lon="1.83568">
        <ele>1059</ele>
        <time>2022-08-13T08:44:30Z</time>
      </trkpt>
      <trkpt lat="42.65641" lon="1.83563">
        <ele>1059</ele>
        <time>2022-08-13T08:44:34Z</time>
      </trkpt>
      <trkpt lat="42.65632" lon="1.83558">
        <ele>1059</ele>
        <time>2022-08-13T08:44:40Z</time>
      </trkpt>
      <trkpt lat="42.65628" lon="1.83547">
        <ele>1059</ele>
        <time>2022-08-13T08:44:49Z</time>
      </trkpt>
      <trkpt lat="42.65619" lon="1.83544">
        <ele>1058</ele>
        <time>2022-08-13T08:44:57Z</time>
      </trkpt>
      <trkpt lat="42.65611" lon="1.83553">
        <ele>1058</ele>
        <time>2022-08-13T08:45:02Z</time>
      </trkpt>
      <trkpt lat="42.65602" lon="1.83548">
        <ele>1058</ele>
        <time>2022-08-13T08:45:13Z</time>
      </trkpt>
      <trkpt lat="42.65591" lon="1.8355">
        <ele>1058</ele>
        <time>2022-08-13T08:45:21Z</time>
      </trkpt>
      <trkpt lat="42.65583" lon="1.83554">
        <ele>1058</ele>
        <time>2022-08-13T08:45:28Z</time>
      </trkpt>
      <trkpt lat="42.65579" lon="1.83541">
        <ele>1058</ele>
        <time>2022-08-13T08:45:35Z</time>
      </trkpt>
      <trkpt lat="42.65586" lon="1.83532">
        <ele>1058</ele>
        <time>2022-08-13T08:45:41Z</time>
      </trkpt>
      <trkpt lat="42.65593" lon="1.83523">
        <ele>1058</ele>
        <time>2022-08-13T08:45:50Z</time>
      </trkpt>
      <trkpt lat="42.65601" lon="1.83515">
        <ele>1058</ele>
        <time>2022-08-13T08:45:57Z</time>
      </trkpt>
      <trkpt lat="42.65608" lon="1.83506">
        <ele>1062</ele>
        <time>2022-08-13T08:46:07Z</time>
      </trkpt>
      <trkpt lat="42.65616" lon="1.83497">
        <ele>1062</ele>
        <time>2022-08-13T08:46:15Z</time>
      </trkpt>
      <trkpt lat="42.65621" lon="1.83486">
        <ele>1062</ele>
        <time>2022-08-13T08:46:23Z</time>
      </trkpt>
      <trkpt lat="42.65625" lon="1.83475">
        <ele>1062</ele>
        <time>2022-08-13T08:46:30Z</time>
      </trkpt>
      <trkpt lat="42.65626" lon="1.83462">
        <ele>1062</ele>
        <time>2022-08-13T08:46:37Z</time>
      </trkpt>
      <trkpt lat="42.6562" lon="1.83451">
        <ele>1062</ele>
        <time>2022-08-13T08:46:46Z</time>
      </trkpt>
      <trkpt lat="42.65612" lon="1.83445">
        <ele>1062</ele>
        <time>2022-08-13T08:46:52Z</time>
      </trkpt>
      <trkpt lat="42.65602" lon="1.83442">
        <ele>1062</ele>
        <time>2022-08-13T08:47:00Z</time>
      </trkpt>
      <trkpt lat="42.65593" lon="1.83441">
        <ele>1068</ele>
        <time>2022-08-13T08:47:07Z</time>
      </trkpt>
      <trkpt lat="42.65584" lon="1.83436">
        <ele>1068</ele>
        <time>2022-08-13T08:47:14Z</time>
      </trkpt>
      <trkpt lat="42.65574" lon="1.83432">
        <ele>1068</ele>
        <time>2022-08-13T08:47:22Z</time>
      </trkpt>
      <trkpt lat="42.65565" lon="1.83426">
        <ele>1068</ele>
        <time>2022-08-13T08:47:30Z</time>
      </trkpt>
      <trkpt lat="42.65561" lon="1.83414">
        <ele>1068</ele>
        <time>2022-08-13T08:47:41Z</time>
      </trkpt>
      <trkpt lat="42.65564" lon="1.83397">
        <ele>1068</ele>
        <time>2022-08-13T08:47:53Z</time>
      </trkpt>
      <trkpt lat="42.65571" lon="1.83387">
        <ele>1068</ele>
        <time>2022-08-13T08:48:01Z</time>
      </trkpt>
      <trkpt lat="42.65568" lon="1.83375">
        <ele>1068</ele>
        <time>2022-08-13T08:48:08Z</time>
      </trkpt>
      <trkpt lat="42.65563" lon="1.83364">
        <ele>1068</ele>
        <time>2022-08-13T08:48:16Z</time>
      </trkpt>
      <trkpt lat="42.65561" lon="1.83351">
        <ele>1068</ele>
        <time>2022-08-13T08:48:25Z</time>
      </trkpt>
      <trkpt lat="42.65556" lon="1.8334">
        <ele>1068</ele>
        <time>2022-08-13T08:48:31Z</time>
      </trkpt>
      <trkpt lat="42.65556" lon="1.83328">
        <ele>1068</ele>
        <time>2022-08-13T08:48:39Z</time>
      </trkpt>
      <trkpt lat="42.65554" lon="1.83316">
        <ele>1068</ele>
        <time>2022-08-13T08:48:53Z</time>
      </trkpt>
      <trkpt lat="42.6555" lon="1.83304">
        <ele>1068</ele>
        <time>2022-08-13T08:49:01Z</time>
      </trkpt>
      <trkpt lat="42.65547" lon="1.83292">
        <ele>1068</ele>
        <time>2022-08-13T08:49:09Z</time>
      </trkpt>
      <trkpt lat="42.6555" lon="1.8328">
        <ele>1080</ele>
        <time>2022-08-13T08:49:27Z</time>
      </trkpt>
      <trkpt lat="42.65555" lon="1.83268">
        <ele>1080</ele>
        <time>2022-08-13T08:49:35Z</time>
      </trkpt>
      <trkpt lat="42.65559" lon="1.83256">
        <ele>1080</ele>
        <time>2022-08-13T08:49:45Z</time>
      </trkpt>
      <trkpt lat="42.65557" lon="1.83243">
        <ele>1080</ele>
        <time>2022-08-13T08:49:52Z</time>
      </trkpt>
      <trkpt lat="42.65553" lon="1.83231">
        <ele>1080</ele>
        <time>2022-08-13T08:50:04Z</time>
      </trkpt>
      <trkpt lat="42.65543" lon="1.83231">
        <ele>1080</ele>
        <time>2022-08-13T08:50:53Z</time>
      </trkpt>
      <trkpt lat="42.65535" lon="1.83226">
        <ele>1080</ele>
        <time>2022-08-13T08:51:01Z</time>
      </trkpt>
      <trkpt lat="42.65526" lon="1.83213">
        <ele>1080</ele>
        <time>2022-08-13T08:51:13Z</time>
      </trkpt>
      <trkpt lat="42.65519" lon="1.83203">
        <ele>1080</ele>
        <time>2022-08-13T08:51:17Z</time>
      </trkpt>
      <trkpt lat="42.65509" lon="1.83194">
        <ele>1080</ele>
        <time>2022-08-13T08:51:25Z</time>
      </trkpt>
      <trkpt lat="42.65507" lon="1.83181">
        <ele>1080</ele>
        <time>2022-08-13T08:51:36Z</time>
      </trkpt>
      <trkpt lat="42.65508" lon="1.83168">
        <ele>1080</ele>
        <time>2022-08-13T08:51:46Z</time>
      </trkpt>
      <trkpt lat="42.65515" lon="1.83159">
        <ele>1080</ele>
        <time>2022-08-13T08:52:03Z</time>
      </trkpt>
      <trkpt lat="42.65516" lon="1.83147">
        <ele>1080</ele>
        <time>2022-08-13T08:52:14Z</time>
      </trkpt>
      <trkpt lat="42.65507" lon="1.83151">
        <ele>1080</ele>
        <time>2022-08-13T08:52:32Z</time>
      </trkpt>
      <trkpt lat="42.65504" lon="1.83162">
        <ele>1080</ele>
        <time>2022-08-13T08:52:35Z</time>
      </trkpt>
      <trkpt lat="42.65501" lon="1.83148">
        <ele>1080</ele>
        <time>2022-08-13T08:53:20Z</time>
      </trkpt>
      <trkpt lat="42.655" lon="1.83147">
        <ele>1098</ele>
        <time>2022-08-13T08:53:22Z</time>
      </trkpt>
      <trkpt lat="42.65507" lon="1.83141">
        <ele>1098</ele>
        <time>2022-08-13T08:53:32Z</time>
      </trkpt>
      <trkpt lat="42.65512" lon="1.83128">
        <ele>1098</ele>
        <time>2022-08-13T08:53:50Z</time>
      </trkpt>
      <trkpt lat="42.65517" lon="1.83115">
        <ele>1098</ele>
        <time>2022-08-13T08:54:00Z</time>
      </trkpt>
      <trkpt lat="42.65521" lon="1.83103">
        <ele>1098</ele>
        <time>2022-08-13T08:54:07Z</time>
      </trkpt>
      <trkpt lat="42.65517" lon="1.83091">
        <ele>1098</ele>
        <time>2022-08-13T08:54:27Z</time>
      </trkpt>
      <trkpt lat="42.65516" lon="1.83078">
        <ele>1098</ele>
        <time>2022-08-13T08:54:36Z</time>
      </trkpt>
      <trkpt lat="42.65514" lon="1.83065">
        <ele>1106</ele>
        <time>2022-08-13T08:54:51Z</time>
      </trkpt>
      <trkpt lat="42.65513" lon="1.83052">
        <ele>1106</ele>
        <time>2022-08-13T08:54:58Z</time>
      </trkpt>
      <trkpt lat="42.65511" lon="1.83039">
        <ele>1106</ele>
        <time>2022-08-13T08:55:08Z</time>
      </trkpt>
      <trkpt lat="42.65507" lon="1.83028">
        <ele>1106</ele>
        <time>2022-08-13T08:55:19Z</time>
      </trkpt>
      <trkpt lat="42.65504" lon="1.83016">
        <ele>1106</ele>
        <time>2022-08-13T08:55:33Z</time>
      </trkpt>
      <trkpt lat="42.65501" lon="1.83004">
        <ele>1106</ele>
        <time>2022-08-13T08:55:46Z</time>
      </trkpt>
      <trkpt lat="42.655" lon="1.82992">
        <ele>1106</ele>
        <time>2022-08-13T08:55:59Z</time>
      </trkpt>
      <trkpt lat="42.655" lon="1.82978">
        <ele>1106</ele>
        <time>2022-08-13T08:56:15Z</time>
      </trkpt>
      <trkpt lat="42.65498" lon="1.82965">
        <ele>1106</ele>
        <time>2022-08-13T08:56:27Z</time>
      </trkpt>
      <trkpt lat="42.65498" lon="1.82952">
        <ele>1106</ele>
        <time>2022-08-13T08:56:50Z</time>
      </trkpt>
      <trkpt lat="42.65505" lon="1.82941">
        <ele>1106</ele>
        <time>2022-08-13T08:57:27Z</time>
      </trkpt>
      <trkpt lat="42.65496" lon="1.82939">
        <ele>1106</ele>
        <time>2022-08-13T08:58:10Z</time>
      </trkpt>
      <trkpt lat="42.65487" lon="1.82932">
        <ele>1106</ele>
        <time>2022-08-13T08:58:28Z</time>
      </trkpt>
      <trkpt lat="42.65477" lon="1.8293">
        <ele>1106</ele>
        <time>2022-08-13T08:58:32Z</time>
      </trkpt>
      <trkpt lat="42.65466" lon="1.82928">
        <ele>1106</ele>
        <time>2022-08-13T08:58:46Z</time>
      </trkpt>
      <trkpt lat="42.65458" lon="1.82925">
        <ele>1106</ele>
        <time>2022-08-13T08:58:54Z</time>
      </trkpt>
      <trkpt lat="42.65452" lon="1.82915">
        <ele>1106</ele>
        <time>2022-08-13T08:59:03Z</time>
      </trkpt>
      <trkpt lat="42.65443" lon="1.82911">
        <ele>1106</ele>
        <time>2022-08-13T08:59:24Z</time>
      </trkpt>
      <trkpt lat="42.65435" lon="1.82905">
        <ele>1106</ele>
        <time>2022-08-13T08:59:34Z</time>
      </trkpt>
      <trkpt lat="42.65425" lon="1.82904">
        <ele>1106</ele>
        <time>2022-08-13T08:59:46Z</time>
      </trkpt>
      <trkpt lat="42.6542" lon="1.82893">
        <ele>1106</ele>
        <time>2022-08-13T08:59:59Z</time>
      </trkpt>
      <trkpt lat="42.65414" lon="1.8288">
        <ele>1106</ele>
        <time>2022-08-13T09:00:18Z</time>
      </trkpt>
      <trkpt lat="42.65419" lon="1.8287">
        <ele>1106</ele>
        <time>2022-08-13T09:00:26Z</time>
      </trkpt>
      <trkpt lat="42.65421" lon="1.82858">
        <ele>1106</ele>
        <time>2022-08-13T09:00:53Z</time>
      </trkpt>
      <trkpt lat="42.65427" lon="1.82848">
        <ele>1106</ele>
        <time>2022-08-13T09:01:16Z</time>
      </trkpt>
      <trkpt lat="42.65426" lon="1.82835">
        <ele>1106</ele>
        <time>2022-08-13T09:01:29Z</time>
      </trkpt>
      <trkpt lat="42.65428" lon="1.82822">
        <ele>1106</ele>
        <time>2022-08-13T09:01:44Z</time>
      </trkpt>
      <trkpt lat="42.65427" lon="1.82809">
        <ele>1106</ele>
        <time>2022-08-13T09:01:57Z</time>
      </trkpt>
      <trkpt lat="42.65426" lon="1.82797">
        <ele>1106</ele>
        <time>2022-08-13T09:02:10Z</time>
      </trkpt>
      <trkpt lat="42.6543" lon="1.82784">
        <ele>1106</ele>
        <time>2022-08-13T09:02:24Z</time>
      </trkpt>
      <trkpt lat="42.6543" lon="1.8277">
        <ele>1106</ele>
        <time>2022-08-13T09:02:40Z</time>
      </trkpt>
      <trkpt lat="42.6543" lon="1.82756">
        <ele>1106</ele>
        <time>2022-08-13T09:02:53Z</time>
      </trkpt>
      <trkpt lat="42.65433" lon="1.82743">
        <ele>1176</ele>
        <time>2022-08-13T09:03:11Z</time>
      </trkpt>
      <trkpt lat="42.65429" lon="1.82731">
        <ele>1176</ele>
        <time>2022-08-13T09:03:18Z</time>
      </trkpt>
      <trkpt lat="42.65425" lon="1.82719">
        <ele>1176</ele>
        <time>2022-08-13T09:03:27Z</time>
      </trkpt>
      <trkpt lat="42.65426" lon="1.82706">
        <ele>1176</ele>
        <time>2022-08-13T09:03:42Z</time>
      </trkpt>
      <trkpt lat="42.65428" lon="1.82694">
        <ele>1176</ele>
        <time>2022-08-13T09:03:55Z</time>
      </trkpt>
      <trkpt lat="42.65426" lon="1.82682">
        <ele>1176</ele>
        <time>2022-08-13T09:04:08Z</time>
      </trkpt>
      <trkpt lat="42.65432" lon="1.82672">
        <ele>1176</ele>
        <time>2022-08-13T09:04:28Z</time>
      </trkpt>
      <trkpt lat="42.65428" lon="1.8266">
        <ele>1176</ele>
        <time>2022-08-13T09:04:35Z</time>
      </trkpt>
      <trkpt lat="42.65428" lon="1.82645">
        <ele>1176</ele>
        <time>2022-08-13T09:04:49Z</time>
      </trkpt>
      <trkpt lat="42.65423" lon="1.82634">
        <ele>1176</ele>
        <time>2022-08-13T09:04:56Z</time>
      </trkpt>
      <trkpt lat="42.65422" lon="1.82622">
        <ele>1176</ele>
        <time>2022-08-13T09:05:11Z</time>
      </trkpt>
      <trkpt lat="42.65419" lon="1.8261">
        <ele>1176</ele>
        <time>2022-08-13T09:05:23Z</time>
      </trkpt>
      <trkpt lat="42.65416" lon="1.82597">
        <ele>1176</ele>
        <time>2022-08-13T09:05:35Z</time>
      </trkpt>
      <trkpt lat="42.65415" lon="1.8258">
        <ele>1176</ele>
        <time>2022-08-13T09:05:50Z</time>
      </trkpt>
      <trkpt lat="42.65418" lon="1.82566">
        <ele>1200</ele>
        <time>2022-08-13T09:06:01Z</time>
      </trkpt>
      <trkpt lat="42.65416" lon="1.82554">
        <ele>1200</ele>
        <time>2022-08-13T09:06:09Z</time>
      </trkpt>
      <trkpt lat="42.65416" lon="1.82541">
        <ele>1200</ele>
        <time>2022-08-13T09:06:18Z</time>
      </trkpt>
      <trkpt lat="42.65409" lon="1.82527">
        <ele>1200</ele>
        <time>2022-08-13T09:06:30Z</time>
      </trkpt>
      <trkpt lat="42.65402" lon="1.82515">
        <ele>1200</ele>
        <time>2022-08-13T09:06:37Z</time>
      </trkpt>
      <trkpt lat="42.65402" lon="1.82502">
        <ele>1200</ele>
        <time>2022-08-13T09:06:56Z</time>
      </trkpt>
      <trkpt lat="42.65396" lon="1.8249">
        <ele>1200</ele>
        <time>2022-08-13T09:07:09Z</time>
      </trkpt>
      <trkpt lat="42.65393" lon="1.82478">
        <ele>1200</ele>
        <time>2022-08-13T09:07:16Z</time>
      </trkpt>
      <trkpt lat="42.65394" lon="1.82464">
        <ele>1200</ele>
        <time>2022-08-13T09:07:28Z</time>
      </trkpt>
      <trkpt lat="42.65383" lon="1.82462">
        <ele>1200</ele>
        <time>2022-08-13T09:07:45Z</time>
      </trkpt>
      <trkpt lat="42.65375" lon="1.82455">
        <ele>1200</ele>
        <time>2022-08-13T09:07:52Z</time>
      </trkpt>
      <trkpt lat="42.65385" lon="1.82457">
        <ele>1209</ele>
        <time>2022-08-13T09:08:21Z</time>
      </trkpt>
      <trkpt lat="42.65396" lon="1.82461">
        <ele>1209</ele>
        <time>2022-08-13T09:08:32Z</time>
      </trkpt>
      <trkpt lat="42.65389" lon="1.82451">
        <ele>1209</ele>
        <time>2022-08-13T09:08:50Z</time>
      </trkpt>
      <trkpt lat="42.6538" lon="1.82447">
        <ele>1209</ele>
        <time>2022-08-13T09:08:55Z</time>
      </trkpt>
      <trkpt lat="42.6539" lon="1.82451">
        <ele>1209</ele>
        <time>2022-08-13T09:09:00Z</time>
      </trkpt>
      <trkpt lat="42.65379" lon="1.82449">
        <ele>1209</ele>
        <time>2022-08-13T09:09:22Z</time>
      </trkpt>
      <trkpt lat="42.6537" lon="1.82429">
        <ele>1209</ele>
        <time>2022-08-13T09:09:42Z</time>
      </trkpt>
      <trkpt lat="42.65364" lon="1.82419">
        <ele>1209</ele>
        <time>2022-08-13T09:09:49Z</time>
      </trkpt>
      <trkpt lat="42.65357" lon="1.82406">
        <ele>1209</ele>
        <time>2022-08-13T09:10:00Z</time>
      </trkpt>
      <trkpt lat="42.65351" lon="1.82394">
        <ele>1209</ele>
        <time>2022-08-13T09:10:08Z</time>
      </trkpt>
      <trkpt lat="42.65355" lon="1.82381">
        <ele>1209</ele>
        <time>2022-08-13T09:10:23Z</time>
      </trkpt>
      <trkpt lat="42.65365" lon="1.82385">
        <ele>1209</ele>
        <time>2022-08-13T09:10:33Z</time>
      </trkpt>
      <trkpt lat="42.65375" lon="1.8238">
        <ele>1211</ele>
        <time>2022-08-13T09:11:01Z</time>
      </trkpt>
      <trkpt lat="42.65365" lon="1.82382">
        <ele>1211</ele>
        <time>2022-08-13T09:11:20Z</time>
      </trkpt>
      <trkpt lat="42.65372" lon="1.82375">
        <ele>1211</ele>
        <time>2022-08-13T09:11:36Z</time>
      </trkpt>
      <trkpt lat="42.65383" lon="1.82374">
        <ele>1212</ele>
        <time>2022-08-13T09:11:41Z</time>
      </trkpt>
      <trkpt lat="42.65374" lon="1.82378">
        <ele>1212</ele>
        <time>2022-08-13T09:11:48Z</time>
      </trkpt>
      <trkpt lat="42.65365" lon="1.82375">
        <ele>1212</ele>
        <time>2022-08-13T09:11:53Z</time>
      </trkpt>
      <trkpt lat="42.65356" lon="1.82367">
        <ele>1212</ele>
        <time>2022-08-13T09:12:00Z</time>
      </trkpt>
      <trkpt lat="42.65347" lon="1.82363">
        <ele>1212</ele>
        <time>2022-08-13T09:12:04Z</time>
      </trkpt>
      <trkpt lat="42.65341" lon="1.82354">
        <ele>1213</ele>
        <time>2022-08-13T09:12:11Z</time>
      </trkpt>
      <trkpt lat="42.65333" lon="1.82337">
        <ele>1213</ele>
        <time>2022-08-13T09:12:23Z</time>
      </trkpt>
      <trkpt lat="42.65325" lon="1.82325">
        <ele>1213</ele>
        <time>2022-08-13T09:12:30Z</time>
      </trkpt>
      <trkpt lat="42.6532" lon="1.82311">
        <ele>1213</ele>
        <time>2022-08-13T09:12:43Z</time>
      </trkpt>
      <trkpt lat="42.65315" lon="1.823">
        <ele>1213</ele>
        <time>2022-08-13T09:12:53Z</time>
      </trkpt>
      <trkpt lat="42.65308" lon="1.8229">
        <ele>1213</ele>
        <time>2022-08-13T09:13:04Z</time>
      </trkpt>
      <trkpt lat="42.65306" lon="1.82274">
        <ele>1213</ele>
        <time>2022-08-13T09:13:16Z</time>
      </trkpt>
      <trkpt lat="42.653" lon="1.82262">
        <ele>1213</ele>
        <time>2022-08-13T09:13:29Z</time>
      </trkpt>
      <trkpt lat="42.65293" lon="1.82252">
        <ele>1213</ele>
        <time>2022-08-13T09:13:38Z</time>
      </trkpt>
      <trkpt lat="42.65289" lon="1.8224">
        <ele>1213</ele>
        <time>2022-08-13T09:13:56Z</time>
      </trkpt>
      <trkpt lat="42.6528" lon="1.82229">
        <ele>1213</ele>
        <time>2022-08-13T09:14:08Z</time>
      </trkpt>
      <trkpt lat="42.65277" lon="1.82214">
        <ele>1213</ele>
        <time>2022-08-13T09:14:22Z</time>
      </trkpt>
      <trkpt lat="42.6527" lon="1.82204">
        <ele>1213</ele>
        <time>2022-08-13T09:14:27Z</time>
      </trkpt>
      <trkpt lat="42.65267" lon="1.82193">
        <ele>1230</ele>
        <time>2022-08-13T09:14:51Z</time>
      </trkpt>
      <trkpt lat="42.65263" lon="1.82182">
        <ele>1230</ele>
        <time>2022-08-13T09:15:05Z</time>
      </trkpt>
      <trkpt lat="42.65258" lon="1.82171">
        <ele>1230</ele>
        <time>2022-08-13T09:15:18Z</time>
      </trkpt>
      <trkpt lat="42.6525" lon="1.82157">
        <ele>1230</ele>
        <time>2022-08-13T09:15:27Z</time>
      </trkpt>
      <trkpt lat="42.65242" lon="1.82148">
        <ele>1236</ele>
        <time>2022-08-13T09:15:41Z</time>
      </trkpt>
      <trkpt lat="42.65239" lon="1.82136">
        <ele>1236</ele>
        <time>2022-08-13T09:15:52Z</time>
      </trkpt>
      <trkpt lat="42.65236" lon="1.82124">
        <ele>1236</ele>
        <time>2022-08-13T09:16:06Z</time>
      </trkpt>
      <trkpt lat="42.65223" lon="1.82117">
        <ele>1236</ele>
        <time>2022-08-13T09:16:18Z</time>
      </trkpt>
      <trkpt lat="42.65216" lon="1.82106">
        <ele>1236</ele>
        <time>2022-08-13T09:16:32Z</time>
      </trkpt>
      <trkpt lat="42.65213" lon="1.82094">
        <ele>1247</ele>
        <time>2022-08-13T09:16:51Z</time>
      </trkpt>
      <trkpt lat="42.65209" lon="1.82083">
        <ele>1247</ele>
        <time>2022-08-13T09:17:00Z</time>
      </trkpt>
      <trkpt lat="42.65203" lon="1.82073">
        <ele>1247</ele>
        <time>2022-08-13T09:17:10Z</time>
      </trkpt>
      <trkpt lat="42.65199" lon="1.8206">
        <ele>1247</ele>
        <time>2022-08-13T09:17:20Z</time>
      </trkpt>
      <trkpt lat="42.65197" lon="1.82048">
        <ele>1247</ele>
        <time>2022-08-13T09:17:28Z</time>
      </trkpt>
      <trkpt lat="42.65192" lon="1.82036">
        <ele>1247</ele>
        <time>2022-08-13T09:17:36Z</time>
      </trkpt>
      <trkpt lat="42.65186" lon="1.82022">
        <ele>1247</ele>
        <time>2022-08-13T09:17:44Z</time>
      </trkpt>
      <trkpt lat="42.65183" lon="1.82008">
        <ele>1247</ele>
        <time>2022-08-13T09:17:52Z</time>
      </trkpt>
      <trkpt lat="42.65184" lon="1.81994">
        <ele>1247</ele>
        <time>2022-08-13T09:18:03Z</time>
      </trkpt>
      <trkpt lat="42.65188" lon="1.81983">
        <ele>1247</ele>
        <time>2022-08-13T09:18:15Z</time>
      </trkpt>
      <trkpt lat="42.65187" lon="1.81969">
        <ele>1247</ele>
        <time>2022-08-13T09:18:35Z</time>
      </trkpt>
      <trkpt lat="42.65192" lon="1.81957">
        <ele>1247</ele>
        <time>2022-08-13T09:18:46Z</time>
      </trkpt>
      <trkpt lat="42.65202" lon="1.81957">
        <ele>1247</ele>
        <time>2022-08-13T09:18:57Z</time>
      </trkpt>
      <trkpt lat="42.65206" lon="1.81946">
        <ele>1247</ele>
        <time>2022-08-13T09:19:26Z</time>
      </trkpt>
      <trkpt lat="42.65198" lon="1.8193">
        <ele>1247</ele>
        <time>2022-08-13T09:19:46Z</time>
      </trkpt>
      <trkpt lat="42.65207" lon="1.81934">
        <ele>1247</ele>
        <time>2022-08-13T09:19:55Z</time>
      </trkpt>
      <trkpt lat="42.65218" lon="1.81935">
        <ele>1247</ele>
        <time>2022-08-13T09:20:04Z</time>
      </trkpt>
      <trkpt lat="42.6521" lon="1.81928">
        <ele>1247</ele>
        <time>2022-08-13T09:20:16Z</time>
      </trkpt>
      <trkpt lat="42.65216" lon="1.81918">
        <ele>1247</ele>
        <time>2022-08-13T09:20:25Z</time>
      </trkpt>
      <trkpt lat="42.65207" lon="1.81901">
        <ele>1247</ele>
        <time>2022-08-13T09:20:46Z</time>
      </trkpt>
      <trkpt lat="42.65218" lon="1.81896">
        <ele>1247</ele>
        <time>2022-08-13T09:21:27Z</time>
      </trkpt>
      <trkpt lat="42.65217" lon="1.81884">
        <ele>1247</ele>
        <time>2022-08-13T09:21:47Z</time>
      </trkpt>
      <trkpt lat="42.6521" lon="1.81875">
        <ele>1247</ele>
        <time>2022-08-13T09:21:52Z</time>
      </trkpt>
      <trkpt lat="42.65205" lon="1.81863">
        <ele>1247</ele>
        <time>2022-08-13T09:22:25Z</time>
      </trkpt>
      <trkpt lat="42.65202" lon="1.81848">
        <ele>1247</ele>
        <time>2022-08-13T09:22:33Z</time>
      </trkpt>
      <trkpt lat="42.65201" lon="1.81835">
        <ele>1247</ele>
        <time>2022-08-13T09:23:00Z</time>
      </trkpt>
      <trkpt lat="42.65197" lon="1.81824">
        <ele>1247</ele>
        <time>2022-08-13T09:23:14Z</time>
      </trkpt>
      <trkpt lat="42.65189" lon="1.81808">
        <ele>1247</ele>
        <time>2022-08-13T09:23:40Z</time>
      </trkpt>
      <trkpt lat="42.65184" lon="1.81795">
        <ele>1247</ele>
        <time>2022-08-13T09:23:53Z</time>
      </trkpt>
      <trkpt lat="42.65178" lon="1.81786">
        <ele>1247</ele>
        <time>2022-08-13T09:24:06Z</time>
      </trkpt>
      <trkpt lat="42.65174" lon="1.81775">
        <ele>1247</ele>
        <time>2022-08-13T09:24:15Z</time>
      </trkpt>
      <trkpt lat="42.65179" lon="1.81787">
        <ele>1247</ele>
        <time>2022-08-13T09:24:36Z</time>
      </trkpt>
      <trkpt lat="42.65182" lon="1.81799">
        <ele>1309</ele>
        <time>2022-08-13T09:24:41Z</time>
      </trkpt>
      <trkpt lat="42.65175" lon="1.81788">
        <ele>1309</ele>
        <time>2022-08-13T09:25:05Z</time>
      </trkpt>
      <trkpt lat="42.65169" lon="1.81776">
        <ele>1309</ele>
        <time>2022-08-13T09:25:14Z</time>
      </trkpt>
      <trkpt lat="42.65165" lon="1.81764">
        <ele>1309</ele>
        <time>2022-08-13T09:25:45Z</time>
      </trkpt>
      <trkpt lat="42.65159" lon="1.81752">
        <ele>1317</ele>
        <time>2022-08-13T09:25:51Z</time>
      </trkpt>
      <trkpt lat="42.65148" lon="1.81747">
        <ele>1317</ele>
        <time>2022-08-13T09:26:07Z</time>
      </trkpt>
      <trkpt lat="42.65142" lon="1.81738">
        <ele>1317</ele>
        <time>2022-08-13T09:26:37Z</time>
      </trkpt>
      <trkpt lat="42.65137" lon="1.81728">
        <ele>1317</ele>
        <time>2022-08-13T09:26:45Z</time>
      </trkpt>
      <trkpt lat="42.65135" lon="1.81715">
        <ele>1317</ele>
        <time>2022-08-13T09:27:08Z</time>
      </trkpt>
      <trkpt lat="42.65145" lon="1.81712">
        <ele>1317</ele>
        <time>2022-08-13T09:27:27Z</time>
      </trkpt>
      <trkpt lat="42.6514" lon="1.81701">
        <ele>1317</ele>
        <time>2022-08-13T09:27:48Z</time>
      </trkpt>
      <trkpt lat="42.65136" lon="1.81686">
        <ele>1317</ele>
        <time>2022-08-13T09:28:03Z</time>
      </trkpt>
      <trkpt lat="42.65137" lon="1.81671">
        <ele>1317</ele>
        <time>2022-08-13T09:28:34Z</time>
      </trkpt>
      <trkpt lat="42.65146" lon="1.81664">
        <ele>1317</ele>
        <time>2022-08-13T09:28:44Z</time>
      </trkpt>
      <trkpt lat="42.65137" lon="1.81654">
        <ele>1317</ele>
        <time>2022-08-13T09:28:59Z</time>
      </trkpt>
      <trkpt lat="42.65147" lon="1.81655">
        <ele>1317</ele>
        <time>2022-08-13T09:29:20Z</time>
      </trkpt>
      <trkpt lat="42.6514" lon="1.81637">
        <ele>1317</ele>
        <time>2022-08-13T09:29:53Z</time>
      </trkpt>
      <trkpt lat="42.65135" lon="1.81626">
        <ele>1317</ele>
        <time>2022-08-13T09:30:04Z</time>
      </trkpt>
      <trkpt lat="42.65135" lon="1.81613">
        <ele>1317</ele>
        <time>2022-08-13T09:30:24Z</time>
      </trkpt>
      <trkpt lat="42.65138" lon="1.81602">
        <ele>1364</ele>
        <time>2022-08-13T09:30:41Z</time>
      </trkpt>
      <trkpt lat="42.65126" lon="1.81589">
        <ele>1364</ele>
        <time>2022-08-13T09:31:02Z</time>
      </trkpt>
      <trkpt lat="42.65117" lon="1.81584">
        <ele>1364</ele>
        <time>2022-08-13T09:31:22Z</time>
      </trkpt>
      <trkpt lat="42.65105" lon="1.81582">
        <ele>1374</ele>
        <time>2022-08-13T09:31:41Z</time>
      </trkpt>
      <trkpt lat="42.65097" lon="1.81575">
        <ele>1374</ele>
        <time>2022-08-13T09:32:09Z</time>
      </trkpt>
      <trkpt lat="42.65091" lon="1.81563">
        <ele>1374</ele>
        <time>2022-08-13T09:32:23Z</time>
      </trkpt>
      <trkpt lat="42.65102" lon="1.81566">
        <ele>1374</ele>
        <time>2022-08-13T09:32:29Z</time>
      </trkpt>
      <trkpt lat="42.65092" lon="1.81566">
        <ele>1374</ele>
        <time>2022-08-13T09:33:08Z</time>
      </trkpt>
      <trkpt lat="42.651" lon="1.81575">
        <ele>1374</ele>
        <time>2022-08-13T09:33:23Z</time>
      </trkpt>
      <trkpt lat="42.65094" lon="1.81565">
        <ele>1374</ele>
        <time>2022-08-13T09:33:30Z</time>
      </trkpt>
      <trkpt lat="42.65102" lon="1.81573">
        <ele>1374</ele>
        <time>2022-08-13T09:33:49Z</time>
      </trkpt>
      <trkpt lat="42.65093" lon="1.8157">
        <ele>1374</ele>
        <time>2022-08-13T09:34:45Z</time>
      </trkpt>
      <trkpt lat="42.65088" lon="1.81558">
        <ele>1374</ele>
        <time>2022-08-13T09:36:55Z</time>
      </trkpt>
      <trkpt lat="42.65096" lon="1.81555">
        <ele>1374</ele>
        <time>2022-08-13T09:37:40Z</time>
      </trkpt>
      <trkpt lat="42.65089" lon="1.81562">
        <ele>1374</ele>
        <time>2022-08-13T09:38:30Z</time>
      </trkpt>
      <trkpt lat="42.65081" lon="1.81557">
        <ele>1384</ele>
        <time>2022-08-13T09:38:41Z</time>
      </trkpt>
      <trkpt lat="42.65071" lon="1.81554">
        <ele>1384</ele>
        <time>2022-08-13T09:39:08Z</time>
      </trkpt>
      <trkpt lat="42.65068" lon="1.81536">
        <ele>1384</ele>
        <time>2022-08-13T09:39:23Z</time>
      </trkpt>
      <trkpt lat="42.6507" lon="1.81522">
        <ele>1384</ele>
        <time>2022-08-13T09:39:58Z</time>
      </trkpt>
      <trkpt lat="42.65064" lon="1.81506">
        <ele>1384</ele>
        <time>2022-08-13T09:40:07Z</time>
      </trkpt>
      <trkpt lat="42.65056" lon="1.81495">
        <ele>1384</ele>
        <time>2022-08-13T09:40:24Z</time>
      </trkpt>
      <trkpt lat="42.65062" lon="1.81482">
        <ele>1384</ele>
        <time>2022-08-13T09:40:40Z</time>
      </trkpt>
      <trkpt lat="42.6507" lon="1.81489">
        <ele>1384</ele>
        <time>2022-08-13T09:40:50Z</time>
      </trkpt>
      <trkpt lat="42.65067" lon="1.81477">
        <ele>1384</ele>
        <time>2022-08-13T09:40:55Z</time>
      </trkpt>
      <trkpt lat="42.65062" lon="1.81463">
        <ele>1384</ele>
        <time>2022-08-13T09:41:30Z</time>
      </trkpt>
      <trkpt lat="42.65061" lon="1.81446">
        <ele>1384</ele>
        <time>2022-08-13T09:41:47Z</time>
      </trkpt>
      <trkpt lat="42.65055" lon="1.81434">
        <ele>1384</ele>
        <time>2022-08-13T09:42:09Z</time>
      </trkpt>
      <trkpt lat="42.65051" lon="1.81423">
        <ele>1420</ele>
        <time>2022-08-13T09:42:31Z</time>
      </trkpt>
      <trkpt lat="42.65045" lon="1.81412">
        <ele>1420</ele>
        <time>2022-08-13T09:42:39Z</time>
      </trkpt>
      <trkpt lat="42.65035" lon="1.8139">
        <ele>1420</ele>
        <time>2022-08-13T09:42:55Z</time>
      </trkpt>
      <trkpt lat="42.65024" lon="1.81366">
        <ele>1420</ele>
        <time>2022-08-13T09:43:15Z</time>
      </trkpt>
      <trkpt lat="42.65015" lon="1.81365">
        <ele>1435</ele>
        <time>2022-08-13T09:44:01Z</time>
      </trkpt>
      <trkpt lat="42.65006" lon="1.8136">
        <ele>1435</ele>
        <time>2022-08-13T09:44:11Z</time>
      </trkpt>
      <trkpt lat="42.64999" lon="1.81353">
        <ele>1435</ele>
        <time>2022-08-13T09:44:17Z</time>
      </trkpt>
      <trkpt lat="42.64991" lon="1.81346">
        <ele>1435</ele>
        <time>2022-08-13T09:44:30Z</time>
      </trkpt>
      <trkpt lat="42.64982" lon="1.81339">
        <ele>1435</ele>
        <time>2022-08-13T09:44:40Z</time>
      </trkpt>
      <trkpt lat="42.64972" lon="1.81321">
        <ele>1435</ele>
        <time>2022-08-13T09:45:10Z</time>
      </trkpt>
      <trkpt lat="42.64961" lon="1.81303">
        <ele>1435</ele>
        <time>2022-08-13T09:45:18Z</time>
      </trkpt>
      <trkpt lat="42.6495" lon="1.81297">
        <ele>1435</ele>
        <time>2022-08-13T09:45:39Z</time>
      </trkpt>
      <trkpt lat="42.64941" lon="1.81288">
        <ele>1435</ele>
        <time>2022-08-13T09:45:53Z</time>
      </trkpt>
      <trkpt lat="42.64935" lon="1.81277">
        <ele>1435</ele>
        <time>2022-08-13T09:46:03Z</time>
      </trkpt>
      <trkpt lat="42.64927" lon="1.81263">
        <ele>1435</ele>
        <time>2022-08-13T09:46:17Z</time>
      </trkpt>
      <trkpt lat="42.64921" lon="1.81243">
        <ele>1435</ele>
        <time>2022-08-13T09:46:28Z</time>
      </trkpt>
      <trkpt lat="42.64912" lon="1.81245">
        <ele>1459</ele>
        <time>2022-08-13T09:47:11Z</time>
      </trkpt>
      <trkpt lat="42.64905" lon="1.81237">
        <ele>1459</ele>
        <time>2022-08-13T09:47:19Z</time>
      </trkpt>
      <trkpt lat="42.64902" lon="1.81224">
        <ele>1459</ele>
        <time>2022-08-13T09:47:28Z</time>
      </trkpt>
      <trkpt lat="42.64899" lon="1.81211">
        <ele>1459</ele>
        <time>2022-08-13T09:47:34Z</time>
      </trkpt>
      <trkpt lat="42.64892" lon="1.81201">
        <ele>1459</ele>
        <time>2022-08-13T09:47:42Z</time>
      </trkpt>
      <trkpt lat="42.64889" lon="1.81188">
        <ele>1459</ele>
        <time>2022-08-13T09:47:44Z</time>
      </trkpt>
      <trkpt lat="42.64885" lon="1.81177">
        <ele>1459</ele>
        <time>2022-08-13T09:47:48Z</time>
      </trkpt>
      <trkpt lat="42.64884" lon="1.81164">
        <ele>1459</ele>
        <time>2022-08-13T09:47:56Z</time>
      </trkpt>
      <trkpt lat="42.64891" lon="1.81174">
        <ele>1459</ele>
        <time>2022-08-13T09:48:29Z</time>
      </trkpt>
      <trkpt lat="42.649" lon="1.81182">
        <ele>1459</ele>
        <time>2022-08-13T09:48:42Z</time>
      </trkpt>
      <trkpt lat="42.64905" lon="1.81193">
        <ele>1459</ele>
        <time>2022-08-13T09:48:57Z</time>
      </trkpt>
      <trkpt lat="42.64896" lon="1.8119">
        <ele>1459</ele>
        <time>2022-08-13T09:50:00Z</time>
      </trkpt>
      <trkpt lat="42.6489" lon="1.8118">
        <ele>1459</ele>
        <time>2022-08-13T09:50:22Z</time>
      </trkpt>
      <trkpt lat="42.64881" lon="1.81173">
        <ele>1459</ele>
        <time>2022-08-13T09:50:42Z</time>
      </trkpt>
      <trkpt lat="42.64874" lon="1.81165">
        <ele>1459</ele>
        <time>2022-08-13T09:50:50Z</time>
      </trkpt>
      <trkpt lat="42.64866" lon="1.81161">
        <ele>1459</ele>
        <time>2022-08-13T09:51:02Z</time>
      </trkpt>
      <trkpt lat="42.6486" lon="1.81149">
        <ele>1459</ele>
        <time>2022-08-13T09:51:10Z</time>
      </trkpt>
      <trkpt lat="42.64853" lon="1.81139">
        <ele>1459</ele>
        <time>2022-08-13T09:51:19Z</time>
      </trkpt>
      <trkpt lat="42.64844" lon="1.81131">
        <ele>1459</ele>
        <time>2022-08-13T09:51:27Z</time>
      </trkpt>
      <trkpt lat="42.64836" lon="1.81124">
        <ele>1459</ele>
        <time>2022-08-13T09:51:48Z</time>
      </trkpt>
      <trkpt lat="42.64826" lon="1.81126">
        <ele>1459</ele>
        <time>2022-08-13T09:52:08Z</time>
      </trkpt>
      <trkpt lat="42.64829" lon="1.81114">
        <ele>1459</ele>
        <time>2022-08-13T09:52:24Z</time>
      </trkpt>
      <trkpt lat="42.64822" lon="1.81098">
        <ele>1459</ele>
        <time>2022-08-13T09:52:38Z</time>
      </trkpt>
      <trkpt lat="42.64814" lon="1.8109">
        <ele>1459</ele>
        <time>2022-08-13T09:52:57Z</time>
      </trkpt>
      <trkpt lat="42.6481" lon="1.81079">
        <ele>1459</ele>
        <time>2022-08-13T09:53:05Z</time>
      </trkpt>
      <trkpt lat="42.64804" lon="1.81069">
        <ele>1459</ele>
        <time>2022-08-13T09:53:26Z</time>
      </trkpt>
      <trkpt lat="42.64797" lon="1.81076">
        <ele>1459</ele>
        <time>2022-08-13T09:53:42Z</time>
      </trkpt>
      <trkpt lat="42.64789" lon="1.81083">
        <ele>1459</ele>
        <time>2022-08-13T09:53:55Z</time>
      </trkpt>
      <trkpt lat="42.64781" lon="1.81076">
        <ele>1459</ele>
        <time>2022-08-13T09:54:07Z</time>
      </trkpt>
      <trkpt lat="42.64777" lon="1.81065">
        <ele>1459</ele>
        <time>2022-08-13T09:54:19Z</time>
      </trkpt>
      <trkpt lat="42.64768" lon="1.81061">
        <ele>1459</ele>
        <time>2022-08-13T09:54:34Z</time>
      </trkpt>
      <trkpt lat="42.64762" lon="1.81051">
        <ele>1459</ele>
        <time>2022-08-13T09:54:48Z</time>
      </trkpt>
      <trkpt lat="42.64753" lon="1.81051">
        <ele>1505</ele>
        <time>2022-08-13T09:55:01Z</time>
      </trkpt>
      <trkpt lat="42.64744" lon="1.81056">
        <ele>1505</ele>
        <time>2022-08-13T09:55:10Z</time>
      </trkpt>
      <trkpt lat="42.64736" lon="1.81048">
        <ele>1508</ele>
        <time>2022-08-13T09:55:21Z</time>
      </trkpt>
      <trkpt lat="42.64733" lon="1.81036">
        <ele>1508</ele>
        <time>2022-08-13T09:55:37Z</time>
      </trkpt>
      <trkpt lat="42.64728" lon="1.81025">
        <ele>1508</ele>
        <time>2022-08-13T09:55:46Z</time>
      </trkpt>
      <trkpt lat="42.6472" lon="1.81016">
        <ele>1508</ele>
        <time>2022-08-13T09:55:56Z</time>
      </trkpt>
      <trkpt lat="42.6471" lon="1.81011">
        <ele>1508</ele>
        <time>2022-08-13T09:56:07Z</time>
      </trkpt>
      <trkpt lat="42.64704" lon="1.81001">
        <ele>1508</ele>
        <time>2022-08-13T09:56:17Z</time>
      </trkpt>
      <trkpt lat="42.64698" lon="1.8099">
        <ele>1508</ele>
        <time>2022-08-13T09:56:33Z</time>
      </trkpt>
      <trkpt lat="42.64692" lon="1.8098">
        <ele>1508</ele>
        <time>2022-08-13T09:56:50Z</time>
      </trkpt>
      <trkpt lat="42.64686" lon="1.8097">
        <ele>1514</ele>
        <time>2022-08-13T09:57:01Z</time>
      </trkpt>
      <trkpt lat="42.64683" lon="1.80958">
        <ele>1514</ele>
        <time>2022-08-13T09:57:06Z</time>
      </trkpt>
      <trkpt lat="42.64677" lon="1.80949">
        <ele>1514</ele>
        <time>2022-08-13T09:57:17Z</time>
      </trkpt>
      <trkpt lat="42.64673" lon="1.80937">
        <ele>1514</ele>
        <time>2022-08-13T09:58:08Z</time>
      </trkpt>
      <trkpt lat="42.64668" lon="1.80925">
        <ele>1514</ele>
        <time>2022-08-13T09:58:18Z</time>
      </trkpt>
      <trkpt lat="42.64663" lon="1.80915">
        <ele>1514</ele>
        <time>2022-08-13T09:58:26Z</time>
      </trkpt>
      <trkpt lat="42.64654" lon="1.8091">
        <ele>1514</ele>
        <time>2022-08-13T09:58:39Z</time>
      </trkpt>
      <trkpt lat="42.64645" lon="1.80904">
        <ele>1514</ele>
        <time>2022-08-13T09:58:49Z</time>
      </trkpt>
      <trkpt lat="42.64636" lon="1.80896">
        <ele>1514</ele>
        <time>2022-08-13T09:58:58Z</time>
      </trkpt>
      <trkpt lat="42.64627" lon="1.80892">
        <ele>1514</ele>
        <time>2022-08-13T09:59:07Z</time>
      </trkpt>
      <trkpt lat="42.64619" lon="1.80884">
        <ele>1514</ele>
        <time>2022-08-13T09:59:16Z</time>
      </trkpt>
      <trkpt lat="42.64615" lon="1.80873">
        <ele>1514</ele>
        <time>2022-08-13T09:59:27Z</time>
      </trkpt>
      <trkpt lat="42.64616" lon="1.8086">
        <ele>1514</ele>
        <time>2022-08-13T09:59:45Z</time>
      </trkpt>
      <trkpt lat="42.64611" lon="1.80849">
        <ele>1514</ele>
        <time>2022-08-13T09:59:54Z</time>
      </trkpt>
      <trkpt lat="42.64605" lon="1.80837">
        <ele>1514</ele>
        <time>2022-08-13T10:00:02Z</time>
      </trkpt>
      <trkpt lat="42.64596" lon="1.80827">
        <ele>1514</ele>
        <time>2022-08-13T10:00:13Z</time>
      </trkpt>
      <trkpt lat="42.64589" lon="1.80816">
        <ele>1514</ele>
        <time>2022-08-13T10:00:22Z</time>
      </trkpt>
      <trkpt lat="42.64585" lon="1.80804">
        <ele>1514</ele>
        <time>2022-08-13T10:00:29Z</time>
      </trkpt>
      <trkpt lat="42.64581" lon="1.80793">
        <ele>1514</ele>
        <time>2022-08-13T10:00:35Z</time>
      </trkpt>
      <trkpt lat="42.64572" lon="1.80787">
        <ele>1514</ele>
        <time>2022-08-13T10:00:44Z</time>
      </trkpt>
      <trkpt lat="42.64565" lon="1.8078">
        <ele>1514</ele>
        <time>2022-08-13T10:00:55Z</time>
      </trkpt>
      <trkpt lat="42.64556" lon="1.80773">
        <ele>1514</ele>
        <time>2022-08-13T10:01:08Z</time>
      </trkpt>
      <trkpt lat="42.64548" lon="1.80764">
        <ele>1514</ele>
        <time>2022-08-13T10:01:16Z</time>
      </trkpt>
      <trkpt lat="42.64544" lon="1.80753">
        <ele>1514</ele>
        <time>2022-08-13T10:01:25Z</time>
      </trkpt>
      <trkpt lat="42.6454" lon="1.8074">
        <ele>1514</ele>
        <time>2022-08-13T10:01:33Z</time>
      </trkpt>
      <trkpt lat="42.64534" lon="1.8073">
        <ele>1514</ele>
        <time>2022-08-13T10:01:50Z</time>
      </trkpt>
      <trkpt lat="42.6453" lon="1.80716">
        <ele>1514</ele>
        <time>2022-08-13T10:02:03Z</time>
      </trkpt>
      <trkpt lat="42.64527" lon="1.80704">
        <ele>1514</ele>
        <time>2022-08-13T10:02:06Z</time>
      </trkpt>
      <trkpt lat="42.64525" lon="1.80691">
        <ele>1514</ele>
        <time>2022-08-13T10:02:13Z</time>
      </trkpt>
      <trkpt lat="42.64524" lon="1.80678">
        <ele>1514</ele>
        <time>2022-08-13T10:02:20Z</time>
      </trkpt>
      <trkpt lat="42.64522" lon="1.80665">
        <ele>1514</ele>
        <time>2022-08-13T10:02:29Z</time>
      </trkpt>
      <trkpt lat="42.64518" lon="1.80653">
        <ele>1514</ele>
        <time>2022-08-13T10:02:37Z</time>
      </trkpt>
      <trkpt lat="42.64511" lon="1.80645">
        <ele>1514</ele>
        <time>2022-08-13T10:02:48Z</time>
      </trkpt>
      <trkpt lat="42.64502" lon="1.8064">
        <ele>1514</ele>
        <time>2022-08-13T10:02:57Z</time>
      </trkpt>
      <trkpt lat="42.64495" lon="1.80631">
        <ele>1514</ele>
        <time>2022-08-13T10:03:05Z</time>
      </trkpt>
      <trkpt lat="42.64484" lon="1.8062">
        <ele>1514</ele>
        <time>2022-08-13T10:03:23Z</time>
      </trkpt>
      <trkpt lat="42.64477" lon="1.80613">
        <ele>1514</ele>
        <time>2022-08-13T10:03:34Z</time>
      </trkpt>
      <trkpt lat="42.64472" lon="1.80602">
        <ele>1514</ele>
        <time>2022-08-13T10:03:44Z</time>
      </trkpt>
      <trkpt lat="42.64469" lon="1.8059">
        <ele>1514</ele>
        <time>2022-08-13T10:03:53Z</time>
      </trkpt>
      <trkpt lat="42.64463" lon="1.80579">
        <ele>1514</ele>
        <time>2022-08-13T10:04:03Z</time>
      </trkpt>
      <trkpt lat="42.64456" lon="1.80567">
        <ele>1528</ele>
        <time>2022-08-13T10:04:11Z</time>
      </trkpt>
      <trkpt lat="42.64457" lon="1.80555">
        <ele>1528</ele>
        <time>2022-08-13T10:04:22Z</time>
      </trkpt>
      <trkpt lat="42.64453" lon="1.80537">
        <ele>1528</ele>
        <time>2022-08-13T10:04:39Z</time>
      </trkpt>
      <trkpt lat="42.64445" lon="1.80529">
        <ele>1528</ele>
        <time>2022-08-13T10:04:48Z</time>
      </trkpt>
      <trkpt lat="42.6444" lon="1.80518">
        <ele>1528</ele>
        <time>2022-08-13T10:05:02Z</time>
      </trkpt>
      <trkpt lat="42.64437" lon="1.80505">
        <ele>1534</ele>
        <time>2022-08-13T10:05:11Z</time>
      </trkpt>
      <trkpt lat="42.64433" lon="1.80494">
        <ele>1534</ele>
        <time>2022-08-13T10:05:23Z</time>
      </trkpt>
      <trkpt lat="42.6443" lon="1.80482">
        <ele>1534</ele>
        <time>2022-08-13T10:05:45Z</time>
      </trkpt>
      <trkpt lat="42.64428" lon="1.8047">
        <ele>1534</ele>
        <time>2022-08-13T10:05:59Z</time>
      </trkpt>
      <trkpt lat="42.64424" lon="1.80459">
        <ele>1534</ele>
        <time>2022-08-13T10:06:09Z</time>
      </trkpt>
      <trkpt lat="42.64419" lon="1.80446">
        <ele>1534</ele>
        <time>2022-08-13T10:06:26Z</time>
      </trkpt>
      <trkpt lat="42.64414" lon="1.80435">
        <ele>1534</ele>
        <time>2022-08-13T10:06:43Z</time>
      </trkpt>
      <trkpt lat="42.64413" lon="1.80422">
        <ele>1534</ele>
        <time>2022-08-13T10:06:57Z</time>
      </trkpt>
      <trkpt lat="42.64407" lon="1.80413">
        <ele>1534</ele>
        <time>2022-08-13T10:07:27Z</time>
      </trkpt>
      <trkpt lat="42.64398" lon="1.80413">
        <ele>1534</ele>
        <time>2022-08-13T10:07:34Z</time>
      </trkpt>
      <trkpt lat="42.64393" lon="1.80402">
        <ele>1534</ele>
        <time>2022-08-13T10:07:42Z</time>
      </trkpt>
      <trkpt lat="42.64387" lon="1.80394">
        <ele>1534</ele>
        <time>2022-08-13T10:07:59Z</time>
      </trkpt>
      <trkpt lat="42.6438" lon="1.80385">
        <ele>1534</ele>
        <time>2022-08-13T10:08:25Z</time>
      </trkpt>
      <trkpt lat="42.64374" lon="1.80374">
        <ele>1534</ele>
        <time>2022-08-13T10:08:43Z</time>
      </trkpt>
      <trkpt lat="42.64368" lon="1.80363">
        <ele>1534</ele>
        <time>2022-08-13T10:08:56Z</time>
      </trkpt>
      <trkpt lat="42.64364" lon="1.80352">
        <ele>1534</ele>
        <time>2022-08-13T10:09:05Z</time>
      </trkpt>
      <trkpt lat="42.64358" lon="1.80342">
        <ele>1569</ele>
        <time>2022-08-13T10:09:21Z</time>
      </trkpt>
      <trkpt lat="42.64349" lon="1.80338">
        <ele>1569</ele>
        <time>2022-08-13T10:10:39Z</time>
      </trkpt>
      <trkpt lat="42.64342" lon="1.80331">
        <ele>1569</ele>
        <time>2022-08-13T10:10:46Z</time>
      </trkpt>
      <trkpt lat="42.64335" lon="1.80322">
        <ele>1569</ele>
        <time>2022-08-13T10:10:53Z</time>
      </trkpt>
      <trkpt lat="42.64327" lon="1.80317">
        <ele>1569</ele>
        <time>2022-08-13T10:11:06Z</time>
      </trkpt>
      <trkpt lat="42.64318" lon="1.80314">
        <ele>1569</ele>
        <time>2022-08-13T10:11:18Z</time>
      </trkpt>
      <trkpt lat="42.64308" lon="1.80311">
        <ele>1569</ele>
        <time>2022-08-13T10:11:28Z</time>
      </trkpt>
      <trkpt lat="42.64304" lon="1.80299">
        <ele>1569</ele>
        <time>2022-08-13T10:11:38Z</time>
      </trkpt>
      <trkpt lat="42.64297" lon="1.8029">
        <ele>1569</ele>
        <time>2022-08-13T10:11:56Z</time>
      </trkpt>
      <trkpt lat="42.64291" lon="1.80279">
        <ele>1569</ele>
        <time>2022-08-13T10:12:06Z</time>
      </trkpt>
      <trkpt lat="42.64282" lon="1.80276">
        <ele>1569</ele>
        <time>2022-08-13T10:12:25Z</time>
      </trkpt>
      <trkpt lat="42.64274" lon="1.80269">
        <ele>1569</ele>
        <time>2022-08-13T10:12:37Z</time>
      </trkpt>
      <trkpt lat="42.64265" lon="1.80263">
        <ele>1569</ele>
        <time>2022-08-13T10:12:47Z</time>
      </trkpt>
      <trkpt lat="42.64258" lon="1.80256">
        <ele>1569</ele>
        <time>2022-08-13T10:12:59Z</time>
      </trkpt>
      <trkpt lat="42.64251" lon="1.80248">
        <ele>1569</ele>
        <time>2022-08-13T10:13:14Z</time>
      </trkpt>
      <trkpt lat="42.64242" lon="1.80243">
        <ele>1569</ele>
        <time>2022-08-13T10:13:27Z</time>
      </trkpt>
      <trkpt lat="42.64237" lon="1.80231">
        <ele>1569</ele>
        <time>2022-08-13T10:13:35Z</time>
      </trkpt>
      <trkpt lat="42.64235" lon="1.80218">
        <ele>1569</ele>
        <time>2022-08-13T10:13:47Z</time>
      </trkpt>
      <trkpt lat="42.64233" lon="1.80206">
        <ele>1569</ele>
        <time>2022-08-13T10:13:57Z</time>
      </trkpt>
      <trkpt lat="42.64226" lon="1.80198">
        <ele>1569</ele>
        <time>2022-08-13T10:14:13Z</time>
      </trkpt>
      <trkpt lat="42.64216" lon="1.80194">
        <ele>1588</ele>
        <time>2022-08-13T10:14:31Z</time>
      </trkpt>
      <trkpt lat="42.64207" lon="1.80194">
        <ele>1588</ele>
        <time>2022-08-13T10:14:43Z</time>
      </trkpt>
      <trkpt lat="42.64201" lon="1.80183">
        <ele>1588</ele>
        <time>2022-08-13T10:14:54Z</time>
      </trkpt>
      <trkpt lat="42.64199" lon="1.80171">
        <ele>1588</ele>
        <time>2022-08-13T10:15:06Z</time>
      </trkpt>
      <trkpt lat="42.64194" lon="1.8016">
        <ele>1588</ele>
        <time>2022-08-13T10:15:17Z</time>
      </trkpt>
      <trkpt lat="42.64192" lon="1.80146">
        <ele>1588</ele>
        <time>2022-08-13T10:15:32Z</time>
      </trkpt>
      <trkpt lat="42.64191" lon="1.80133">
        <ele>1588</ele>
        <time>2022-08-13T10:15:39Z</time>
      </trkpt>
      <trkpt lat="42.64191" lon="1.8012">
        <ele>1588</ele>
        <time>2022-08-13T10:15:49Z</time>
      </trkpt>
      <trkpt lat="42.64188" lon="1.80108">
        <ele>1588</ele>
        <time>2022-08-13T10:16:08Z</time>
      </trkpt>
      <trkpt lat="42.64179" lon="1.80107">
        <ele>1588</ele>
        <time>2022-08-13T10:16:23Z</time>
      </trkpt>
      <trkpt lat="42.64169" lon="1.80106">
        <ele>1588</ele>
        <time>2022-08-13T10:16:34Z</time>
      </trkpt>
      <trkpt lat="42.6416" lon="1.80097">
        <ele>1588</ele>
        <time>2022-08-13T10:16:54Z</time>
      </trkpt>
      <trkpt lat="42.64153" lon="1.80089">
        <ele>1588</ele>
        <time>2022-08-13T10:17:20Z</time>
      </trkpt>
      <trkpt lat="42.64149" lon="1.80078">
        <ele>1588</ele>
        <time>2022-08-13T10:17:34Z</time>
      </trkpt>
      <trkpt lat="42.64139" lon="1.80081">
        <ele>1588</ele>
        <time>2022-08-13T10:17:47Z</time>
      </trkpt>
      <trkpt lat="42.64131" lon="1.80073">
        <ele>1588</ele>
        <time>2022-08-13T10:17:58Z</time>
      </trkpt>
      <trkpt lat="42.64122" lon="1.8007">
        <ele>1588</ele>
        <time>2022-08-13T10:18:06Z</time>
      </trkpt>
      <trkpt lat="42.64113" lon="1.80063">
        <ele>1588</ele>
        <time>2022-08-13T10:18:18Z</time>
      </trkpt>
      <trkpt lat="42.64107" lon="1.80053">
        <ele>1618</ele>
        <time>2022-08-13T10:18:31Z</time>
      </trkpt>
      <trkpt lat="42.64102" lon="1.80043">
        <ele>1618</ele>
        <time>2022-08-13T10:18:47Z</time>
      </trkpt>
      <trkpt lat="42.641" lon="1.80031">
        <ele>1618</ele>
        <time>2022-08-13T10:19:00Z</time>
      </trkpt>
      <trkpt lat="42.64091" lon="1.80026">
        <ele>1618</ele>
        <time>2022-08-13T10:19:14Z</time>
      </trkpt>
      <trkpt lat="42.64085" lon="1.80015">
        <ele>1622</ele>
        <time>2022-08-13T10:19:21Z</time>
      </trkpt>
      <trkpt lat="42.64079" lon="1.80003">
        <ele>1622</ele>
        <time>2022-08-13T10:19:31Z</time>
      </trkpt>
      <trkpt lat="42.64075" lon="1.79989">
        <ele>1622</ele>
        <time>2022-08-13T10:19:45Z</time>
      </trkpt>
      <trkpt lat="42.64067" lon="1.79985">
        <ele>1622</ele>
        <time>2022-08-13T10:19:56Z</time>
      </trkpt>
      <trkpt lat="42.64057" lon="1.79984">
        <ele>1622</ele>
        <time>2022-08-13T10:20:27Z</time>
      </trkpt>
      <trkpt lat="42.64051" lon="1.79973">
        <ele>1622</ele>
        <time>2022-08-13T10:20:36Z</time>
      </trkpt>
      <trkpt lat="42.64045" lon="1.79963">
        <ele>1622</ele>
        <time>2022-08-13T10:20:45Z</time>
      </trkpt>
      <trkpt lat="42.64038" lon="1.79954">
        <ele>1622</ele>
        <time>2022-08-13T10:20:55Z</time>
      </trkpt>
      <trkpt lat="42.64031" lon="1.79947">
        <ele>1622</ele>
        <time>2022-08-13T10:21:03Z</time>
      </trkpt>
      <trkpt lat="42.64027" lon="1.79935">
        <ele>1622</ele>
        <time>2022-08-13T10:21:19Z</time>
      </trkpt>
      <trkpt lat="42.64025" lon="1.79922">
        <ele>1622</ele>
        <time>2022-08-13T10:21:26Z</time>
      </trkpt>
      <trkpt lat="42.64019" lon="1.79912">
        <ele>1622</ele>
        <time>2022-08-13T10:21:33Z</time>
      </trkpt>
      <trkpt lat="42.64009" lon="1.79909">
        <ele>1622</ele>
        <time>2022-08-13T10:21:42Z</time>
      </trkpt>
      <trkpt lat="42.64" lon="1.79905">
        <ele>1622</ele>
        <time>2022-08-13T10:21:50Z</time>
      </trkpt>
      <trkpt lat="42.6399" lon="1.79902">
        <ele>1622</ele>
        <time>2022-08-13T10:22:00Z</time>
      </trkpt>
      <trkpt lat="42.63982" lon="1.79898">
        <ele>1622</ele>
        <time>2022-08-13T10:22:10Z</time>
      </trkpt>
      <trkpt lat="42.63973" lon="1.79893">
        <ele>1622</ele>
        <time>2022-08-13T10:22:18Z</time>
      </trkpt>
      <trkpt lat="42.63965" lon="1.79886">
        <ele>1622</ele>
        <time>2022-08-13T10:22:26Z</time>
      </trkpt>
      <trkpt lat="42.63957" lon="1.7988">
        <ele>1622</ele>
        <time>2022-08-13T10:22:40Z</time>
      </trkpt>
      <trkpt lat="42.63949" lon="1.79871">
        <ele>1622</ele>
        <time>2022-08-13T10:22:48Z</time>
      </trkpt>
      <trkpt lat="42.63941" lon="1.79865">
        <ele>1622</ele>
        <time>2022-08-13T10:23:02Z</time>
      </trkpt>
      <trkpt lat="42.63933" lon="1.79858">
        <ele>1625</ele>
        <time>2022-08-13T10:23:11Z</time>
      </trkpt>
      <trkpt lat="42.63926" lon="1.79849">
        <ele>1625</ele>
        <time>2022-08-13T10:23:22Z</time>
      </trkpt>
      <trkpt lat="42.63917" lon="1.79847">
        <ele>1625</ele>
        <time>2022-08-13T10:23:39Z</time>
      </trkpt>
      <trkpt lat="42.6391" lon="1.79836">
        <ele>1625</ele>
        <time>2022-08-13T10:23:48Z</time>
      </trkpt>
      <trkpt lat="42.63904" lon="1.79825">
        <ele>1625</ele>
        <time>2022-08-13T10:23:57Z</time>
      </trkpt>
      <trkpt lat="42.63898" lon="1.79817">
        <ele>1625</ele>
        <time>2022-08-13T10:24:05Z</time>
      </trkpt>
      <trkpt lat="42.63892" lon="1.79807">
        <ele>1625</ele>
        <time>2022-08-13T10:24:12Z</time>
      </trkpt>
      <trkpt lat="42.63883" lon="1.79803">
        <ele>1625</ele>
        <time>2022-08-13T10:24:20Z</time>
      </trkpt>
      <trkpt lat="42.63874" lon="1.79798">
        <ele>1625</ele>
        <time>2022-08-13T10:24:28Z</time>
      </trkpt>
      <trkpt lat="42.63865" lon="1.79798">
        <ele>1625</ele>
        <time>2022-08-13T10:24:42Z</time>
      </trkpt>
      <trkpt lat="42.63865" lon="1.79811">
        <ele>1625</ele>
        <time>2022-08-13T10:24:57Z</time>
      </trkpt>
      <trkpt lat="42.63864" lon="1.79824">
        <ele>1625</ele>
        <time>2022-08-13T10:25:03Z</time>
      </trkpt>
      <trkpt lat="42.63861" lon="1.79836">
        <ele>1625</ele>
        <time>2022-08-13T10:25:12Z</time>
      </trkpt>
      <trkpt lat="42.63865" lon="1.79849">
        <ele>1625</ele>
        <time>2022-08-13T10:25:27Z</time>
      </trkpt>
      <trkpt lat="42.63868" lon="1.79842">
        <ele>1616</ele>
        <time>2022-08-13T11:07:56Z</time>
      </trkpt>
      <trkpt lat="42.6387" lon="1.7984">
        <ele>1615</ele>
        <time>2022-08-13T11:13:15Z</time>
      </trkpt>
      <trkpt lat="42.6385" lon="1.79842">
        <ele>1615</ele>
        <time>2022-08-13T11:13:41Z</time>
      </trkpt>
      <trkpt lat="42.63852" lon="1.79813">
        <ele>1616</ele>
        <time>2022-08-13T11:14:04Z</time>
      </trkpt>
      <trkpt lat="42.63842" lon="1.79787">
        <ele>1616</ele>
        <time>2022-08-13T11:14:48Z</time>
      </trkpt>
      <trkpt lat="42.63843" lon="1.79751">
        <ele>1616</ele>
        <time>2022-08-13T11:15:12Z</time>
      </trkpt>
      <trkpt lat="42.63838" lon="1.79725">
        <ele>1616</ele>
        <time>2022-08-13T11:15:35Z</time>
      </trkpt>
      <trkpt lat="42.63829" lon="1.79721">
        <ele>1616</ele>
        <time>2022-08-13T11:19:30Z</time>
      </trkpt>
      <trkpt lat="42.63837" lon="1.79693">
        <ele>1616</ele>
        <time>2022-08-13T11:19:52Z</time>
      </trkpt>
      <trkpt lat="42.63825" lon="1.79667">
        <ele>1616</ele>
        <time>2022-08-13T11:20:14Z</time>
      </trkpt>
      <trkpt lat="42.6382" lon="1.79641">
        <ele>1616</ele>
        <time>2022-08-13T11:20:37Z</time>
      </trkpt>
      <trkpt lat="42.63814" lon="1.79626">
        <ele>1627</ele>
        <time>2022-08-13T11:21:00Z</time>
      </trkpt>
      <trkpt lat="42.63826" lon="1.79613">
        <ele>1627</ele>
        <time>2022-08-13T11:21:22Z</time>
      </trkpt>
      <trkpt lat="42.63818" lon="1.79602">
        <ele>1627</ele>
        <time>2022-08-13T11:22:07Z</time>
      </trkpt>
      <trkpt lat="42.63824" lon="1.79587">
        <ele>1637</ele>
        <time>2022-08-13T11:22:30Z</time>
      </trkpt>
      <trkpt lat="42.63826" lon="1.79575">
        <ele>1637</ele>
        <time>2022-08-13T11:22:54Z</time>
      </trkpt>
      <trkpt lat="42.63815" lon="1.79563">
        <ele>1637</ele>
        <time>2022-08-13T11:23:17Z</time>
      </trkpt>
      <trkpt lat="42.63802" lon="1.79552">
        <ele>1649</ele>
        <time>2022-08-13T11:23:40Z</time>
      </trkpt>
      <trkpt lat="42.63792" lon="1.79542">
        <ele>1649</ele>
        <time>2022-08-13T11:24:02Z</time>
      </trkpt>
      <trkpt lat="42.6378" lon="1.79526">
        <ele>1649</ele>
        <time>2022-08-13T11:24:25Z</time>
      </trkpt>
      <trkpt lat="42.63772" lon="1.79513">
        <ele>1649</ele>
        <time>2022-08-13T11:24:48Z</time>
      </trkpt>
      <trkpt lat="42.63766" lon="1.795">
        <ele>1649</ele>
        <time>2022-08-13T11:25:11Z</time>
      </trkpt>
      <trkpt lat="42.63761" lon="1.79487">
        <ele>1649</ele>
        <time>2022-08-13T11:25:34Z</time>
      </trkpt>
      <trkpt lat="42.63755" lon="1.79465">
        <ele>1649</ele>
        <time>2022-08-13T11:26:11Z</time>
      </trkpt>
      <trkpt lat="42.63775" lon="1.79456">
        <ele>1649</ele>
        <time>2022-08-13T11:26:56Z</time>
      </trkpt>
      <trkpt lat="42.63788" lon="1.79457">
        <ele>1649</ele>
        <time>2022-08-13T11:27:21Z</time>
      </trkpt>
      <trkpt lat="42.63782" lon="1.79434">
        <ele>1649</ele>
        <time>2022-08-13T11:28:11Z</time>
      </trkpt>
      <trkpt lat="42.63775" lon="1.79414">
        <ele>1649</ele>
        <time>2022-08-13T11:28:55Z</time>
      </trkpt>
      <trkpt lat="42.63786" lon="1.79411">
        <ele>1649</ele>
        <time>2022-08-13T11:29:17Z</time>
      </trkpt>
      <trkpt lat="42.63799" lon="1.79406">
        <ele>1649</ele>
        <time>2022-08-13T11:29:41Z</time>
      </trkpt>
      <trkpt lat="42.63792" lon="1.79397">
        <ele>1649</ele>
        <time>2022-08-13T11:30:06Z</time>
      </trkpt>
      <trkpt lat="42.63787" lon="1.79384">
        <ele>1649</ele>
        <time>2022-08-13T11:30:29Z</time>
      </trkpt>
      <trkpt lat="42.638" lon="1.79382">
        <ele>1649</ele>
        <time>2022-08-13T11:30:52Z</time>
      </trkpt>
      <trkpt lat="42.63792" lon="1.79364">
        <ele>1649</ele>
        <time>2022-08-13T11:31:38Z</time>
      </trkpt>
      <trkpt lat="42.63785" lon="1.79357">
        <ele>1649</ele>
        <time>2022-08-13T11:32:01Z</time>
      </trkpt>
      <trkpt lat="42.63777" lon="1.79347">
        <ele>1649</ele>
        <time>2022-08-13T11:33:06Z</time>
      </trkpt>
      <trkpt lat="42.63759" lon="1.79343">
        <ele>1649</ele>
        <time>2022-08-13T11:33:55Z</time>
      </trkpt>
      <trkpt lat="42.63753" lon="1.79325">
        <ele>1649</ele>
        <time>2022-08-13T11:34:25Z</time>
      </trkpt>
      <trkpt lat="42.63761" lon="1.79303">
        <ele>1649</ele>
        <time>2022-08-13T11:35:10Z</time>
      </trkpt>
      <trkpt lat="42.6377" lon="1.79295">
        <ele>1649</ele>
        <time>2022-08-13T11:35:54Z</time>
      </trkpt>
      <trkpt lat="42.63782" lon="1.79285">
        <ele>1649</ele>
        <time>2022-08-13T11:36:17Z</time>
      </trkpt>
      <trkpt lat="42.63792" lon="1.79278">
        <ele>1649</ele>
        <time>2022-08-13T11:36:41Z</time>
      </trkpt>
      <trkpt lat="42.63784" lon="1.79264">
        <ele>1649</ele>
        <time>2022-08-13T11:37:26Z</time>
      </trkpt>
      <trkpt lat="42.63776" lon="1.79258">
        <ele>1649</ele>
        <time>2022-08-13T11:37:49Z</time>
      </trkpt>
      <trkpt lat="42.63761" lon="1.79244">
        <ele>1649</ele>
        <time>2022-08-13T11:38:35Z</time>
      </trkpt>
      <trkpt lat="42.63753" lon="1.79235">
        <ele>1649</ele>
        <time>2022-08-13T11:38:58Z</time>
      </trkpt>
      <trkpt lat="42.63743" lon="1.7923">
        <ele>1791</ele>
        <time>2022-08-13T11:39:20Z</time>
      </trkpt>
      <trkpt lat="42.63737" lon="1.79219">
        <ele>1791</ele>
        <time>2022-08-13T11:39:42Z</time>
      </trkpt>
      <trkpt lat="42.6373" lon="1.79208">
        <ele>1791</ele>
        <time>2022-08-13T11:40:04Z</time>
      </trkpt>
      <trkpt lat="42.63722" lon="1.792">
        <ele>1791</ele>
        <time>2022-08-13T11:40:28Z</time>
      </trkpt>
      <trkpt lat="42.63715" lon="1.79191">
        <ele>1791</ele>
        <time>2022-08-13T11:40:51Z</time>
      </trkpt>
      <trkpt lat="42.63706" lon="1.79182">
        <ele>1791</ele>
        <time>2022-08-13T11:41:14Z</time>
      </trkpt>
      <trkpt lat="42.63698" lon="1.79177">
        <ele>1791</ele>
        <time>2022-08-13T11:41:36Z</time>
      </trkpt>
      <trkpt lat="42.6369" lon="1.79166">
        <ele>1791</ele>
        <time>2022-08-13T11:42:19Z</time>
      </trkpt>
      <trkpt lat="42.63691" lon="1.79165">
        <ele>1816</ele>
        <time>2022-08-13T11:47:07Z</time>
      </trkpt>
      <trkpt lat="42.63693" lon="1.79172">
        <ele>1823</ele>
        <time>2022-08-13T11:54:17Z</time>
      </trkpt>
      <trkpt lat="42.63692" lon="1.79155">
        <ele>1823</ele>
        <time>2022-08-13T11:54:45Z</time>
      </trkpt>
      <trkpt lat="42.63697" lon="1.79142">
        <ele>1823</ele>
        <time>2022-08-13T11:55:32Z</time>
      </trkpt>
      <trkpt lat="42.63702" lon="1.79131">
        <ele>1823</ele>
        <time>2022-08-13T11:56:17Z</time>
      </trkpt>
      <trkpt lat="42.637" lon="1.79114">
        <ele>1823</ele>
        <time>2022-08-13T11:57:02Z</time>
      </trkpt>
      <trkpt lat="42.63696" lon="1.7909">
        <ele>1823</ele>
        <time>2022-08-13T11:57:47Z</time>
      </trkpt>
      <trkpt lat="42.63687" lon="1.79074">
        <ele>1823</ele>
        <time>2022-08-13T11:58:10Z</time>
      </trkpt>
      <trkpt lat="42.63678" lon="1.7906">
        <ele>1823</ele>
        <time>2022-08-13T11:58:32Z</time>
      </trkpt>
      <trkpt lat="42.63666" lon="1.79046">
        <ele>1823</ele>
        <time>2022-08-13T11:58:55Z</time>
      </trkpt>
      <trkpt lat="42.63658" lon="1.79028">
        <ele>1823</ele>
        <time>2022-08-13T11:59:18Z</time>
      </trkpt>
      <trkpt lat="42.63646" lon="1.79008">
        <ele>1823</ele>
        <time>2022-08-13T12:00:05Z</time>
      </trkpt>
      <trkpt lat="42.63641" lon="1.78991">
        <ele>1823</ele>
        <time>2022-08-13T12:00:27Z</time>
      </trkpt>
      <trkpt lat="42.63635" lon="1.78966">
        <ele>1823</ele>
        <time>2022-08-13T12:00:50Z</time>
      </trkpt>
      <trkpt lat="42.63634" lon="1.78942">
        <ele>1823</ele>
        <time>2022-08-13T12:01:13Z</time>
      </trkpt>
      <trkpt lat="42.63631" lon="1.78926">
        <ele>1823</ele>
        <time>2022-08-13T12:01:36Z</time>
      </trkpt>
      <trkpt lat="42.63628" lon="1.78913">
        <ele>1823</ele>
        <time>2022-08-13T12:01:59Z</time>
      </trkpt>
      <trkpt lat="42.63618" lon="1.78902">
        <ele>1823</ele>
        <time>2022-08-13T12:03:24Z</time>
      </trkpt>
      <trkpt lat="42.63604" lon="1.78885">
        <ele>1823</ele>
        <time>2022-08-13T12:03:48Z</time>
      </trkpt>
      <trkpt lat="42.63585" lon="1.78853">
        <ele>1823</ele>
        <time>2022-08-13T12:06:03Z</time>
      </trkpt>
      <trkpt lat="42.63565" lon="1.78822">
        <ele>1823</ele>
        <time>2022-08-13T12:06:27Z</time>
      </trkpt>
      <trkpt lat="42.63554" lon="1.78797">
        <ele>1823</ele>
        <time>2022-08-13T12:06:50Z</time>
      </trkpt>
      <trkpt lat="42.63548" lon="1.78769">
        <ele>1823</ele>
        <time>2022-08-13T12:07:12Z</time>
      </trkpt>
      <trkpt lat="42.63547" lon="1.78745">
        <ele>1880</ele>
        <time>2022-08-13T12:07:36Z</time>
      </trkpt>
      <trkpt lat="42.63553" lon="1.78725">
        <ele>1880</ele>
        <time>2022-08-13T12:07:59Z</time>
      </trkpt>
      <trkpt lat="42.63558" lon="1.78708">
        <ele>1880</ele>
        <time>2022-08-13T12:08:22Z</time>
      </trkpt>
      <trkpt lat="42.63564" lon="1.78694">
        <ele>1892</ele>
        <time>2022-08-13T12:08:46Z</time>
      </trkpt>
      <trkpt lat="42.63567" lon="1.7868">
        <ele>1892</ele>
        <time>2022-08-13T12:09:09Z</time>
      </trkpt>
      <trkpt lat="42.63569" lon="1.78665">
        <ele>1892</ele>
        <time>2022-08-13T12:09:31Z</time>
      </trkpt>
      <trkpt lat="42.63568" lon="1.78647">
        <ele>1892</ele>
        <time>2022-08-13T12:09:55Z</time>
      </trkpt>
      <trkpt lat="42.63564" lon="1.78633">
        <ele>1892</ele>
        <time>2022-08-13T12:10:18Z</time>
      </trkpt>
      <trkpt lat="42.6356" lon="1.78618">
        <ele>1892</ele>
        <time>2022-08-13T12:10:41Z</time>
      </trkpt>
      <trkpt lat="42.63574" lon="1.78618">
        <ele>1892</ele>
        <time>2022-08-13T12:11:04Z</time>
      </trkpt>
      <trkpt lat="42.63565" lon="1.78604">
        <ele>1892</ele>
        <time>2022-08-13T12:11:28Z</time>
      </trkpt>
      <trkpt lat="42.63566" lon="1.78582">
        <ele>1892</ele>
        <time>2022-08-13T12:12:13Z</time>
      </trkpt>
      <trkpt lat="42.63581" lon="1.78575">
        <ele>1892</ele>
        <time>2022-08-13T12:13:21Z</time>
      </trkpt>
      <trkpt lat="42.63572" lon="1.78564">
        <ele>1892</ele>
        <time>2022-08-13T12:13:44Z</time>
      </trkpt>
      <trkpt lat="42.63569" lon="1.7855">
        <ele>1892</ele>
        <time>2022-08-13T12:14:28Z</time>
      </trkpt>
      <trkpt lat="42.6357" lon="1.78529">
        <ele>1892</ele>
        <time>2022-08-13T12:15:34Z</time>
      </trkpt>
      <trkpt lat="42.63571" lon="1.78515">
        <ele>1892</ele>
        <time>2022-08-13T12:15:57Z</time>
      </trkpt>
      <trkpt lat="42.63569" lon="1.785">
        <ele>1892</ele>
        <time>2022-08-13T12:16:20Z</time>
      </trkpt>
      <trkpt lat="42.63571" lon="1.78487">
        <ele>1892</ele>
        <time>2022-08-13T12:16:43Z</time>
      </trkpt>
      <trkpt lat="42.63576" lon="1.78473">
        <ele>1892</ele>
        <time>2022-08-13T12:17:07Z</time>
      </trkpt>
      <trkpt lat="42.63583" lon="1.78455">
        <ele>1892</ele>
        <time>2022-08-13T12:17:29Z</time>
      </trkpt>
      <trkpt lat="42.63594" lon="1.78446">
        <ele>1892</ele>
        <time>2022-08-13T12:17:52Z</time>
      </trkpt>
      <trkpt lat="42.63601" lon="1.78428">
        <ele>1892</ele>
        <time>2022-08-13T12:18:15Z</time>
      </trkpt>
      <trkpt lat="42.6361" lon="1.78413">
        <ele>1892</ele>
        <time>2022-08-13T12:18:38Z</time>
      </trkpt>
      <trkpt lat="42.63616" lon="1.78403">
        <ele>1892</ele>
        <time>2022-08-13T12:19:01Z</time>
      </trkpt>
      <trkpt lat="42.63626" lon="1.78382">
        <ele>1892</ele>
        <time>2022-08-13T12:19:23Z</time>
      </trkpt>
      <trkpt lat="42.6364" lon="1.78365">
        <ele>1892</ele>
        <time>2022-08-13T12:19:47Z</time>
      </trkpt>
      <trkpt lat="42.63648" lon="1.78344">
        <ele>1892</ele>
        <time>2022-08-13T12:20:54Z</time>
      </trkpt>
      <trkpt lat="42.63664" lon="1.78322">
        <ele>1892</ele>
        <time>2022-08-13T12:21:18Z</time>
      </trkpt>
      <trkpt lat="42.63673" lon="1.78299">
        <ele>1892</ele>
        <time>2022-08-13T12:21:41Z</time>
      </trkpt>
      <trkpt lat="42.63681" lon="1.78277">
        <ele>1892</ele>
        <time>2022-08-13T12:22:03Z</time>
      </trkpt>
      <trkpt lat="42.6369" lon="1.78256">
        <ele>1892</ele>
        <time>2022-08-13T12:23:08Z</time>
      </trkpt>
      <trkpt lat="42.63703" lon="1.7826">
        <ele>1892</ele>
        <time>2022-08-13T12:23:30Z</time>
      </trkpt>
      <trkpt lat="42.63715" lon="1.78257">
        <ele>1892</ele>
        <time>2022-08-13T12:24:15Z</time>
      </trkpt>
      <trkpt lat="42.63736" lon="1.78246">
        <ele>1892</ele>
        <time>2022-08-13T12:25:02Z</time>
      </trkpt>
      <trkpt lat="42.63737" lon="1.78222">
        <ele>1892</ele>
        <time>2022-08-13T12:27:35Z</time>
      </trkpt>
      <trkpt lat="42.63741" lon="1.78197">
        <ele>1892</ele>
        <time>2022-08-13T12:27:58Z</time>
      </trkpt>
      <trkpt lat="42.63754" lon="1.78179">
        <ele>1892</ele>
        <time>2022-08-13T12:28:43Z</time>
      </trkpt>
      <trkpt lat="42.63761" lon="1.78165">
        <ele>1892</ele>
        <time>2022-08-13T12:29:07Z</time>
      </trkpt>
      <trkpt lat="42.6377" lon="1.78146">
        <ele>1892</ele>
        <time>2022-08-13T12:29:30Z</time>
      </trkpt>
      <trkpt lat="42.63772" lon="1.78126">
        <ele>1892</ele>
        <time>2022-08-13T12:29:52Z</time>
      </trkpt>
      <trkpt lat="42.63772" lon="1.78106">
        <ele>2042</ele>
        <time>2022-08-13T12:30:16Z</time>
      </trkpt>
      <trkpt lat="42.63779" lon="1.78085">
        <ele>2042</ele>
        <time>2022-08-13T12:30:39Z</time>
      </trkpt>
      <trkpt lat="42.63785" lon="1.7807">
        <ele>2042</ele>
        <time>2022-08-13T12:31:02Z</time>
      </trkpt>
      <trkpt lat="42.63782" lon="1.78046">
        <ele>2042</ele>
        <time>2022-08-13T12:31:48Z</time>
      </trkpt>
      <trkpt lat="42.63793" lon="1.78033">
        <ele>2042</ele>
        <time>2022-08-13T12:32:11Z</time>
      </trkpt>
      <trkpt lat="42.63799" lon="1.78014">
        <ele>2042</ele>
        <time>2022-08-13T12:32:33Z</time>
      </trkpt>
      <trkpt lat="42.63812" lon="1.77999">
        <ele>2042</ele>
        <time>2022-08-13T12:32:57Z</time>
      </trkpt>
      <trkpt lat="42.6382" lon="1.77985">
        <ele>2042</ele>
        <time>2022-08-13T12:33:19Z</time>
      </trkpt>
      <trkpt lat="42.63809" lon="1.77983">
        <ele>2042</ele>
        <time>2022-08-13T12:36:11Z</time>
      </trkpt>
      <trkpt lat="42.63814" lon="1.77967">
        <ele>2042</ele>
        <time>2022-08-13T12:36:36Z</time>
      </trkpt>
      <trkpt lat="42.63824" lon="1.7793">
        <ele>2042</ele>
        <time>2022-08-13T12:37:20Z</time>
      </trkpt>
      <trkpt lat="42.63829" lon="1.77898">
        <ele>2042</ele>
        <time>2022-08-13T12:37:47Z</time>
      </trkpt>
      <trkpt lat="42.63829" lon="1.7787">
        <ele>2042</ele>
        <time>2022-08-13T12:38:11Z</time>
      </trkpt>
      <trkpt lat="42.63823" lon="1.77837">
        <ele>2042</ele>
        <time>2022-08-13T12:38:34Z</time>
      </trkpt>
      <trkpt lat="42.63821" lon="1.77813">
        <ele>2042</ele>
        <time>2022-08-13T12:38:57Z</time>
      </trkpt>
      <trkpt lat="42.63822" lon="1.77793">
        <ele>2042</ele>
        <time>2022-08-13T12:39:20Z</time>
      </trkpt>
      <trkpt lat="42.6383" lon="1.77761">
        <ele>2087</ele>
        <time>2022-08-13T12:39:46Z</time>
      </trkpt>
      <trkpt lat="42.63837" lon="1.77736">
        <ele>2087</ele>
        <time>2022-08-13T12:40:09Z</time>
      </trkpt>
      <trkpt lat="42.63832" lon="1.77715">
        <ele>2087</ele>
        <time>2022-08-13T12:40:33Z</time>
      </trkpt>
      <trkpt lat="42.63831" lon="1.77697">
        <ele>2096</ele>
        <time>2022-08-13T12:40:56Z</time>
      </trkpt>
      <trkpt lat="42.63831" lon="1.77679">
        <ele>2096</ele>
        <time>2022-08-13T12:41:18Z</time>
      </trkpt>
      <trkpt lat="42.63826" lon="1.77658">
        <ele>2096</ele>
        <time>2022-08-13T12:41:40Z</time>
      </trkpt>
      <trkpt lat="42.63825" lon="1.77636">
        <ele>2096</ele>
        <time>2022-08-13T12:42:07Z</time>
      </trkpt>
      <trkpt lat="42.63823" lon="1.77623">
        <ele>2096</ele>
        <time>2022-08-13T12:42:30Z</time>
      </trkpt>
      <trkpt lat="42.63814" lon="1.77605">
        <ele>2096</ele>
        <time>2022-08-13T12:42:52Z</time>
      </trkpt>
      <trkpt lat="42.63803" lon="1.77593">
        <ele>2096</ele>
        <time>2022-08-13T12:43:15Z</time>
      </trkpt>
      <trkpt lat="42.6379" lon="1.77591">
        <ele>2096</ele>
        <time>2022-08-13T12:43:37Z</time>
      </trkpt>
      <trkpt lat="42.63785" lon="1.77578">
        <ele>2096</ele>
        <time>2022-08-13T12:44:01Z</time>
      </trkpt>
      <trkpt lat="42.63778" lon="1.77565">
        <ele>2096</ele>
        <time>2022-08-13T12:44:24Z</time>
      </trkpt>
      <trkpt lat="42.63773" lon="1.77544">
        <ele>2096</ele>
        <time>2022-08-13T12:44:48Z</time>
      </trkpt>
      <trkpt lat="42.63768" lon="1.77523">
        <ele>2096</ele>
        <time>2022-08-13T12:45:10Z</time>
      </trkpt>
      <trkpt lat="42.63762" lon="1.77502">
        <ele>2096</ele>
        <time>2022-08-13T12:45:32Z</time>
      </trkpt>
      <trkpt lat="42.63758" lon="1.77481">
        <ele>2096</ele>
        <time>2022-08-13T12:45:56Z</time>
      </trkpt>
      <trkpt lat="42.63751" lon="1.77462">
        <ele>2096</ele>
        <time>2022-08-13T12:47:20Z</time>
      </trkpt>
      <trkpt lat="42.63742" lon="1.77434">
        <ele>2096</ele>
        <time>2022-08-13T12:47:42Z</time>
      </trkpt>
      <trkpt lat="42.63739" lon="1.77405">
        <ele>2137</ele>
        <time>2022-08-13T12:48:06Z</time>
      </trkpt>
      <trkpt lat="42.6374" lon="1.77386">
        <ele>2137</ele>
        <time>2022-08-13T12:48:29Z</time>
      </trkpt>
      <trkpt lat="42.63739" lon="1.77371">
        <ele>2137</ele>
        <time>2022-08-13T12:48:51Z</time>
      </trkpt>
      <trkpt lat="42.63731" lon="1.77351">
        <ele>2137</ele>
        <time>2022-08-13T12:49:13Z</time>
      </trkpt>
      <trkpt lat="42.63727" lon="1.77337">
        <ele>2148</ele>
        <time>2022-08-13T12:49:26Z</time>
      </trkpt>
      <trkpt lat="42.63728" lon="1.7732">
        <ele>2148</ele>
        <time>2022-08-13T12:49:48Z</time>
      </trkpt>
      <trkpt lat="42.63726" lon="1.773">
        <ele>2148</ele>
        <time>2022-08-13T12:50:10Z</time>
      </trkpt>
      <trkpt lat="42.63721" lon="1.77274">
        <ele>2148</ele>
        <time>2022-08-13T12:50:35Z</time>
      </trkpt>
      <trkpt lat="42.6372" lon="1.7726">
        <ele>2148</ele>
        <time>2022-08-13T12:51:01Z</time>
      </trkpt>
      <trkpt lat="42.63725" lon="1.77245">
        <ele>2148</ele>
        <time>2022-08-13T12:51:25Z</time>
      </trkpt>
      <trkpt lat="42.63738" lon="1.77229">
        <ele>2148</ele>
        <time>2022-08-13T12:51:48Z</time>
      </trkpt>
      <trkpt lat="42.63751" lon="1.77216">
        <ele>2148</ele>
        <time>2022-08-13T12:52:11Z</time>
      </trkpt>
      <trkpt lat="42.63759" lon="1.772">
        <ele>2148</ele>
        <time>2022-08-13T12:52:34Z</time>
      </trkpt>
      <trkpt lat="42.63769" lon="1.77186">
        <ele>2148</ele>
        <time>2022-08-13T12:52:58Z</time>
      </trkpt>
      <trkpt lat="42.63774" lon="1.77169">
        <ele>2148</ele>
        <time>2022-08-13T12:53:20Z</time>
      </trkpt>
      <trkpt lat="42.6378" lon="1.77155">
        <ele>2148</ele>
        <time>2022-08-13T12:53:43Z</time>
      </trkpt>
      <trkpt lat="42.63786" lon="1.77139">
        <ele>2148</ele>
        <time>2022-08-13T12:54:07Z</time>
      </trkpt>
      <trkpt lat="42.63795" lon="1.77117">
        <ele>2148</ele>
        <time>2022-08-13T12:54:30Z</time>
      </trkpt>
      <trkpt lat="42.63803" lon="1.77097">
        <ele>2148</ele>
        <time>2022-08-13T12:54:53Z</time>
      </trkpt>
      <trkpt lat="42.63809" lon="1.77073">
        <ele>2148</ele>
        <time>2022-08-13T12:55:15Z</time>
      </trkpt>
      <trkpt lat="42.63808" lon="1.77043">
        <ele>2148</ele>
        <time>2022-08-13T12:56:02Z</time>
      </trkpt>
      <trkpt lat="42.63796" lon="1.77032">
        <ele>2148</ele>
        <time>2022-08-13T12:56:25Z</time>
      </trkpt>
      <trkpt lat="42.63785" lon="1.77014">
        <ele>2148</ele>
        <time>2022-08-13T12:56:48Z</time>
      </trkpt>
      <trkpt lat="42.6378" lon="1.76999">
        <ele>2148</ele>
        <time>2022-08-13T12:57:10Z</time>
      </trkpt>
      <trkpt lat="42.63777" lon="1.76981">
        <ele>2148</ele>
        <time>2022-08-13T12:57:33Z</time>
      </trkpt>
      <trkpt lat="42.63774" lon="1.76964">
        <ele>2148</ele>
        <time>2022-08-13T12:57:57Z</time>
      </trkpt>
      <trkpt lat="42.63768" lon="1.76951">
        <ele>2148</ele>
        <time>2022-08-13T12:58:20Z</time>
      </trkpt>
      <trkpt lat="42.63762" lon="1.76938">
        <ele>2148</ele>
        <time>2022-08-13T12:58:42Z</time>
      </trkpt>
      <trkpt lat="42.63753" lon="1.7691">
        <ele>2148</ele>
        <time>2022-08-13T12:59:28Z</time>
      </trkpt>
      <trkpt lat="42.63747" lon="1.76897">
        <ele>2148</ele>
        <time>2022-08-13T12:59:51Z</time>
      </trkpt>
      <trkpt lat="42.6374" lon="1.76882">
        <ele>2230</ele>
        <time>2022-08-13T13:00:16Z</time>
      </trkpt>
      <trkpt lat="42.63737" lon="1.76866">
        <ele>2230</ele>
        <time>2022-08-13T13:00:38Z</time>
      </trkpt>
      <trkpt lat="42.6373" lon="1.76844">
        <ele>2230</ele>
        <time>2022-08-13T13:01:24Z</time>
      </trkpt>
      <trkpt lat="42.63725" lon="1.76828">
        <ele>2230</ele>
        <time>2022-08-13T13:01:47Z</time>
      </trkpt>
      <trkpt lat="42.63717" lon="1.76814">
        <ele>2230</ele>
        <time>2022-08-13T13:02:10Z</time>
      </trkpt>
      <trkpt lat="42.63709" lon="1.76798">
        <ele>2230</ele>
        <time>2022-08-13T13:02:32Z</time>
      </trkpt>
      <trkpt lat="42.63703" lon="1.76782">
        <ele>2230</ele>
        <time>2022-08-13T13:02:55Z</time>
      </trkpt>
      <trkpt lat="42.63694" lon="1.76763">
        <ele>2230</ele>
        <time>2022-08-13T13:03:18Z</time>
      </trkpt>
      <trkpt lat="42.63688" lon="1.76748">
        <ele>2230</ele>
        <time>2022-08-13T13:03:41Z</time>
      </trkpt>
      <trkpt lat="42.63683" lon="1.76735">
        <ele>2230</ele>
        <time>2022-08-13T13:04:04Z</time>
      </trkpt>
      <trkpt lat="42.63674" lon="1.76719">
        <ele>2230</ele>
        <time>2022-08-13T13:04:50Z</time>
      </trkpt>
      <trkpt lat="42.63665" lon="1.76699">
        <ele>2230</ele>
        <time>2022-08-13T13:05:57Z</time>
      </trkpt>
      <trkpt lat="42.63672" lon="1.7669">
        <ele>2230</ele>
        <time>2022-08-13T13:06:19Z</time>
      </trkpt>
      <trkpt lat="42.63681" lon="1.76686">
        <ele>2230</ele>
        <time>2022-08-13T13:06:42Z</time>
      </trkpt>
      <trkpt lat="42.63695" lon="1.76683">
        <ele>2230</ele>
        <time>2022-08-13T13:07:04Z</time>
      </trkpt>
      <trkpt lat="42.63706" lon="1.76681">
        <ele>2230</ele>
        <time>2022-08-13T13:07:27Z</time>
      </trkpt>
      <trkpt lat="42.63721" lon="1.76684">
        <ele>2230</ele>
        <time>2022-08-13T13:07:51Z</time>
      </trkpt>
      <trkpt lat="42.63735" lon="1.76691">
        <ele>2230</ele>
        <time>2022-08-13T13:08:14Z</time>
      </trkpt>
      <trkpt lat="42.63749" lon="1.76702">
        <ele>2230</ele>
        <time>2022-08-13T13:08:37Z</time>
      </trkpt>
      <trkpt lat="42.63762" lon="1.76714">
        <ele>2230</ele>
        <time>2022-08-13T13:09:01Z</time>
      </trkpt>
      <trkpt lat="42.63771" lon="1.76722">
        <ele>2230</ele>
        <time>2022-08-13T13:09:24Z</time>
      </trkpt>
      <trkpt lat="42.63787" lon="1.76732">
        <ele>2230</ele>
        <time>2022-08-13T13:09:47Z</time>
      </trkpt>
      <trkpt lat="42.63805" lon="1.76739">
        <ele>2230</ele>
        <time>2022-08-13T13:10:10Z</time>
      </trkpt>
      <trkpt lat="42.63822" lon="1.76742">
        <ele>2230</ele>
        <time>2022-08-13T13:10:32Z</time>
      </trkpt>
      <trkpt lat="42.63842" lon="1.7675">
        <ele>2230</ele>
        <time>2022-08-13T13:10:58Z</time>
      </trkpt>
      <trkpt lat="42.63861" lon="1.76751">
        <ele>2230</ele>
        <time>2022-08-13T13:11:20Z</time>
      </trkpt>
      <trkpt lat="42.63884" lon="1.76756">
        <ele>2230</ele>
        <time>2022-08-13T13:11:43Z</time>
      </trkpt>
      <trkpt lat="42.63887" lon="1.76742">
        <ele>2230</ele>
        <time>2022-08-13T13:12:52Z</time>
      </trkpt>
      <trkpt lat="42.63862" lon="1.76733">
        <ele>2230</ele>
        <time>2022-08-13T13:16:25Z</time>
      </trkpt>
      <trkpt lat="42.63844" lon="1.7672">
        <ele>2230</ele>
        <time>2022-08-13T13:16:48Z</time>
      </trkpt>
      <trkpt lat="42.63829" lon="1.767">
        <ele>2230</ele>
        <time>2022-08-13T13:17:11Z</time>
      </trkpt>
      <trkpt lat="42.63816" lon="1.76674">
        <ele>2230</ele>
        <time>2022-08-13T13:17:33Z</time>
      </trkpt>
      <trkpt lat="42.63804" lon="1.76649">
        <ele>2230</ele>
        <time>2022-08-13T13:17:57Z</time>
      </trkpt>
      <trkpt lat="42.63795" lon="1.76628">
        <ele>2230</ele>
        <time>2022-08-13T13:18:19Z</time>
      </trkpt>
      <trkpt lat="42.63795" lon="1.766">
        <ele>2230</ele>
        <time>2022-08-13T13:18:41Z</time>
      </trkpt>
      <trkpt lat="42.63796" lon="1.76582">
        <ele>2349</ele>
        <time>2022-08-13T13:19:06Z</time>
      </trkpt>
      <trkpt lat="42.63785" lon="1.76573">
        <ele>2349</ele>
        <time>2022-08-13T13:19:31Z</time>
      </trkpt>
      <trkpt lat="42.63768" lon="1.7657">
        <ele>2349</ele>
        <time>2022-08-13T13:19:53Z</time>
      </trkpt>
      <trkpt lat="42.63755" lon="1.76561">
        <ele>2349</ele>
        <time>2022-08-13T13:20:17Z</time>
      </trkpt>
      <trkpt lat="42.63763" lon="1.76541">
        <ele>2349</ele>
        <time>2022-08-13T13:20:41Z</time>
      </trkpt>
      <trkpt lat="42.63779" lon="1.76524">
        <ele>2349</ele>
        <time>2022-08-13T13:21:04Z</time>
      </trkpt>
      <trkpt lat="42.63795" lon="1.7654">
        <ele>2349</ele>
        <time>2022-08-13T13:21:28Z</time>
      </trkpt>
      <trkpt lat="42.638" lon="1.76525">
        <ele>2349</ele>
        <time>2022-08-13T13:21:50Z</time>
      </trkpt>
      <trkpt lat="42.63806" lon="1.76512">
        <ele>2320</ele>
        <time>2022-08-13T13:22:16Z</time>
      </trkpt>
      <trkpt lat="42.63807" lon="1.76487">
        <ele>2320</ele>
        <time>2022-08-13T13:23:02Z</time>
      </trkpt>
      <trkpt lat="42.63822" lon="1.76486">
        <ele>2320</ele>
        <time>2022-08-13T13:23:25Z</time>
      </trkpt>
      <trkpt lat="42.63806" lon="1.76459">
        <ele>2320</ele>
        <time>2022-08-13T13:23:47Z</time>
      </trkpt>
      <trkpt lat="42.63781" lon="1.76442">
        <ele>2320</ele>
        <time>2022-08-13T13:24:11Z</time>
      </trkpt>
      <trkpt lat="42.63758" lon="1.7643">
        <ele>2320</ele>
        <time>2022-08-13T13:24:37Z</time>
      </trkpt>
      <trkpt lat="42.63758" lon="1.76418">
        <ele>2320</ele>
        <time>2022-08-13T13:25:03Z</time>
      </trkpt>
      <trkpt lat="42.63761" lon="1.76406">
        <ele>2320</ele>
        <time>2022-08-13T13:27:08Z</time>
      </trkpt>
      <trkpt lat="42.63751" lon="1.76395">
        <ele>2320</ele>
        <time>2022-08-13T13:27:30Z</time>
      </trkpt>
      <trkpt lat="42.63751" lon="1.76377">
        <ele>2320</ele>
        <time>2022-08-13T13:27:53Z</time>
      </trkpt>
      <trkpt lat="42.63743" lon="1.76362">
        <ele>2257</ele>
        <time>2022-08-13T13:28:16Z</time>
      </trkpt>
      <trkpt lat="42.63726" lon="1.76337">
        <ele>2257</ele>
        <time>2022-08-13T13:28:39Z</time>
      </trkpt>
      <trkpt lat="42.63721" lon="1.76313">
        <ele>2257</ele>
        <time>2022-08-13T13:29:02Z</time>
      </trkpt>
      <trkpt lat="42.63708" lon="1.76304">
        <ele>2257</ele>
        <time>2022-08-13T13:29:25Z</time>
      </trkpt>
      <trkpt lat="42.63691" lon="1.76324">
        <ele>2257</ele>
        <time>2022-08-13T13:29:48Z</time>
      </trkpt>
      <trkpt lat="42.63665" lon="1.76325">
        <ele>2257</ele>
        <time>2022-08-13T13:30:12Z</time>
      </trkpt>
      <trkpt lat="42.6365" lon="1.76311">
        <ele>2257</ele>
        <time>2022-08-13T13:30:35Z</time>
      </trkpt>
      <trkpt lat="42.63633" lon="1.76304">
        <ele>2257</ele>
        <time>2022-08-13T13:30:58Z</time>
      </trkpt>
      <trkpt lat="42.63632" lon="1.76284">
        <ele>2257</ele>
        <time>2022-08-13T13:31:42Z</time>
      </trkpt>
      <trkpt lat="42.63626" lon="1.76256">
        <ele>2257</ele>
        <time>2022-08-13T13:32:25Z</time>
      </trkpt>
      <trkpt lat="42.63616" lon="1.76239">
        <ele>2257</ele>
        <time>2022-08-13T13:32:48Z</time>
      </trkpt>
      <trkpt lat="42.63605" lon="1.76234">
        <ele>2257</ele>
        <time>2022-08-13T13:33:10Z</time>
      </trkpt>
      <trkpt lat="42.6359" lon="1.76221">
        <ele>2257</ele>
        <time>2022-08-13T13:33:32Z</time>
      </trkpt>
      <trkpt lat="42.63588" lon="1.76208">
        <ele>2257</ele>
        <time>2022-08-13T13:35:35Z</time>
      </trkpt>
      <trkpt lat="42.63577" lon="1.76208">
        <ele>2257</ele>
        <time>2022-08-13T13:38:20Z</time>
      </trkpt>
      <trkpt lat="42.63567" lon="1.76199">
        <ele>2257</ele>
        <time>2022-08-13T13:38:43Z</time>
      </trkpt>
      <trkpt lat="42.63559" lon="1.76187">
        <ele>2257</ele>
        <time>2022-08-13T13:39:29Z</time>
      </trkpt>
      <trkpt lat="42.6355" lon="1.76177">
        <ele>2208</ele>
        <time>2022-08-13T13:40:16Z</time>
      </trkpt>
      <trkpt lat="42.63539" lon="1.76151">
        <ele>2208</ele>
        <time>2022-08-13T13:40:39Z</time>
      </trkpt>
      <trkpt lat="42.63522" lon="1.7613">
        <ele>2208</ele>
        <time>2022-08-13T13:41:02Z</time>
      </trkpt>
      <trkpt lat="42.63508" lon="1.76104">
        <ele>2208</ele>
        <time>2022-08-13T13:41:25Z</time>
      </trkpt>
      <trkpt lat="42.63493" lon="1.76089">
        <ele>2208</ele>
        <time>2022-08-13T13:41:51Z</time>
      </trkpt>
      <trkpt lat="42.63476" lon="1.76074">
        <ele>2208</ele>
        <time>2022-08-13T13:42:18Z</time>
      </trkpt>
      <trkpt lat="42.63469" lon="1.76066">
        <ele>2208</ele>
        <time>2022-08-13T13:42:41Z</time>
      </trkpt>
      <trkpt lat="42.63459" lon="1.76047">
        <ele>2208</ele>
        <time>2022-08-13T13:43:07Z</time>
      </trkpt>
      <trkpt lat="42.63454" lon="1.76028">
        <ele>2208</ele>
        <time>2022-08-13T13:43:30Z</time>
      </trkpt>
      <trkpt lat="42.63449" lon="1.76005">
        <ele>2208</ele>
        <time>2022-08-13T13:43:57Z</time>
      </trkpt>
      <trkpt lat="42.63444" lon="1.7599">
        <ele>2208</ele>
        <time>2022-08-13T13:44:20Z</time>
      </trkpt>
      <trkpt lat="42.6344" lon="1.75974">
        <ele>2208</ele>
        <time>2022-08-13T13:44:42Z</time>
      </trkpt>
      <trkpt lat="42.63428" lon="1.7595">
        <ele>2208</ele>
        <time>2022-08-13T13:45:07Z</time>
      </trkpt>
      <trkpt lat="42.63421" lon="1.75924">
        <ele>2208</ele>
        <time>2022-08-13T13:45:31Z</time>
      </trkpt>
      <trkpt lat="42.63415" lon="1.75897">
        <ele>2208</ele>
        <time>2022-08-13T13:45:53Z</time>
      </trkpt>
      <trkpt lat="42.63416" lon="1.75881">
        <ele>2208</ele>
        <time>2022-08-13T13:46:15Z</time>
      </trkpt>
      <trkpt lat="42.63412" lon="1.75863">
        <ele>2208</ele>
        <time>2022-08-13T13:46:41Z</time>
      </trkpt>
      <trkpt lat="42.63419" lon="1.75881">
        <ele>2208</ele>
        <time>2022-08-13T13:48:09Z</time>
      </trkpt>
      <trkpt lat="42.63428" lon="1.75887">
        <ele>2208</ele>
        <time>2022-08-13T13:48:31Z</time>
      </trkpt>
      <trkpt lat="42.63445" lon="1.75893">
        <ele>2208</ele>
        <time>2022-08-13T13:48:57Z</time>
      </trkpt>
      <trkpt lat="42.63455" lon="1.75902">
        <ele>2208</ele>
        <time>2022-08-13T13:49:40Z</time>
      </trkpt>
      <trkpt lat="42.63466" lon="1.75886">
        <ele>2208</ele>
        <time>2022-08-13T13:50:29Z</time>
      </trkpt>
      <trkpt lat="42.63474" lon="1.75873">
        <ele>2208</ele>
        <time>2022-08-13T13:50:52Z</time>
      </trkpt>
      <trkpt lat="42.63472" lon="1.75855">
        <ele>2208</ele>
        <time>2022-08-13T13:51:15Z</time>
      </trkpt>
      <trkpt lat="42.6347" lon="1.7584">
        <ele>2208</ele>
        <time>2022-08-13T13:51:38Z</time>
      </trkpt>
      <trkpt lat="42.6347" lon="1.75825">
        <ele>2208</ele>
        <time>2022-08-13T13:52:01Z</time>
      </trkpt>
      <trkpt lat="42.63483" lon="1.75803">
        <ele>2208</ele>
        <time>2022-08-13T13:52:47Z</time>
      </trkpt>
      <trkpt lat="42.63485" lon="1.75791">
        <ele>2208</ele>
        <time>2022-08-13T13:53:11Z</time>
      </trkpt>
      <trkpt lat="42.63482" lon="1.75779">
        <ele>2208</ele>
        <time>2022-08-13T13:53:33Z</time>
      </trkpt>
      <trkpt lat="42.63475" lon="1.75763">
        <ele>2208</ele>
        <time>2022-08-13T13:53:55Z</time>
      </trkpt>
      <trkpt lat="42.63472" lon="1.75733">
        <ele>2208</ele>
        <time>2022-08-13T13:54:41Z</time>
      </trkpt>
      <trkpt lat="42.63473" lon="1.75715">
        <ele>2208</ele>
        <time>2022-08-13T13:55:03Z</time>
      </trkpt>
      <trkpt lat="42.6347" lon="1.75698">
        <ele>2208</ele>
        <time>2022-08-13T13:55:25Z</time>
      </trkpt>
      <trkpt lat="42.63463" lon="1.75682">
        <ele>2208</ele>
        <time>2022-08-13T13:56:10Z</time>
      </trkpt>
      <trkpt lat="42.63465" lon="1.75652">
        <ele>2208</ele>
        <time>2022-08-13T13:58:57Z</time>
      </trkpt>
      <trkpt lat="42.63453" lon="1.75628">
        <ele>2208</ele>
        <time>2022-08-13T13:59:42Z</time>
      </trkpt>
      <trkpt lat="42.63453" lon="1.75599">
        <ele>2208</ele>
        <time>2022-08-13T14:00:05Z</time>
      </trkpt>
      <trkpt lat="42.63458" lon="1.75589">
        <ele>2208</ele>
        <time>2022-08-13T14:00:31Z</time>
      </trkpt>
      <trkpt lat="42.63467" lon="1.75568">
        <ele>2208</ele>
        <time>2022-08-13T14:00:55Z</time>
      </trkpt>
      <trkpt lat="42.63478" lon="1.75552">
        <ele>2208</ele>
        <time>2022-08-13T14:01:18Z</time>
      </trkpt>
      <trkpt lat="42.63494" lon="1.75524">
        <ele>2208</ele>
        <time>2022-08-13T14:02:02Z</time>
      </trkpt>
      <trkpt lat="42.63511" lon="1.75508">
        <ele>2134</ele>
        <time>2022-08-13T14:02:26Z</time>
      </trkpt>
      <trkpt lat="42.63524" lon="1.75497">
        <ele>2134</ele>
        <time>2022-08-13T14:02:49Z</time>
      </trkpt>
      <trkpt lat="42.63545" lon="1.75482">
        <ele>2134</ele>
        <time>2022-08-13T14:03:11Z</time>
      </trkpt>
      <trkpt lat="42.63563" lon="1.75473">
        <ele>2134</ele>
        <time>2022-08-13T14:03:34Z</time>
      </trkpt>
      <trkpt lat="42.63576" lon="1.75454">
        <ele>2134</ele>
        <time>2022-08-13T14:03:57Z</time>
      </trkpt>
      <trkpt lat="42.63592" lon="1.75454">
        <ele>2134</ele>
        <time>2022-08-13T14:04:20Z</time>
      </trkpt>
      <trkpt lat="42.63598" lon="1.7542">
        <ele>2134</ele>
        <time>2022-08-13T14:05:06Z</time>
      </trkpt>
      <trkpt lat="42.63602" lon="1.75394">
        <ele>2134</ele>
        <time>2022-08-13T14:05:29Z</time>
      </trkpt>
      <trkpt lat="42.63608" lon="1.75375">
        <ele>2134</ele>
        <time>2022-08-13T14:05:51Z</time>
      </trkpt>
      <trkpt lat="42.63615" lon="1.75363">
        <ele>2146</ele>
        <time>2022-08-13T14:06:16Z</time>
      </trkpt>
      <trkpt lat="42.63625" lon="1.75362">
        <ele>2146</ele>
        <time>2022-08-13T14:06:40Z</time>
      </trkpt>
      <trkpt lat="42.63636" lon="1.75348">
        <ele>2146</ele>
        <time>2022-08-13T14:07:02Z</time>
      </trkpt>
      <trkpt lat="42.63647" lon="1.75324">
        <ele>2146</ele>
        <time>2022-08-13T14:07:25Z</time>
      </trkpt>
      <trkpt lat="42.63661" lon="1.75308">
        <ele>2146</ele>
        <time>2022-08-13T14:07:48Z</time>
      </trkpt>
      <trkpt lat="42.63672" lon="1.75297">
        <ele>2146</ele>
        <time>2022-08-13T14:08:11Z</time>
      </trkpt>
      <trkpt lat="42.63683" lon="1.75278">
        <ele>2146</ele>
        <time>2022-08-13T14:08:37Z</time>
      </trkpt>
      <trkpt lat="42.63694" lon="1.75256">
        <ele>2146</ele>
        <time>2022-08-13T14:09:00Z</time>
      </trkpt>
      <trkpt lat="42.63709" lon="1.7524">
        <ele>2146</ele>
        <time>2022-08-13T14:09:22Z</time>
      </trkpt>
      <trkpt lat="42.63722" lon="1.75224">
        <ele>2146</ele>
        <time>2022-08-13T14:09:45Z</time>
      </trkpt>
      <trkpt lat="42.63714" lon="1.75238">
        <ele>2146</ele>
        <time>2022-08-13T14:14:37Z</time>
      </trkpt>
      <trkpt lat="42.63726" lon="1.75244">
        <ele>2146</ele>
        <time>2022-08-13T14:15:01Z</time>
      </trkpt>
      <trkpt lat="42.63748" lon="1.75237">
        <ele>2146</ele>
        <time>2022-08-13T14:15:25Z</time>
      </trkpt>
      <trkpt lat="42.63768" lon="1.75233">
        <ele>2146</ele>
        <time>2022-08-13T14:15:48Z</time>
      </trkpt>
      <trkpt lat="42.63778" lon="1.75234">
        <ele>2146</ele>
        <time>2022-08-13T14:16:10Z</time>
      </trkpt>
      <trkpt lat="42.638" lon="1.75234">
        <ele>2146</ele>
        <time>2022-08-13T14:16:33Z</time>
      </trkpt>
      <trkpt lat="42.63809" lon="1.75217">
        <ele>2148</ele>
        <time>2022-08-13T14:16:56Z</time>
      </trkpt>
      <trkpt lat="42.63805" lon="1.75195">
        <ele>2148</ele>
        <time>2022-08-13T14:17:18Z</time>
      </trkpt>
      <trkpt lat="42.63819" lon="1.75182">
        <ele>2148</ele>
        <time>2022-08-13T14:17:41Z</time>
      </trkpt>
      <trkpt lat="42.63818" lon="1.75165">
        <ele>2148</ele>
        <time>2022-08-13T14:18:07Z</time>
      </trkpt>
      <trkpt lat="42.63812" lon="1.75153">
        <ele>2148</ele>
        <time>2022-08-13T14:18:28Z</time>
      </trkpt>
      <trkpt lat="42.63804" lon="1.7513">
        <ele>2148</ele>
        <time>2022-08-13T14:18:51Z</time>
      </trkpt>
      <trkpt lat="42.63794" lon="1.75121">
        <ele>2148</ele>
        <time>2022-08-13T14:19:35Z</time>
      </trkpt>
      <trkpt lat="42.63788" lon="1.75112">
        <ele>2148</ele>
        <time>2022-08-13T14:19:56Z</time>
      </trkpt>
      <trkpt lat="42.6378" lon="1.75102">
        <ele>2148</ele>
        <time>2022-08-13T14:20:18Z</time>
      </trkpt>
      <trkpt lat="42.63768" lon="1.75089">
        <ele>2148</ele>
        <time>2022-08-13T14:20:41Z</time>
      </trkpt>
      <trkpt lat="42.6377" lon="1.75073">
        <ele>2148</ele>
        <time>2022-08-13T14:21:07Z</time>
      </trkpt>
      <trkpt lat="42.63779" lon="1.75052">
        <ele>2148</ele>
        <time>2022-08-13T14:21:52Z</time>
      </trkpt>
      <trkpt lat="42.63785" lon="1.75029">
        <ele>2148</ele>
        <time>2022-08-13T14:22:15Z</time>
      </trkpt>
      <trkpt lat="42.63793" lon="1.75009">
        <ele>2148</ele>
        <time>2022-08-13T14:22:38Z</time>
      </trkpt>
      <trkpt lat="42.63808" lon="1.75007">
        <ele>2148</ele>
        <time>2022-08-13T14:23:00Z</time>
      </trkpt>
      <trkpt lat="42.63821" lon="1.74986">
        <ele>2148</ele>
        <time>2022-08-13T14:23:22Z</time>
      </trkpt>
      <trkpt lat="42.63828" lon="1.74954">
        <ele>2148</ele>
        <time>2022-08-13T14:23:45Z</time>
      </trkpt>
      <trkpt lat="42.63837" lon="1.74933">
        <ele>2148</ele>
        <time>2022-08-13T14:24:11Z</time>
      </trkpt>
      <trkpt lat="42.63838" lon="1.74908">
        <ele>2148</ele>
        <time>2022-08-13T14:24:52Z</time>
      </trkpt>
      <trkpt lat="42.63832" lon="1.74883">
        <ele>2148</ele>
        <time>2022-08-13T14:25:15Z</time>
      </trkpt>
      <trkpt lat="42.63833" lon="1.74851">
        <ele>2148</ele>
        <time>2022-08-13T14:25:42Z</time>
      </trkpt>
      <trkpt lat="42.63838" lon="1.74841">
        <ele>2148</ele>
        <time>2022-08-13T14:26:27Z</time>
      </trkpt>
      <trkpt lat="42.63822" lon="1.74848">
        <ele>2148</ele>
        <time>2022-08-13T14:27:32Z</time>
      </trkpt>
      <trkpt lat="42.63811" lon="1.74839">
        <ele>2148</ele>
        <time>2022-08-13T14:27:57Z</time>
      </trkpt>
      <trkpt lat="42.63802" lon="1.74829">
        <ele>2148</ele>
        <time>2022-08-13T14:28:21Z</time>
      </trkpt>
      <trkpt lat="42.63793" lon="1.74817">
        <ele>2148</ele>
        <time>2022-08-13T14:28:44Z</time>
      </trkpt>
      <trkpt lat="42.63792" lon="1.74798">
        <ele>2148</ele>
        <time>2022-08-13T14:29:07Z</time>
      </trkpt>
      <trkpt lat="42.63791" lon="1.74778">
        <ele>2148</ele>
        <time>2022-08-13T14:29:30Z</time>
      </trkpt>
      <trkpt lat="42.63781" lon="1.74749">
        <ele>2148</ele>
        <time>2022-08-13T14:29:53Z</time>
      </trkpt>
      <trkpt lat="42.63784" lon="1.74731">
        <ele>2190</ele>
        <time>2022-08-13T14:30:16Z</time>
      </trkpt>
      <trkpt lat="42.63783" lon="1.74705">
        <ele>2190</ele>
        <time>2022-08-13T14:30:42Z</time>
      </trkpt>
      <trkpt lat="42.63778" lon="1.74691">
        <ele>2190</ele>
        <time>2022-08-13T14:31:05Z</time>
      </trkpt>
      <trkpt lat="42.63777" lon="1.74676">
        <ele>2190</ele>
        <time>2022-08-13T14:31:51Z</time>
      </trkpt>
      <trkpt lat="42.63782" lon="1.7465">
        <ele>2190</ele>
        <time>2022-08-13T14:32:14Z</time>
      </trkpt>
      <trkpt lat="42.63785" lon="1.74619">
        <ele>2190</ele>
        <time>2022-08-13T14:32:37Z</time>
      </trkpt>
      <trkpt lat="42.63792" lon="1.74592">
        <ele>2190</ele>
        <time>2022-08-13T14:33:00Z</time>
      </trkpt>
      <trkpt lat="42.63794" lon="1.74576">
        <ele>2190</ele>
        <time>2022-08-13T14:33:22Z</time>
      </trkpt>
      <trkpt lat="42.63791" lon="1.74553">
        <ele>2190</ele>
        <time>2022-08-13T14:33:47Z</time>
      </trkpt>
      <trkpt lat="42.63787" lon="1.74526">
        <ele>2190</ele>
        <time>2022-08-13T14:34:10Z</time>
      </trkpt>
      <trkpt lat="42.63787" lon="1.74502">
        <ele>2190</ele>
        <time>2022-08-13T14:34:32Z</time>
      </trkpt>
      <trkpt lat="42.63784" lon="1.74484">
        <ele>2190</ele>
        <time>2022-08-13T14:34:55Z</time>
      </trkpt>
      <trkpt lat="42.63772" lon="1.74465">
        <ele>2190</ele>
        <time>2022-08-13T14:35:18Z</time>
      </trkpt>
      <trkpt lat="42.6377" lon="1.74452">
        <ele>2190</ele>
        <time>2022-08-13T14:35:40Z</time>
      </trkpt>
      <trkpt lat="42.63783" lon="1.74428">
        <ele>2190</ele>
        <time>2022-08-13T14:37:07Z</time>
      </trkpt>
      <trkpt lat="42.63782" lon="1.74398">
        <ele>2190</ele>
        <time>2022-08-13T14:37:31Z</time>
      </trkpt>
      <trkpt lat="42.63776" lon="1.74375">
        <ele>2190</ele>
        <time>2022-08-13T14:37:54Z</time>
      </trkpt>
      <trkpt lat="42.63778" lon="1.74353">
        <ele>2190</ele>
        <time>2022-08-13T14:38:17Z</time>
      </trkpt>
      <trkpt lat="42.63777" lon="1.74331">
        <ele>2190</ele>
        <time>2022-08-13T14:38:40Z</time>
      </trkpt>
      <trkpt lat="42.63774" lon="1.74314">
        <ele>2190</ele>
        <time>2022-08-13T14:39:03Z</time>
      </trkpt>
      <trkpt lat="42.63769" lon="1.74293">
        <ele>2190</ele>
        <time>2022-08-13T14:39:25Z</time>
      </trkpt>
      <trkpt lat="42.63769" lon="1.74268">
        <ele>2190</ele>
        <time>2022-08-13T14:39:49Z</time>
      </trkpt>
      <trkpt lat="42.63762" lon="1.74246">
        <ele>2190</ele>
        <time>2022-08-13T14:40:53Z</time>
      </trkpt>
      <trkpt lat="42.63762" lon="1.74228">
        <ele>2222</ele>
        <time>2022-08-13T14:41:16Z</time>
      </trkpt>
      <trkpt lat="42.63759" lon="1.74215">
        <ele>2222</ele>
        <time>2022-08-13T14:41:38Z</time>
      </trkpt>
      <trkpt lat="42.63749" lon="1.742">
        <ele>2222</ele>
        <time>2022-08-13T14:42:01Z</time>
      </trkpt>
      <trkpt lat="42.63746" lon="1.74187">
        <ele>2222</ele>
        <time>2022-08-13T14:42:23Z</time>
      </trkpt>
      <trkpt lat="42.6374" lon="1.74167">
        <ele>2222</ele>
        <time>2022-08-13T14:42:47Z</time>
      </trkpt>
      <trkpt lat="42.63732" lon="1.74148">
        <ele>2222</ele>
        <time>2022-08-13T14:43:56Z</time>
      </trkpt>
      <trkpt lat="42.63725" lon="1.74132">
        <ele>2222</ele>
        <time>2022-08-13T14:44:20Z</time>
      </trkpt>
      <trkpt lat="42.63712" lon="1.74111">
        <ele>2222</ele>
        <time>2022-08-13T14:44:43Z</time>
      </trkpt>
      <trkpt lat="42.63697" lon="1.74094">
        <ele>2222</ele>
        <time>2022-08-13T14:45:06Z</time>
      </trkpt>
      <trkpt lat="42.63684" lon="1.74078">
        <ele>2222</ele>
        <time>2022-08-13T14:45:29Z</time>
      </trkpt>
      <trkpt lat="42.63681" lon="1.74062">
        <ele>2222</ele>
        <time>2022-08-13T14:45:51Z</time>
      </trkpt>
      <trkpt lat="42.63692" lon="1.74038">
        <ele>2222</ele>
        <time>2022-08-13T14:48:18Z</time>
      </trkpt>
      <trkpt lat="42.63705" lon="1.74015">
        <ele>2222</ele>
        <time>2022-08-13T14:48:41Z</time>
      </trkpt>
      <trkpt lat="42.63718" lon="1.73988">
        <ele>2222</ele>
        <time>2022-08-13T14:49:07Z</time>
      </trkpt>
      <trkpt lat="42.63724" lon="1.73967">
        <ele>2222</ele>
        <time>2022-08-13T14:49:30Z</time>
      </trkpt>
      <trkpt lat="42.63736" lon="1.73943">
        <ele>2222</ele>
        <time>2022-08-13T14:49:53Z</time>
      </trkpt>
      <trkpt lat="42.63741" lon="1.73921">
        <ele>2222</ele>
        <time>2022-08-13T14:50:15Z</time>
      </trkpt>
      <trkpt lat="42.6375" lon="1.73895">
        <ele>2222</ele>
        <time>2022-08-13T14:50:38Z</time>
      </trkpt>
      <trkpt lat="42.63755" lon="1.73867">
        <ele>2222</ele>
        <time>2022-08-13T14:51:01Z</time>
      </trkpt>
      <trkpt lat="42.63758" lon="1.73855">
        <ele>2222</ele>
        <time>2022-08-13T14:51:23Z</time>
      </trkpt>
      <trkpt lat="42.63765" lon="1.73832">
        <ele>2232</ele>
        <time>2022-08-13T14:51:46Z</time>
      </trkpt>
      <trkpt lat="42.63765" lon="1.73813">
        <ele>2232</ele>
        <time>2022-08-13T14:52:09Z</time>
      </trkpt>
      <trkpt lat="42.63769" lon="1.73788">
        <ele>2232</ele>
        <time>2022-08-13T14:52:33Z</time>
      </trkpt>
      <trkpt lat="42.63777" lon="1.73761">
        <ele>2232</ele>
        <time>2022-08-13T14:52:57Z</time>
      </trkpt>
      <trkpt lat="42.63785" lon="1.73729">
        <ele>2232</ele>
        <time>2022-08-13T14:53:22Z</time>
      </trkpt>
      <trkpt lat="42.63788" lon="1.73715">
        <ele>2217</ele>
        <time>2022-08-13T14:54:06Z</time>
      </trkpt>
      <trkpt lat="42.63787" lon="1.73694">
        <ele>2217</ele>
        <time>2022-08-13T14:54:51Z</time>
      </trkpt>
      <trkpt lat="42.63795" lon="1.73669">
        <ele>2217</ele>
        <time>2022-08-13T14:55:14Z</time>
      </trkpt>
      <trkpt lat="42.63797" lon="1.7364">
        <ele>2210</ele>
        <time>2022-08-13T14:55:36Z</time>
      </trkpt>
      <trkpt lat="42.63799" lon="1.73615">
        <ele>2210</ele>
        <time>2022-08-13T14:56:00Z</time>
      </trkpt>
      <trkpt lat="42.63795" lon="1.73586">
        <ele>2210</ele>
        <time>2022-08-13T14:56:23Z</time>
      </trkpt>
      <trkpt lat="42.63795" lon="1.73557">
        <ele>2210</ele>
        <time>2022-08-13T14:56:45Z</time>
      </trkpt>
      <trkpt lat="42.63796" lon="1.73525">
        <ele>2210</ele>
        <time>2022-08-13T14:57:09Z</time>
      </trkpt>
      <trkpt lat="42.63796" lon="1.73499">
        <ele>2210</ele>
        <time>2022-08-13T14:57:31Z</time>
      </trkpt>
      <trkpt lat="42.63794" lon="1.73473">
        <ele>2210</ele>
        <time>2022-08-13T14:57:54Z</time>
      </trkpt>
      <trkpt lat="42.63795" lon="1.73436">
        <ele>2210</ele>
        <time>2022-08-13T14:58:18Z</time>
      </trkpt>
      <trkpt lat="42.638" lon="1.7341">
        <ele>2210</ele>
        <time>2022-08-13T14:58:40Z</time>
      </trkpt>
      <trkpt lat="42.63799" lon="1.73384">
        <ele>2210</ele>
        <time>2022-08-13T14:59:02Z</time>
      </trkpt>
      <trkpt lat="42.63803" lon="1.7336">
        <ele>2210</ele>
        <time>2022-08-13T14:59:25Z</time>
      </trkpt>
      <trkpt lat="42.63804" lon="1.73334">
        <ele>2210</ele>
        <time>2022-08-13T14:59:48Z</time>
      </trkpt>
      <trkpt lat="42.63805" lon="1.73305">
        <ele>2210</ele>
        <time>2022-08-13T15:00:12Z</time>
      </trkpt>
      <trkpt lat="42.63807" lon="1.73278">
        <ele>2210</ele>
        <time>2022-08-13T15:00:35Z</time>
      </trkpt>
      <trkpt lat="42.63807" lon="1.73253">
        <ele>2210</ele>
        <time>2022-08-13T15:00:57Z</time>
      </trkpt>
      <trkpt lat="42.63805" lon="1.73226">
        <ele>2210</ele>
        <time>2022-08-13T15:01:20Z</time>
      </trkpt>
      <trkpt lat="42.63801" lon="1.73196">
        <ele>2210</ele>
        <time>2022-08-13T15:01:43Z</time>
      </trkpt>
      <trkpt lat="42.63802" lon="1.73171">
        <ele>2160</ele>
        <time>2022-08-13T15:02:06Z</time>
      </trkpt>
      <trkpt lat="42.63807" lon="1.7315">
        <ele>2160</ele>
        <time>2022-08-13T15:02:31Z</time>
      </trkpt>
      <trkpt lat="42.63806" lon="1.73127">
        <ele>2160</ele>
        <time>2022-08-13T15:02:53Z</time>
      </trkpt>
      <trkpt lat="42.63808" lon="1.73106">
        <ele>2158</ele>
        <time>2022-08-13T15:03:16Z</time>
      </trkpt>
      <trkpt lat="42.63799" lon="1.73101">
        <ele>2158</ele>
        <time>2022-08-13T15:03:41Z</time>
      </trkpt>
      <trkpt lat="42.63792" lon="1.73066">
        <ele>2155</ele>
        <time>2022-08-13T15:04:46Z</time>
      </trkpt>
      <trkpt lat="42.63789" lon="1.73027">
        <ele>2155</ele>
        <time>2022-08-13T15:05:12Z</time>
      </trkpt>
      <trkpt lat="42.63792" lon="1.72992">
        <ele>2155</ele>
        <time>2022-08-13T15:05:36Z</time>
      </trkpt>
      <trkpt lat="42.63786" lon="1.72956">
        <ele>2155</ele>
        <time>2022-08-13T15:05:59Z</time>
      </trkpt>
      <trkpt lat="42.63788" lon="1.72923">
        <ele>2155</ele>
        <time>2022-08-13T15:06:21Z</time>
      </trkpt>
      <trkpt lat="42.63781" lon="1.729">
        <ele>2155</ele>
        <time>2022-08-13T15:06:44Z</time>
      </trkpt>
      <trkpt lat="42.63772" lon="1.7287">
        <ele>2155</ele>
        <time>2022-08-13T15:07:07Z</time>
      </trkpt>
      <trkpt lat="42.63765" lon="1.72837">
        <ele>2155</ele>
        <time>2022-08-13T15:07:31Z</time>
      </trkpt>
      <trkpt lat="42.63768" lon="1.72808">
        <ele>2155</ele>
        <time>2022-08-13T15:07:55Z</time>
      </trkpt>
      <trkpt lat="42.63766" lon="1.72772">
        <ele>2155</ele>
        <time>2022-08-13T15:08:18Z</time>
      </trkpt>
      <trkpt lat="42.63767" lon="1.72741">
        <ele>2155</ele>
        <time>2022-08-13T15:08:41Z</time>
      </trkpt>
      <trkpt lat="42.63771" lon="1.72707">
        <ele>2155</ele>
        <time>2022-08-13T15:09:04Z</time>
      </trkpt>
      <trkpt lat="42.63781" lon="1.72676">
        <ele>2155</ele>
        <time>2022-08-13T15:09:27Z</time>
      </trkpt>
      <trkpt lat="42.63786" lon="1.72643">
        <ele>2155</ele>
        <time>2022-08-13T15:09:50Z</time>
      </trkpt>
      <trkpt lat="42.63792" lon="1.72608">
        <ele>2155</ele>
        <time>2022-08-13T15:10:12Z</time>
      </trkpt>
      <trkpt lat="42.638" lon="1.72583">
        <ele>2155</ele>
        <time>2022-08-13T15:10:35Z</time>
      </trkpt>
      <trkpt lat="42.63802" lon="1.72569">
        <ele>2120</ele>
        <time>2022-08-13T15:11:16Z</time>
      </trkpt>
      <trkpt lat="42.63753" lon="1.72583">
        <ele>2185.3</ele>
        <time>2022-08-14T07:17:08Z</time>
      </trkpt>
      <trkpt lat="42.63751" lon="1.72583">
        <ele>2185</ele>
        <time>2022-08-14T07:17:09Z</time>
      </trkpt>
      <trkpt lat="42.63742" lon="1.72578">
        <ele>2182.5</ele>
        <time>2022-08-14T07:17:18Z</time>
      </trkpt>
      <trkpt lat="42.63732" lon="1.72581">
        <ele>2181.3</ele>
        <time>2022-08-14T07:17:25Z</time>
      </trkpt>
      <trkpt lat="42.63722" lon="1.72584">
        <ele>2180.1</ele>
        <time>2022-08-14T07:17:41Z</time>
      </trkpt>
      <trkpt lat="42.63713" lon="1.72584">
        <ele>2178.5</ele>
        <time>2022-08-14T07:17:52Z</time>
      </trkpt>
      <trkpt lat="42.63703" lon="1.72583">
        <ele>2176.5</ele>
        <time>2022-08-14T07:17:59Z</time>
      </trkpt>
      <trkpt lat="42.63695" lon="1.72581">
        <ele>2174</ele>
        <time>2022-08-14T07:18:07Z</time>
      </trkpt>
      <trkpt lat="42.63685" lon="1.72582">
        <ele>2174</ele>
        <time>2022-08-14T07:18:15Z</time>
      </trkpt>
      <trkpt lat="42.63676" lon="1.72585">
        <ele>2174</ele>
        <time>2022-08-14T07:18:23Z</time>
      </trkpt>
      <trkpt lat="42.63667" lon="1.7259">
        <ele>2174</ele>
        <time>2022-08-14T07:18:33Z</time>
      </trkpt>
      <trkpt lat="42.63659" lon="1.72594">
        <ele>2174</ele>
        <time>2022-08-14T07:18:43Z</time>
      </trkpt>
      <trkpt lat="42.6365" lon="1.72599">
        <ele>2177</ele>
        <time>2022-08-14T07:18:57Z</time>
      </trkpt>
      <trkpt lat="42.63642" lon="1.72604">
        <ele>2177</ele>
        <time>2022-08-14T07:19:03Z</time>
      </trkpt>
      <trkpt lat="42.63632" lon="1.72605">
        <ele>2177</ele>
        <time>2022-08-14T07:19:12Z</time>
      </trkpt>
      <trkpt lat="42.6362" lon="1.72608">
        <ele>2177</ele>
        <time>2022-08-14T07:19:23Z</time>
      </trkpt>
      <trkpt lat="42.63614" lon="1.72618">
        <ele>2177</ele>
        <time>2022-08-14T07:19:32Z</time>
      </trkpt>
      <trkpt lat="42.63607" lon="1.72626">
        <ele>2177</ele>
        <time>2022-08-14T07:19:42Z</time>
      </trkpt>
      <trkpt lat="42.63601" lon="1.72637">
        <ele>2177</ele>
        <time>2022-08-14T07:19:50Z</time>
      </trkpt>
      <trkpt lat="42.63596" lon="1.72647">
        <ele>2177</ele>
        <time>2022-08-14T07:19:58Z</time>
      </trkpt>
      <trkpt lat="42.63589" lon="1.72656">
        <ele>2173</ele>
        <time>2022-08-14T07:20:07Z</time>
      </trkpt>
      <trkpt lat="42.63581" lon="1.72662">
        <ele>2173</ele>
        <time>2022-08-14T07:20:16Z</time>
      </trkpt>
      <trkpt lat="42.63572" lon="1.72666">
        <ele>2173</ele>
        <time>2022-08-14T07:20:26Z</time>
      </trkpt>
      <trkpt lat="42.63563" lon="1.72659">
        <ele>2173</ele>
        <time>2022-08-14T07:20:45Z</time>
      </trkpt>
      <trkpt lat="42.63559" lon="1.72648">
        <ele>2173</ele>
        <time>2022-08-14T07:21:02Z</time>
      </trkpt>
      <trkpt lat="42.63551" lon="1.72654">
        <ele>2161</ele>
        <time>2022-08-14T07:21:17Z</time>
      </trkpt>
      <trkpt lat="42.63543" lon="1.7266">
        <ele>2161</ele>
        <time>2022-08-14T07:21:31Z</time>
      </trkpt>
      <trkpt lat="42.63534" lon="1.72661">
        <ele>2161</ele>
        <time>2022-08-14T07:21:51Z</time>
      </trkpt>
      <trkpt lat="42.63525" lon="1.7266">
        <ele>2161</ele>
        <time>2022-08-14T07:22:12Z</time>
      </trkpt>
      <trkpt lat="42.63515" lon="1.72659">
        <ele>2156</ele>
        <time>2022-08-14T07:22:27Z</time>
      </trkpt>
      <trkpt lat="42.63506" lon="1.72657">
        <ele>2156</ele>
        <time>2022-08-14T07:22:36Z</time>
      </trkpt>
      <trkpt lat="42.63497" lon="1.72656">
        <ele>2156</ele>
        <time>2022-08-14T07:22:55Z</time>
      </trkpt>
      <trkpt lat="42.6349" lon="1.72664">
        <ele>2156</ele>
        <time>2022-08-14T07:23:20Z</time>
      </trkpt>
      <trkpt lat="42.63482" lon="1.72656">
        <ele>2156</ele>
        <time>2022-08-14T07:28:36Z</time>
      </trkpt>
      <trkpt lat="42.63472" lon="1.72657">
        <ele>2156</ele>
        <time>2022-08-14T07:28:48Z</time>
      </trkpt>
      <trkpt lat="42.63463" lon="1.72654">
        <ele>2156</ele>
        <time>2022-08-14T07:29:05Z</time>
      </trkpt>
      <trkpt lat="42.63453" lon="1.72654">
        <ele>2156</ele>
        <time>2022-08-14T07:29:16Z</time>
      </trkpt>
      <trkpt lat="42.63444" lon="1.7265">
        <ele>2156</ele>
        <time>2022-08-14T07:29:29Z</time>
      </trkpt>
      <trkpt lat="42.63449" lon="1.72639">
        <ele>2156</ele>
        <time>2022-08-14T07:29:38Z</time>
      </trkpt>
      <trkpt lat="42.63457" lon="1.72632">
        <ele>2156</ele>
        <time>2022-08-14T07:29:51Z</time>
      </trkpt>
      <trkpt lat="42.63448" lon="1.7263">
        <ele>2156</ele>
        <time>2022-08-14T07:30:09Z</time>
      </trkpt>
      <trkpt lat="42.63439" lon="1.72628">
        <ele>2156</ele>
        <time>2022-08-14T07:30:42Z</time>
      </trkpt>
      <trkpt lat="42.63428" lon="1.72625">
        <ele>2156</ele>
        <time>2022-08-14T07:30:51Z</time>
      </trkpt>
      <trkpt lat="42.63419" lon="1.72626">
        <ele>2156</ele>
        <time>2022-08-14T07:30:59Z</time>
      </trkpt>
      <trkpt lat="42.63409" lon="1.7263">
        <ele>2156</ele>
        <time>2022-08-14T07:31:04Z</time>
      </trkpt>
      <trkpt lat="42.63402" lon="1.72639">
        <ele>2156</ele>
        <time>2022-08-14T07:31:16Z</time>
      </trkpt>
      <trkpt lat="42.63394" lon="1.72645">
        <ele>2156</ele>
        <time>2022-08-14T07:31:30Z</time>
      </trkpt>
      <trkpt lat="42.63384" lon="1.72645">
        <ele>2116</ele>
        <time>2022-08-14T07:31:37Z</time>
      </trkpt>
      <trkpt lat="42.63374" lon="1.72644">
        <ele>2116</ele>
        <time>2022-08-14T07:31:46Z</time>
      </trkpt>
      <trkpt lat="42.63365" lon="1.72641">
        <ele>2116</ele>
        <time>2022-08-14T07:31:55Z</time>
      </trkpt>
      <trkpt lat="42.63356" lon="1.72644">
        <ele>2116</ele>
        <time>2022-08-14T07:32:05Z</time>
      </trkpt>
      <trkpt lat="42.63347" lon="1.7265">
        <ele>2116</ele>
        <time>2022-08-14T07:32:24Z</time>
      </trkpt>
      <trkpt lat="42.63337" lon="1.72651">
        <ele>2116</ele>
        <time>2022-08-14T07:32:41Z</time>
      </trkpt>
      <trkpt lat="42.63328" lon="1.72652">
        <ele>2116</ele>
        <time>2022-08-14T07:32:54Z</time>
      </trkpt>
      <trkpt lat="42.63318" lon="1.72653">
        <ele>2116</ele>
        <time>2022-08-14T07:33:35Z</time>
      </trkpt>
      <trkpt lat="42.63309" lon="1.72655">
        <ele>2126</ele>
        <time>2022-08-14T07:33:47Z</time>
      </trkpt>
      <trkpt lat="42.633" lon="1.7266">
        <ele>2126</ele>
        <time>2022-08-14T07:33:58Z</time>
      </trkpt>
      <trkpt lat="42.63291" lon="1.72664">
        <ele>2126</ele>
        <time>2022-08-14T07:34:18Z</time>
      </trkpt>
      <trkpt lat="42.63283" lon="1.7267">
        <ele>2126</ele>
        <time>2022-08-14T07:34:29Z</time>
      </trkpt>
      <trkpt lat="42.63274" lon="1.72672">
        <ele>2126</ele>
        <time>2022-08-14T07:34:39Z</time>
      </trkpt>
      <trkpt lat="42.63264" lon="1.7267">
        <ele>2126</ele>
        <time>2022-08-14T07:34:53Z</time>
      </trkpt>
      <trkpt lat="42.63255" lon="1.72669">
        <ele>2126</ele>
        <time>2022-08-14T07:35:06Z</time>
      </trkpt>
      <trkpt lat="42.63245" lon="1.72669">
        <ele>2126</ele>
        <time>2022-08-14T07:35:14Z</time>
      </trkpt>
      <trkpt lat="42.63235" lon="1.72669">
        <ele>2126</ele>
        <time>2022-08-14T07:35:22Z</time>
      </trkpt>
      <trkpt lat="42.63228" lon="1.72677">
        <ele>2126</ele>
        <time>2022-08-14T07:35:39Z</time>
      </trkpt>
      <trkpt lat="42.63219" lon="1.7268">
        <ele>2125</ele>
        <time>2022-08-14T07:35:47Z</time>
      </trkpt>
      <trkpt lat="42.63209" lon="1.72679">
        <ele>2125</ele>
        <time>2022-08-14T07:36:01Z</time>
      </trkpt>
      <trkpt lat="42.632" lon="1.72678">
        <ele>2125</ele>
        <time>2022-08-14T07:36:12Z</time>
      </trkpt>
      <trkpt lat="42.63191" lon="1.72683">
        <ele>2125</ele>
        <time>2022-08-14T07:36:21Z</time>
      </trkpt>
      <trkpt lat="42.63182" lon="1.72683">
        <ele>2125</ele>
        <time>2022-08-14T07:36:31Z</time>
      </trkpt>
      <trkpt lat="42.63172" lon="1.72684">
        <ele>2125</ele>
        <time>2022-08-14T07:36:40Z</time>
      </trkpt>
      <trkpt lat="42.63162" lon="1.72682">
        <ele>2125</ele>
        <time>2022-08-14T07:36:53Z</time>
      </trkpt>
      <trkpt lat="42.63153" lon="1.72682">
        <ele>2125</ele>
        <time>2022-08-14T07:37:08Z</time>
      </trkpt>
      <trkpt lat="42.63143" lon="1.72682">
        <ele>2125</ele>
        <time>2022-08-14T07:37:26Z</time>
      </trkpt>
      <trkpt lat="42.63134" lon="1.72678">
        <ele>2125</ele>
        <time>2022-08-14T07:37:35Z</time>
      </trkpt>
      <trkpt lat="42.63128" lon="1.72667">
        <ele>2117</ele>
        <time>2022-08-14T07:37:47Z</time>
      </trkpt>
      <trkpt lat="42.63119" lon="1.72667">
        <ele>2117</ele>
        <time>2022-08-14T07:38:19Z</time>
      </trkpt>
      <trkpt lat="42.6311" lon="1.72663">
        <ele>2117</ele>
        <time>2022-08-14T07:38:39Z</time>
      </trkpt>
      <trkpt lat="42.63102" lon="1.72656">
        <ele>2117</ele>
        <time>2022-08-14T07:38:48Z</time>
      </trkpt>
      <trkpt lat="42.63093" lon="1.7265">
        <ele>2117</ele>
        <time>2022-08-14T07:39:00Z</time>
      </trkpt>
      <trkpt lat="42.63091" lon="1.72638">
        <ele>2117</ele>
        <time>2022-08-14T07:39:29Z</time>
      </trkpt>
      <trkpt lat="42.63082" lon="1.72636">
        <ele>2114</ele>
        <time>2022-08-14T07:39:47Z</time>
      </trkpt>
      <trkpt lat="42.63076" lon="1.72626">
        <ele>2109</ele>
        <time>2022-08-14T07:40:07Z</time>
      </trkpt>
      <trkpt lat="42.63069" lon="1.72616">
        <ele>2109</ele>
        <time>2022-08-14T07:40:15Z</time>
      </trkpt>
      <trkpt lat="42.6306" lon="1.72614">
        <ele>2109</ele>
        <time>2022-08-14T07:40:25Z</time>
      </trkpt>
      <trkpt lat="42.63069" lon="1.72622">
        <ele>2109</ele>
        <time>2022-08-14T07:42:12Z</time>
      </trkpt>
      <trkpt lat="42.6306" lon="1.72617">
        <ele>2109</ele>
        <time>2022-08-14T07:42:24Z</time>
      </trkpt>
      <trkpt lat="42.63069" lon="1.72619">
        <ele>2109</ele>
        <time>2022-08-14T07:43:11Z</time>
      </trkpt>
      <trkpt lat="42.63078" lon="1.72624">
        <ele>2109</ele>
        <time>2022-08-14T07:43:34Z</time>
      </trkpt>
      <trkpt lat="42.63085" lon="1.72634">
        <ele>2109</ele>
        <time>2022-08-14T07:43:45Z</time>
      </trkpt>
      <trkpt lat="42.63092" lon="1.72643">
        <ele>2111</ele>
        <time>2022-08-14T07:44:17Z</time>
      </trkpt>
      <trkpt lat="42.63098" lon="1.72653">
        <ele>2111</ele>
        <time>2022-08-14T07:44:29Z</time>
      </trkpt>
      <trkpt lat="42.63106" lon="1.7266">
        <ele>2111</ele>
        <time>2022-08-14T07:44:40Z</time>
      </trkpt>
      <trkpt lat="42.63114" lon="1.72666">
        <ele>2111</ele>
        <time>2022-08-14T07:45:03Z</time>
      </trkpt>
      <trkpt lat="42.63123" lon="1.72663">
        <ele>2111</ele>
        <time>2022-08-14T07:45:25Z</time>
      </trkpt>
      <trkpt lat="42.63118" lon="1.72652">
        <ele>2111</ele>
        <time>2022-08-14T07:46:15Z</time>
      </trkpt>
      <trkpt lat="42.63126" lon="1.72644">
        <ele>2111</ele>
        <time>2022-08-14T07:46:52Z</time>
      </trkpt>
      <trkpt lat="42.63133" lon="1.72637">
        <ele>2111</ele>
        <time>2022-08-14T07:47:45Z</time>
      </trkpt>
      <trkpt lat="42.63133" lon="1.72624">
        <ele>2111</ele>
        <time>2022-08-14T07:48:00Z</time>
      </trkpt>
      <trkpt lat="42.63126" lon="1.72616">
        <ele>2111</ele>
        <time>2022-08-14T07:48:30Z</time>
      </trkpt>
      <trkpt lat="42.63115" lon="1.7262">
        <ele>2111</ele>
        <time>2022-08-14T07:48:40Z</time>
      </trkpt>
      <trkpt lat="42.63105" lon="1.72618">
        <ele>2111</ele>
        <time>2022-08-14T07:48:55Z</time>
      </trkpt>
      <trkpt lat="42.63096" lon="1.72614">
        <ele>2091</ele>
        <time>2022-08-14T07:49:07Z</time>
      </trkpt>
      <trkpt lat="42.63088" lon="1.72608">
        <ele>2091</ele>
        <time>2022-08-14T07:49:35Z</time>
      </trkpt>
      <trkpt lat="42.63081" lon="1.72596">
        <ele>2091</ele>
        <time>2022-08-14T07:49:45Z</time>
      </trkpt>
      <trkpt lat="42.63072" lon="1.72592">
        <ele>2091</ele>
        <time>2022-08-14T07:50:01Z</time>
      </trkpt>
      <trkpt lat="42.63062" lon="1.72591">
        <ele>2091</ele>
        <time>2022-08-14T07:50:20Z</time>
      </trkpt>
      <trkpt lat="42.63052" lon="1.72592">
        <ele>2091</ele>
        <time>2022-08-14T07:50:30Z</time>
      </trkpt>
      <trkpt lat="42.63043" lon="1.72595">
        <ele>2091</ele>
        <time>2022-08-14T07:50:40Z</time>
      </trkpt>
      <trkpt lat="42.63036" lon="1.72586">
        <ele>2091</ele>
        <time>2022-08-14T07:50:52Z</time>
      </trkpt>
      <trkpt lat="42.6303" lon="1.72595">
        <ele>2096</ele>
        <time>2022-08-14T07:51:07Z</time>
      </trkpt>
      <trkpt lat="42.63024" lon="1.72606">
        <ele>2096</ele>
        <time>2022-08-14T07:51:18Z</time>
      </trkpt>
      <trkpt lat="42.63016" lon="1.72612">
        <ele>2096</ele>
        <time>2022-08-14T07:51:28Z</time>
      </trkpt>
      <trkpt lat="42.63007" lon="1.72609">
        <ele>2096</ele>
        <time>2022-08-14T07:52:03Z</time>
      </trkpt>
      <trkpt lat="42.62998" lon="1.72605">
        <ele>2096</ele>
        <time>2022-08-14T07:52:17Z</time>
      </trkpt>
      <trkpt lat="42.62991" lon="1.72598">
        <ele>2098</ele>
        <time>2022-08-14T07:52:27Z</time>
      </trkpt>
      <trkpt lat="42.62981" lon="1.72596">
        <ele>2098</ele>
        <time>2022-08-14T07:52:59Z</time>
      </trkpt>
      <trkpt lat="42.62973" lon="1.72592">
        <ele>2098</ele>
        <time>2022-08-14T07:53:24Z</time>
      </trkpt>
      <trkpt lat="42.62964" lon="1.7259">
        <ele>2098</ele>
        <time>2022-08-14T07:53:36Z</time>
      </trkpt>
      <trkpt lat="42.62955" lon="1.72583">
        <ele>2098</ele>
        <time>2022-08-14T07:53:47Z</time>
      </trkpt>
      <trkpt lat="42.62946" lon="1.7258">
        <ele>2098</ele>
        <time>2022-08-14T07:53:55Z</time>
      </trkpt>
      <trkpt lat="42.6294" lon="1.72583">
        <ele>2099</ele>
        <time>2022-08-14T08:05:41Z</time>
      </trkpt>
      <trkpt lat="42.62935" lon="1.72587">
        <ele>2099</ele>
        <time>2022-08-14T08:05:49Z</time>
      </trkpt>
      <trkpt lat="42.62926" lon="1.72586">
        <ele>2099</ele>
        <time>2022-08-14T08:05:59Z</time>
      </trkpt>
      <trkpt lat="42.62917" lon="1.72586">
        <ele>2099</ele>
        <time>2022-08-14T08:06:21Z</time>
      </trkpt>
      <trkpt lat="42.62909" lon="1.72591">
        <ele>2099</ele>
        <time>2022-08-14T08:06:32Z</time>
      </trkpt>
      <trkpt lat="42.62903" lon="1.726">
        <ele>2103</ele>
        <time>2022-08-14T08:06:41Z</time>
      </trkpt>
      <trkpt lat="42.62894" lon="1.72607">
        <ele>2103</ele>
        <time>2022-08-14T08:06:49Z</time>
      </trkpt>
      <trkpt lat="42.62885" lon="1.72613">
        <ele>2103</ele>
        <time>2022-08-14T08:06:58Z</time>
      </trkpt>
      <trkpt lat="42.62876" lon="1.72615">
        <ele>2103</ele>
        <time>2022-08-14T08:07:06Z</time>
      </trkpt>
      <trkpt lat="42.62868" lon="1.72621">
        <ele>2103</ele>
        <time>2022-08-14T08:07:16Z</time>
      </trkpt>
      <trkpt lat="42.6286" lon="1.72629">
        <ele>2103</ele>
        <time>2022-08-14T08:07:26Z</time>
      </trkpt>
      <trkpt lat="42.62854" lon="1.7264">
        <ele>2103</ele>
        <time>2022-08-14T08:07:36Z</time>
      </trkpt>
      <trkpt lat="42.62845" lon="1.72644">
        <ele>2103</ele>
        <time>2022-08-14T08:07:44Z</time>
      </trkpt>
      <trkpt lat="42.62841" lon="1.72657">
        <ele>2103</ele>
        <time>2022-08-14T08:07:55Z</time>
      </trkpt>
      <trkpt lat="42.62834" lon="1.72664">
        <ele>2103</ele>
        <time>2022-08-14T08:08:05Z</time>
      </trkpt>
      <trkpt lat="42.62826" lon="1.72673">
        <ele>2103</ele>
        <time>2022-08-14T08:08:20Z</time>
      </trkpt>
      <trkpt lat="42.6282" lon="1.72683">
        <ele>2103</ele>
        <time>2022-08-14T08:08:29Z</time>
      </trkpt>
      <trkpt lat="42.62815" lon="1.72694">
        <ele>2103</ele>
        <time>2022-08-14T08:08:57Z</time>
      </trkpt>
      <trkpt lat="42.62808" lon="1.72702">
        <ele>2111</ele>
        <time>2022-08-14T08:09:11Z</time>
      </trkpt>
      <trkpt lat="42.62799" lon="1.72707">
        <ele>2111</ele>
        <time>2022-08-14T08:09:23Z</time>
      </trkpt>
      <trkpt lat="42.62792" lon="1.72699">
        <ele>2112</ele>
        <time>2022-08-14T08:09:31Z</time>
      </trkpt>
      <trkpt lat="42.62784" lon="1.7269">
        <ele>2112</ele>
        <time>2022-08-14T08:10:25Z</time>
      </trkpt>
      <trkpt lat="42.62776" lon="1.72695">
        <ele>2112</ele>
        <time>2022-08-14T08:10:54Z</time>
      </trkpt>
      <trkpt lat="42.62766" lon="1.72697">
        <ele>2112</ele>
        <time>2022-08-14T08:11:04Z</time>
      </trkpt>
      <trkpt lat="42.62756" lon="1.72696">
        <ele>2112</ele>
        <time>2022-08-14T08:11:13Z</time>
      </trkpt>
      <trkpt lat="42.62747" lon="1.727">
        <ele>2112</ele>
        <time>2022-08-14T08:11:24Z</time>
      </trkpt>
      <trkpt lat="42.62743" lon="1.72688">
        <ele>2112</ele>
        <time>2022-08-14T08:11:50Z</time>
      </trkpt>
      <trkpt lat="42.62736" lon="1.72676">
        <ele>2112</ele>
        <time>2022-08-14T08:12:16Z</time>
      </trkpt>
      <trkpt lat="42.62727" lon="1.72675">
        <ele>2112</ele>
        <time>2022-08-14T08:12:22Z</time>
      </trkpt>
      <trkpt lat="42.62719" lon="1.72668">
        <ele>2112</ele>
        <time>2022-08-14T08:12:34Z</time>
      </trkpt>
      <trkpt lat="42.62709" lon="1.72672">
        <ele>2112</ele>
        <time>2022-08-14T08:12:42Z</time>
      </trkpt>
      <trkpt lat="42.62701" lon="1.72667">
        <ele>2112</ele>
        <time>2022-08-14T08:12:54Z</time>
      </trkpt>
      <trkpt lat="42.62695" lon="1.72657">
        <ele>2112</ele>
        <time>2022-08-14T08:13:00Z</time>
      </trkpt>
      <trkpt lat="42.62684" lon="1.72654">
        <ele>2122</ele>
        <time>2022-08-14T08:13:11Z</time>
      </trkpt>
      <trkpt lat="42.62676" lon="1.7265">
        <ele>2122</ele>
        <time>2022-08-14T08:13:20Z</time>
      </trkpt>
      <trkpt lat="42.62668" lon="1.7264">
        <ele>2121</ele>
        <time>2022-08-14T08:13:31Z</time>
      </trkpt>
      <trkpt lat="42.62662" lon="1.7263">
        <ele>2121</ele>
        <time>2022-08-14T08:13:40Z</time>
      </trkpt>
      <trkpt lat="42.62653" lon="1.72626">
        <ele>2121</ele>
        <time>2022-08-14T08:13:50Z</time>
      </trkpt>
      <trkpt lat="42.62644" lon="1.72631">
        <ele>2121</ele>
        <time>2022-08-14T08:14:00Z</time>
      </trkpt>
      <trkpt lat="42.62633" lon="1.72627">
        <ele>2121</ele>
        <time>2022-08-14T08:14:14Z</time>
      </trkpt>
      <trkpt lat="42.62623" lon="1.72626">
        <ele>2121</ele>
        <time>2022-08-14T08:14:25Z</time>
      </trkpt>
      <trkpt lat="42.62613" lon="1.72628">
        <ele>2121</ele>
        <time>2022-08-14T08:14:35Z</time>
      </trkpt>
      <trkpt lat="42.62602" lon="1.72629">
        <ele>2124</ele>
        <time>2022-08-14T08:14:51Z</time>
      </trkpt>
      <trkpt lat="42.62594" lon="1.72623">
        <ele>2124</ele>
        <time>2022-08-14T08:15:00Z</time>
      </trkpt>
      <trkpt lat="42.62585" lon="1.72617">
        <ele>2124</ele>
        <time>2022-08-14T08:15:08Z</time>
      </trkpt>
      <trkpt lat="42.62577" lon="1.72611">
        <ele>2124</ele>
        <time>2022-08-14T08:15:17Z</time>
      </trkpt>
      <trkpt lat="42.6257" lon="1.72602">
        <ele>2124</ele>
        <time>2022-08-14T08:15:28Z</time>
      </trkpt>
      <trkpt lat="42.6256" lon="1.726">
        <ele>2124</ele>
        <time>2022-08-14T08:15:38Z</time>
      </trkpt>
      <trkpt lat="42.62552" lon="1.72594">
        <ele>2124</ele>
        <time>2022-08-14T08:15:50Z</time>
      </trkpt>
      <trkpt lat="42.62542" lon="1.72594">
        <ele>2124</ele>
        <time>2022-08-14T08:16:04Z</time>
      </trkpt>
      <trkpt lat="42.62531" lon="1.72595">
        <ele>2124</ele>
        <time>2022-08-14T08:16:19Z</time>
      </trkpt>
      <trkpt lat="42.62523" lon="1.72586">
        <ele>2124</ele>
        <time>2022-08-14T08:16:34Z</time>
      </trkpt>
      <trkpt lat="42.6252" lon="1.72574">
        <ele>2124</ele>
        <time>2022-08-14T08:17:02Z</time>
      </trkpt>
      <trkpt lat="42.62511" lon="1.72579">
        <ele>2124</ele>
        <time>2022-08-14T08:17:23Z</time>
      </trkpt>
      <trkpt lat="42.62503" lon="1.72585">
        <ele>2124</ele>
        <time>2022-08-14T08:17:31Z</time>
      </trkpt>
      <trkpt lat="42.62494" lon="1.7259">
        <ele>2124</ele>
        <time>2022-08-14T08:17:39Z</time>
      </trkpt>
      <trkpt lat="42.62484" lon="1.72586">
        <ele>2124</ele>
        <time>2022-08-14T08:17:52Z</time>
      </trkpt>
      <trkpt lat="42.62474" lon="1.72586">
        <ele>2124</ele>
        <time>2022-08-14T08:18:25Z</time>
      </trkpt>
      <trkpt lat="42.62474" lon="1.72599">
        <ele>2124</ele>
        <time>2022-08-14T08:20:08Z</time>
      </trkpt>
      <trkpt lat="42.62473" lon="1.72586">
        <ele>2124</ele>
        <time>2022-08-14T08:20:48Z</time>
      </trkpt>
      <trkpt lat="42.62464" lon="1.72585">
        <ele>2131</ele>
        <time>2022-08-14T08:21:21Z</time>
      </trkpt>
      <trkpt lat="42.62455" lon="1.7258">
        <ele>2131</ele>
        <time>2022-08-14T08:21:44Z</time>
      </trkpt>
      <trkpt lat="42.6245" lon="1.7257">
        <ele>2139</ele>
        <time>2022-08-14T08:22:01Z</time>
      </trkpt>
      <trkpt lat="42.62439" lon="1.72569">
        <ele>2139</ele>
        <time>2022-08-14T08:22:33Z</time>
      </trkpt>
      <trkpt lat="42.6243" lon="1.72566">
        <ele>2139</ele>
        <time>2022-08-14T08:22:55Z</time>
      </trkpt>
      <trkpt lat="42.62423" lon="1.72575">
        <ele>2139</ele>
        <time>2022-08-14T08:23:18Z</time>
      </trkpt>
      <trkpt lat="42.62415" lon="1.7257">
        <ele>2139</ele>
        <time>2022-08-14T08:23:56Z</time>
      </trkpt>
      <trkpt lat="42.62408" lon="1.72563">
        <ele>2139</ele>
        <time>2022-08-14T08:24:32Z</time>
      </trkpt>
      <trkpt lat="42.62405" lon="1.72551">
        <ele>2139</ele>
        <time>2022-08-14T08:24:45Z</time>
      </trkpt>
      <trkpt lat="42.62395" lon="1.72557">
        <ele>2139</ele>
        <time>2022-08-14T08:25:14Z</time>
      </trkpt>
      <trkpt lat="42.62399" lon="1.72545">
        <ele>2139</ele>
        <time>2022-08-14T08:26:02Z</time>
      </trkpt>
      <trkpt lat="42.62392" lon="1.72538">
        <ele>2173</ele>
        <time>2022-08-14T08:26:11Z</time>
      </trkpt>
      <trkpt lat="42.62393" lon="1.72525">
        <ele>2173</ele>
        <time>2022-08-14T08:26:23Z</time>
      </trkpt>
      <trkpt lat="42.6239" lon="1.72513">
        <ele>2173</ele>
        <time>2022-08-14T08:28:25Z</time>
      </trkpt>
      <trkpt lat="42.62391" lon="1.72501">
        <ele>2173</ele>
        <time>2022-08-14T08:29:16Z</time>
      </trkpt>
      <trkpt lat="42.62344" lon="1.72552">
        <ele>2173</ele>
        <time>2022-08-14T08:41:30Z</time>
      </trkpt>
      <trkpt lat="42.62329" lon="1.72557">
        <ele>2286</ele>
        <time>2022-08-14T08:41:31Z</time>
      </trkpt>
      <trkpt lat="42.62313" lon="1.72561">
        <ele>2286</ele>
        <time>2022-08-14T08:41:33Z</time>
      </trkpt>
      <trkpt lat="42.62301" lon="1.72563">
        <ele>2286</ele>
        <time>2022-08-14T08:41:35Z</time>
      </trkpt>
      <trkpt lat="42.6229" lon="1.72562">
        <ele>2286</ele>
        <time>2022-08-14T08:41:45Z</time>
      </trkpt>
      <trkpt lat="42.62284" lon="1.72554">
        <ele>2286</ele>
        <time>2022-08-14T08:41:52Z</time>
      </trkpt>
      <trkpt lat="42.62293" lon="1.72557">
        <ele>2286</ele>
        <time>2022-08-14T08:42:02Z</time>
      </trkpt>
      <trkpt lat="42.62302" lon="1.72555">
        <ele>2286</ele>
        <time>2022-08-14T08:42:06Z</time>
      </trkpt>
      <trkpt lat="42.62312" lon="1.72553">
        <ele>2286</ele>
        <time>2022-08-14T08:42:09Z</time>
      </trkpt>
      <trkpt lat="42.62322" lon="1.7255">
        <ele>2286</ele>
        <time>2022-08-14T08:42:13Z</time>
      </trkpt>
      <trkpt lat="42.62394" lon="1.7253">
        <ele>2286</ele>
        <time>2022-08-14T08:43:40Z</time>
      </trkpt>
      <trkpt lat="42.6226" lon="1.7256">
        <ele>2286</ele>
        <time>2022-08-14T08:43:46Z</time>
      </trkpt>
      <trkpt lat="42.62251" lon="1.72561">
        <ele>2286</ele>
        <time>2022-08-14T08:44:02Z</time>
      </trkpt>
      <trkpt lat="42.62242" lon="1.72565">
        <ele>2286</ele>
        <time>2022-08-14T08:44:12Z</time>
      </trkpt>
      <trkpt lat="42.62241" lon="1.72552">
        <ele>2286</ele>
        <time>2022-08-14T08:44:23Z</time>
      </trkpt>
      <trkpt lat="42.62245" lon="1.72541">
        <ele>2286</ele>
        <time>2022-08-14T08:44:39Z</time>
      </trkpt>
      <trkpt lat="42.62256" lon="1.72537">
        <ele>2286</ele>
        <time>2022-08-14T08:44:45Z</time>
      </trkpt>
      <trkpt lat="42.62312" lon="1.72524">
        <ele>2286</ele>
        <time>2022-08-14T08:45:23Z</time>
      </trkpt>
      <trkpt lat="42.62299" lon="1.72528">
        <ele>2286</ele>
        <time>2022-08-14T08:45:24Z</time>
      </trkpt>
      <trkpt lat="42.62279" lon="1.72535">
        <ele>2286</ele>
        <time>2022-08-14T08:45:26Z</time>
      </trkpt>
      <trkpt lat="42.62263" lon="1.72539">
        <ele>2286</ele>
        <time>2022-08-14T08:45:27Z</time>
      </trkpt>
      <trkpt lat="42.6224" lon="1.72534">
        <ele>2286</ele>
        <time>2022-08-14T08:45:28Z</time>
      </trkpt>
      <trkpt lat="42.62232" lon="1.72541">
        <ele>2286</ele>
        <time>2022-08-14T08:45:36Z</time>
      </trkpt>
      <trkpt lat="42.62224" lon="1.7255">
        <ele>2286</ele>
        <time>2022-08-14T08:46:16Z</time>
      </trkpt>
      <trkpt lat="42.62214" lon="1.72551">
        <ele>2286</ele>
        <time>2022-08-14T08:46:25Z</time>
      </trkpt>
      <trkpt lat="42.62209" lon="1.72562">
        <ele>2286</ele>
        <time>2022-08-14T08:46:45Z</time>
      </trkpt>
      <trkpt lat="42.622" lon="1.72566">
        <ele>2286</ele>
        <time>2022-08-14T08:47:04Z</time>
      </trkpt>
      <trkpt lat="42.62191" lon="1.72569">
        <ele>2286</ele>
        <time>2022-08-14T08:47:13Z</time>
      </trkpt>
      <trkpt lat="42.62181" lon="1.72576">
        <ele>2286</ele>
        <time>2022-08-14T08:47:19Z</time>
      </trkpt>
      <trkpt lat="42.62173" lon="1.72585">
        <ele>2286</ele>
        <time>2022-08-14T08:47:22Z</time>
      </trkpt>
      <trkpt lat="42.62183" lon="1.72581">
        <ele>2286</ele>
        <time>2022-08-14T08:47:28Z</time>
      </trkpt>
      <trkpt lat="42.62173" lon="1.72578">
        <ele>2286</ele>
        <time>2022-08-14T08:47:37Z</time>
      </trkpt>
      <trkpt lat="42.62162" lon="1.72584">
        <ele>2286</ele>
        <time>2022-08-14T08:47:46Z</time>
      </trkpt>
      <trkpt lat="42.62155" lon="1.72591">
        <ele>2286</ele>
        <time>2022-08-14T08:47:58Z</time>
      </trkpt>
      <trkpt lat="42.62146" lon="1.72591">
        <ele>2286</ele>
        <time>2022-08-14T08:48:04Z</time>
      </trkpt>
      <trkpt lat="42.62137" lon="1.72593">
        <ele>2286</ele>
        <time>2022-08-14T08:48:12Z</time>
      </trkpt>
      <trkpt lat="42.62127" lon="1.72597">
        <ele>2286</ele>
        <time>2022-08-14T08:48:25Z</time>
      </trkpt>
      <trkpt lat="42.62118" lon="1.72602">
        <ele>2286</ele>
        <time>2022-08-14T08:48:39Z</time>
      </trkpt>
      <trkpt lat="42.62117" lon="1.72615">
        <ele>2286</ele>
        <time>2022-08-14T08:48:49Z</time>
      </trkpt>
      <trkpt lat="42.62111" lon="1.72625">
        <ele>2286</ele>
        <time>2022-08-14T08:48:59Z</time>
      </trkpt>
      <trkpt lat="42.6211" lon="1.72639">
        <ele>2286</ele>
        <time>2022-08-14T08:49:09Z</time>
      </trkpt>
      <trkpt lat="42.62109" lon="1.72651">
        <ele>2286</ele>
        <time>2022-08-14T08:49:29Z</time>
      </trkpt>
      <trkpt lat="42.62103" lon="1.72663">
        <ele>2286</ele>
        <time>2022-08-14T08:52:29Z</time>
      </trkpt>
      <trkpt lat="42.62112" lon="1.72666">
        <ele>2286</ele>
        <time>2022-08-14T08:53:35Z</time>
      </trkpt>
      <trkpt lat="42.62118" lon="1.72676">
        <ele>2286</ele>
        <time>2022-08-14T08:53:52Z</time>
      </trkpt>
      <trkpt lat="42.62119" lon="1.7269">
        <ele>2286</ele>
        <time>2022-08-14T08:54:08Z</time>
      </trkpt>
      <trkpt lat="42.62128" lon="1.72698">
        <ele>2286</ele>
        <time>2022-08-14T08:54:25Z</time>
      </trkpt>
      <trkpt lat="42.62137" lon="1.72698">
        <ele>2286</ele>
        <time>2022-08-14T08:54:35Z</time>
      </trkpt>
      <trkpt lat="42.62141" lon="1.72709">
        <ele>2286</ele>
        <time>2022-08-14T08:54:44Z</time>
      </trkpt>
      <trkpt lat="42.62147" lon="1.7272">
        <ele>2286</ele>
        <time>2022-08-14T08:54:54Z</time>
      </trkpt>
      <trkpt lat="42.6215" lon="1.72732">
        <ele>2286</ele>
        <time>2022-08-14T08:55:07Z</time>
      </trkpt>
      <trkpt lat="42.62149" lon="1.72744">
        <ele>2286</ele>
        <time>2022-08-14T08:55:15Z</time>
      </trkpt>
      <trkpt lat="42.62147" lon="1.72757">
        <ele>2286</ele>
        <time>2022-08-14T08:55:26Z</time>
      </trkpt>
      <trkpt lat="42.62151" lon="1.72768">
        <ele>2286</ele>
        <time>2022-08-14T08:55:42Z</time>
      </trkpt>
      <trkpt lat="42.6216" lon="1.72768">
        <ele>2286</ele>
        <time>2022-08-14T08:55:53Z</time>
      </trkpt>
      <trkpt lat="42.62171" lon="1.72766">
        <ele>2286</ele>
        <time>2022-08-14T08:56:03Z</time>
      </trkpt>
      <trkpt lat="42.62179" lon="1.7277">
        <ele>2286</ele>
        <time>2022-08-14T08:56:18Z</time>
      </trkpt>
      <trkpt lat="42.62182" lon="1.72782">
        <ele>2286</ele>
        <time>2022-08-14T08:56:30Z</time>
      </trkpt>
      <trkpt lat="42.62182" lon="1.72794">
        <ele>2286</ele>
        <time>2022-08-14T08:56:42Z</time>
      </trkpt>
      <trkpt lat="42.62187" lon="1.72805">
        <ele>2286</ele>
        <time>2022-08-14T08:56:53Z</time>
      </trkpt>
      <trkpt lat="42.62189" lon="1.72817">
        <ele>2286</ele>
        <time>2022-08-14T08:57:05Z</time>
      </trkpt>
      <trkpt lat="42.62181" lon="1.72823">
        <ele>2335</ele>
        <time>2022-08-14T08:57:21Z</time>
      </trkpt>
      <trkpt lat="42.62173" lon="1.72831">
        <ele>2335</ele>
        <time>2022-08-14T08:57:31Z</time>
      </trkpt>
      <trkpt lat="42.62168" lon="1.72841">
        <ele>2335</ele>
        <time>2022-08-14T08:57:39Z</time>
      </trkpt>
      <trkpt lat="42.62164" lon="1.72853">
        <ele>2335</ele>
        <time>2022-08-14T08:57:47Z</time>
      </trkpt>
      <trkpt lat="42.62172" lon="1.72859">
        <ele>2335</ele>
        <time>2022-08-14T08:57:57Z</time>
      </trkpt>
      <trkpt lat="42.62178" lon="1.72868">
        <ele>2335</ele>
        <time>2022-08-14T08:58:08Z</time>
      </trkpt>
      <trkpt lat="42.62173" lon="1.7288">
        <ele>2335</ele>
        <time>2022-08-14T08:58:28Z</time>
      </trkpt>
      <trkpt lat="42.62164" lon="1.72881">
        <ele>2335</ele>
        <time>2022-08-14T08:58:52Z</time>
      </trkpt>
      <trkpt lat="42.62161" lon="1.72908">
        <ele>2339</ele>
        <time>2022-08-14T08:59:21Z</time>
      </trkpt>
      <trkpt lat="42.62159" lon="1.7292">
        <ele>2339</ele>
        <time>2022-08-14T08:59:40Z</time>
      </trkpt>
      <trkpt lat="42.62156" lon="1.72932">
        <ele>2339</ele>
        <time>2022-08-14T08:59:59Z</time>
      </trkpt>
      <trkpt lat="42.62149" lon="1.72943">
        <ele>2339</ele>
        <time>2022-08-14T09:00:07Z</time>
      </trkpt>
      <trkpt lat="42.62148" lon="1.72955">
        <ele>2339</ele>
        <time>2022-08-14T09:00:19Z</time>
      </trkpt>
      <trkpt lat="42.62141" lon="1.72964">
        <ele>2339</ele>
        <time>2022-08-14T09:00:28Z</time>
      </trkpt>
      <trkpt lat="42.62136" lon="1.72975">
        <ele>2339</ele>
        <time>2022-08-14T09:00:42Z</time>
      </trkpt>
      <trkpt lat="42.62139" lon="1.72964">
        <ele>2339</ele>
        <time>2022-08-14T09:01:25Z</time>
      </trkpt>
      <trkpt lat="42.62141" lon="1.72978">
        <ele>2339</ele>
        <time>2022-08-14T09:01:52Z</time>
      </trkpt>
      <trkpt lat="42.62139" lon="1.7299">
        <ele>2339</ele>
        <time>2022-08-14T09:02:27Z</time>
      </trkpt>
      <trkpt lat="42.62133" lon="1.73">
        <ele>2339</ele>
        <time>2022-08-14T09:02:35Z</time>
      </trkpt>
      <trkpt lat="42.62126" lon="1.73009">
        <ele>2339</ele>
        <time>2022-08-14T09:02:57Z</time>
      </trkpt>
      <trkpt lat="42.62122" lon="1.7302">
        <ele>2339</ele>
        <time>2022-08-14T09:03:17Z</time>
      </trkpt>
      <trkpt lat="42.62114" lon="1.73031">
        <ele>2339</ele>
        <time>2022-08-14T09:03:37Z</time>
      </trkpt>
      <trkpt lat="42.62107" lon="1.73039">
        <ele>2339</ele>
        <time>2022-08-14T09:05:16Z</time>
      </trkpt>
      <trkpt lat="42.62098" lon="1.73042">
        <ele>2343</ele>
        <time>2022-08-14T09:05:31Z</time>
      </trkpt>
      <trkpt lat="42.62088" lon="1.73048">
        <ele>2343</ele>
        <time>2022-08-14T09:05:43Z</time>
      </trkpt>
      <trkpt lat="42.62079" lon="1.73045">
        <ele>2343</ele>
        <time>2022-08-14T09:06:19Z</time>
      </trkpt>
      <trkpt lat="42.62069" lon="1.73043">
        <ele>2343</ele>
        <time>2022-08-14T09:06:32Z</time>
      </trkpt>
      <trkpt lat="42.62061" lon="1.73036">
        <ele>2343</ele>
        <time>2022-08-14T09:06:42Z</time>
      </trkpt>
      <trkpt lat="42.62052" lon="1.73035">
        <ele>2343</ele>
        <time>2022-08-14T09:07:02Z</time>
      </trkpt>
      <trkpt lat="42.62043" lon="1.7304">
        <ele>2343</ele>
        <time>2022-08-14T09:07:14Z</time>
      </trkpt>
      <trkpt lat="42.62038" lon="1.7303">
        <ele>2343</ele>
        <time>2022-08-14T09:07:33Z</time>
      </trkpt>
      <trkpt lat="42.62031" lon="1.73022">
        <ele>2343</ele>
        <time>2022-08-14T09:07:47Z</time>
      </trkpt>
      <trkpt lat="42.62021" lon="1.73029">
        <ele>2343</ele>
        <time>2022-08-14T09:08:02Z</time>
      </trkpt>
      <trkpt lat="42.62012" lon="1.73024">
        <ele>2343</ele>
        <time>2022-08-14T09:08:19Z</time>
      </trkpt>
      <trkpt lat="42.62003" lon="1.73018">
        <ele>2343</ele>
        <time>2022-08-14T09:08:27Z</time>
      </trkpt>
      <trkpt lat="42.61993" lon="1.73014">
        <ele>2343</ele>
        <time>2022-08-14T09:08:36Z</time>
      </trkpt>
      <trkpt lat="42.61984" lon="1.7302">
        <ele>2343</ele>
        <time>2022-08-14T09:08:54Z</time>
      </trkpt>
      <trkpt lat="42.61974" lon="1.73019">
        <ele>2343</ele>
        <time>2022-08-14T09:09:06Z</time>
      </trkpt>
      <trkpt lat="42.61964" lon="1.7302">
        <ele>2343</ele>
        <time>2022-08-14T09:09:27Z</time>
      </trkpt>
      <trkpt lat="42.61955" lon="1.73014">
        <ele>2343</ele>
        <time>2022-08-14T09:10:14Z</time>
      </trkpt>
      <trkpt lat="42.61949" lon="1.73023">
        <ele>2343</ele>
        <time>2022-08-14T09:10:23Z</time>
      </trkpt>
      <trkpt lat="42.61941" lon="1.73033">
        <ele>2343</ele>
        <time>2022-08-14T09:10:33Z</time>
      </trkpt>
      <trkpt lat="42.61932" lon="1.73033">
        <ele>2337</ele>
        <time>2022-08-14T09:10:41Z</time>
      </trkpt>
      <trkpt lat="42.61923" lon="1.73037">
        <ele>2337</ele>
        <time>2022-08-14T09:10:56Z</time>
      </trkpt>
      <trkpt lat="42.61913" lon="1.73041">
        <ele>2337</ele>
        <time>2022-08-14T09:11:10Z</time>
      </trkpt>
      <trkpt lat="42.61904" lon="1.73041">
        <ele>2337</ele>
        <time>2022-08-14T09:11:27Z</time>
      </trkpt>
      <trkpt lat="42.61894" lon="1.73041">
        <ele>2337</ele>
        <time>2022-08-14T09:11:39Z</time>
      </trkpt>
      <trkpt lat="42.61888" lon="1.73051">
        <ele>2337</ele>
        <time>2022-08-14T09:11:48Z</time>
      </trkpt>
      <trkpt lat="42.61882" lon="1.73061">
        <ele>2337</ele>
        <time>2022-08-14T09:12:02Z</time>
      </trkpt>
      <trkpt lat="42.61874" lon="1.73069">
        <ele>2337</ele>
        <time>2022-08-14T09:12:22Z</time>
      </trkpt>
      <trkpt lat="42.61866" lon="1.73076">
        <ele>2337</ele>
        <time>2022-08-14T09:13:07Z</time>
      </trkpt>
      <trkpt lat="42.61658" lon="1.73119">
        <ele>2337</ele>
        <time>2022-08-14T09:19:28Z</time>
      </trkpt>
      <trkpt lat="42.61663" lon="1.73108">
        <ele>2337</ele>
        <time>2022-08-14T09:19:43Z</time>
      </trkpt>
      <trkpt lat="42.61656" lon="1.73117">
        <ele>2337</ele>
        <time>2022-08-14T09:19:52Z</time>
      </trkpt>
      <trkpt lat="42.61651" lon="1.73105">
        <ele>2337</ele>
        <time>2022-08-14T09:20:20Z</time>
      </trkpt>
      <trkpt lat="42.61639" lon="1.731">
        <ele>2337</ele>
        <time>2022-08-14T09:20:32Z</time>
      </trkpt>
      <trkpt lat="42.61627" lon="1.73099">
        <ele>2337</ele>
        <time>2022-08-14T09:20:39Z</time>
      </trkpt>
      <trkpt lat="42.61633" lon="1.73088">
        <ele>2337</ele>
        <time>2022-08-14T09:20:55Z</time>
      </trkpt>
      <trkpt lat="42.61631" lon="1.73076">
        <ele>2337</ele>
        <time>2022-08-14T09:21:07Z</time>
      </trkpt>
      <trkpt lat="42.61618" lon="1.73081">
        <ele>2337</ele>
        <time>2022-08-14T09:21:14Z</time>
      </trkpt>
      <trkpt lat="42.61609" lon="1.73085">
        <ele>2337</ele>
        <time>2022-08-14T09:21:16Z</time>
      </trkpt>
      <trkpt lat="42.6162" lon="1.73079">
        <ele>2337</ele>
        <time>2022-08-14T09:21:42Z</time>
      </trkpt>
      <trkpt lat="42.61631" lon="1.73079">
        <ele>2337</ele>
        <time>2022-08-14T09:21:45Z</time>
      </trkpt>
      <trkpt lat="42.61632" lon="1.73065">
        <ele>2337</ele>
        <time>2022-08-14T09:22:02Z</time>
      </trkpt>
      <trkpt lat="42.61624" lon="1.73075">
        <ele>2337</ele>
        <time>2022-08-14T09:22:25Z</time>
      </trkpt>
      <trkpt lat="42.61623" lon="1.73062">
        <ele>2337</ele>
        <time>2022-08-14T09:22:47Z</time>
      </trkpt>
      <trkpt lat="42.61614" lon="1.73058">
        <ele>2337</ele>
        <time>2022-08-14T09:23:10Z</time>
      </trkpt>
      <trkpt lat="42.61603" lon="1.73058">
        <ele>2337</ele>
        <time>2022-08-14T09:23:49Z</time>
      </trkpt>
      <trkpt lat="42.61612" lon="1.73054">
        <ele>2337</ele>
        <time>2022-08-14T09:23:56Z</time>
      </trkpt>
      <trkpt lat="42.61603" lon="1.73057">
        <ele>2337</ele>
        <time>2022-08-14T09:24:18Z</time>
      </trkpt>
      <trkpt lat="42.61593" lon="1.73058">
        <ele>2337</ele>
        <time>2022-08-14T09:24:38Z</time>
      </trkpt>
      <trkpt lat="42.61582" lon="1.73056">
        <ele>2337</ele>
        <time>2022-08-14T09:25:04Z</time>
      </trkpt>
      <trkpt lat="42.61575" lon="1.73046">
        <ele>2404</ele>
        <time>2022-08-14T09:25:31Z</time>
      </trkpt>
      <trkpt lat="42.61565" lon="1.73046">
        <ele>2404</ele>
        <time>2022-08-14T09:25:45Z</time>
      </trkpt>
      <trkpt lat="42.61556" lon="1.73041">
        <ele>2404</ele>
        <time>2022-08-14T09:25:57Z</time>
      </trkpt>
      <trkpt lat="42.61548" lon="1.73036">
        <ele>2404</ele>
        <time>2022-08-14T09:26:15Z</time>
      </trkpt>
      <trkpt lat="42.61544" lon="1.73025">
        <ele>2404</ele>
        <time>2022-08-14T09:26:36Z</time>
      </trkpt>
      <trkpt lat="42.61535" lon="1.7303">
        <ele>2404</ele>
        <time>2022-08-14T09:26:52Z</time>
      </trkpt>
      <trkpt lat="42.61525" lon="1.73032">
        <ele>2404</ele>
        <time>2022-08-14T09:27:12Z</time>
      </trkpt>
      <trkpt lat="42.6152" lon="1.73043">
        <ele>2404</ele>
        <time>2022-08-14T09:27:28Z</time>
      </trkpt>
      <trkpt lat="42.61515" lon="1.73053">
        <ele>2404</ele>
        <time>2022-08-14T09:28:02Z</time>
      </trkpt>
      <trkpt lat="42.61505" lon="1.73054">
        <ele>2425</ele>
        <time>2022-08-14T09:28:21Z</time>
      </trkpt>
      <trkpt lat="42.61504" lon="1.73067">
        <ele>2425</ele>
        <time>2022-08-14T09:28:28Z</time>
      </trkpt>
      <trkpt lat="42.61498" lon="1.73057">
        <ele>2428</ele>
        <time>2022-08-14T09:28:41Z</time>
      </trkpt>
      <trkpt lat="42.61489" lon="1.73053">
        <ele>2428</ele>
        <time>2022-08-14T09:28:54Z</time>
      </trkpt>
      <trkpt lat="42.61483" lon="1.73042">
        <ele>2428</ele>
        <time>2022-08-14T09:29:19Z</time>
      </trkpt>
      <trkpt lat="42.61476" lon="1.73033">
        <ele>2428</ele>
        <time>2022-08-14T09:29:33Z</time>
      </trkpt>
      <trkpt lat="42.61467" lon="1.73029">
        <ele>2428</ele>
        <time>2022-08-14T09:29:47Z</time>
      </trkpt>
      <trkpt lat="42.61459" lon="1.73023">
        <ele>2428</ele>
        <time>2022-08-14T09:29:56Z</time>
      </trkpt>
      <trkpt lat="42.61468" lon="1.7302">
        <ele>2428</ele>
        <time>2022-08-14T09:31:22Z</time>
      </trkpt>
      <trkpt lat="42.61469" lon="1.7302">
        <ele>2440</ele>
        <time>2022-08-14T09:43:55Z</time>
      </trkpt>
      <trkpt lat="42.61468" lon="1.73019">
        <ele>2437</ele>
        <time>2022-08-14T09:44:40Z</time>
      </trkpt>
      <trkpt lat="42.6146" lon="1.73021">
        <ele>2437</ele>
        <time>2022-08-14T09:44:51Z</time>
      </trkpt>
      <trkpt lat="42.61451" lon="1.73022">
        <ele>2437</ele>
        <time>2022-08-14T09:45:04Z</time>
      </trkpt>
      <trkpt lat="42.61446" lon="1.73033">
        <ele>2437</ele>
        <time>2022-08-14T09:45:24Z</time>
      </trkpt>
      <trkpt lat="42.61447" lon="1.73046">
        <ele>2437</ele>
        <time>2022-08-14T09:45:57Z</time>
      </trkpt>
      <trkpt lat="42.61445" lon="1.73059">
        <ele>2437</ele>
        <time>2022-08-14T09:46:14Z</time>
      </trkpt>
      <trkpt lat="42.61438" lon="1.73068">
        <ele>2437</ele>
        <time>2022-08-14T09:46:24Z</time>
      </trkpt>
      <trkpt lat="42.61433" lon="1.73078">
        <ele>2437</ele>
        <time>2022-08-14T09:46:33Z</time>
      </trkpt>
      <trkpt lat="42.61428" lon="1.73089">
        <ele>2437</ele>
        <time>2022-08-14T09:46:45Z</time>
      </trkpt>
      <trkpt lat="42.61421" lon="1.73097">
        <ele>2437</ele>
        <time>2022-08-14T09:47:00Z</time>
      </trkpt>
      <trkpt lat="42.61422" lon="1.7311">
        <ele>2437</ele>
        <time>2022-08-14T09:47:20Z</time>
      </trkpt>
      <trkpt lat="42.61413" lon="1.73114">
        <ele>2437</ele>
        <time>2022-08-14T09:47:36Z</time>
      </trkpt>
      <trkpt lat="42.61416" lon="1.73126">
        <ele>2437</ele>
        <time>2022-08-14T09:48:05Z</time>
      </trkpt>
      <trkpt lat="42.61415" lon="1.73139">
        <ele>2437</ele>
        <time>2022-08-14T09:48:23Z</time>
      </trkpt>
      <trkpt lat="42.61409" lon="1.73148">
        <ele>2437</ele>
        <time>2022-08-14T09:48:34Z</time>
      </trkpt>
      <trkpt lat="42.61402" lon="1.73157">
        <ele>2437</ele>
        <time>2022-08-14T09:48:43Z</time>
      </trkpt>
      <trkpt lat="42.61401" lon="1.73171">
        <ele>2437</ele>
        <time>2022-08-14T09:49:08Z</time>
      </trkpt>
      <trkpt lat="42.61402" lon="1.73183">
        <ele>2437</ele>
        <time>2022-08-14T09:49:24Z</time>
      </trkpt>
      <trkpt lat="42.61398" lon="1.73194">
        <ele>2437</ele>
        <time>2022-08-14T09:49:38Z</time>
      </trkpt>
      <trkpt lat="42.61394" lon="1.73206">
        <ele>2437</ele>
        <time>2022-08-14T09:49:57Z</time>
      </trkpt>
      <trkpt lat="42.61392" lon="1.7322">
        <ele>2437</ele>
        <time>2022-08-14T09:50:07Z</time>
      </trkpt>
      <trkpt lat="42.61393" lon="1.73232">
        <ele>2437</ele>
        <time>2022-08-14T09:50:17Z</time>
      </trkpt>
      <trkpt lat="42.61396" lon="1.73244">
        <ele>2481</ele>
        <time>2022-08-14T09:50:29Z</time>
      </trkpt>
      <trkpt lat="42.61395" lon="1.73257">
        <ele>2481</ele>
        <time>2022-08-14T09:50:40Z</time>
      </trkpt>
      <trkpt lat="42.61395" lon="1.73271">
        <ele>2481</ele>
        <time>2022-08-14T09:50:50Z</time>
      </trkpt>
      <trkpt lat="42.61393" lon="1.73284">
        <ele>2481</ele>
        <time>2022-08-14T09:51:04Z</time>
      </trkpt>
      <trkpt lat="42.61395" lon="1.73296">
        <ele>2481</ele>
        <time>2022-08-14T09:51:18Z</time>
      </trkpt>
      <trkpt lat="42.61393" lon="1.73309">
        <ele>2481</ele>
        <time>2022-08-14T09:51:36Z</time>
      </trkpt>
      <trkpt lat="42.61393" lon="1.73321">
        <ele>2481</ele>
        <time>2022-08-14T09:51:48Z</time>
      </trkpt>
      <trkpt lat="42.61397" lon="1.73333">
        <ele>2481</ele>
        <time>2022-08-14T09:52:44Z</time>
      </trkpt>
      <trkpt lat="42.61401" lon="1.73344">
        <ele>2481</ele>
        <time>2022-08-14T09:52:54Z</time>
      </trkpt>
      <trkpt lat="42.61405" lon="1.73356">
        <ele>2481</ele>
        <time>2022-08-14T09:53:17Z</time>
      </trkpt>
      <trkpt lat="42.61408" lon="1.73368">
        <ele>2481</ele>
        <time>2022-08-14T09:53:30Z</time>
      </trkpt>
      <trkpt lat="42.61413" lon="1.73378">
        <ele>2481</ele>
        <time>2022-08-14T09:54:10Z</time>
      </trkpt>
      <trkpt lat="42.61422" lon="1.73385">
        <ele>2481</ele>
        <time>2022-08-14T09:54:18Z</time>
      </trkpt>
      <trkpt lat="42.61423" lon="1.73398">
        <ele>2481</ele>
        <time>2022-08-14T09:54:33Z</time>
      </trkpt>
      <trkpt lat="42.61425" lon="1.73411">
        <ele>2481</ele>
        <time>2022-08-14T09:54:45Z</time>
      </trkpt>
      <trkpt lat="42.61425" lon="1.73424">
        <ele>2481</ele>
        <time>2022-08-14T09:54:57Z</time>
      </trkpt>
      <trkpt lat="42.61427" lon="1.73437">
        <ele>2498</ele>
        <time>2022-08-14T09:55:09Z</time>
      </trkpt>
      <trkpt lat="42.61432" lon="1.73447">
        <ele>2498</ele>
        <time>2022-08-14T09:55:21Z</time>
      </trkpt>
      <trkpt lat="42.61435" lon="1.73459">
        <ele>2498</ele>
        <time>2022-08-14T09:55:33Z</time>
      </trkpt>
      <trkpt lat="42.61437" lon="1.73471">
        <ele>2498</ele>
        <time>2022-08-14T09:55:48Z</time>
      </trkpt>
      <trkpt lat="42.61434" lon="1.73483">
        <ele>2498</ele>
        <time>2022-08-14T09:56:03Z</time>
      </trkpt>
      <trkpt lat="42.61439" lon="1.73495">
        <ele>2498</ele>
        <time>2022-08-14T09:56:24Z</time>
      </trkpt>
      <trkpt lat="42.61445" lon="1.73504">
        <ele>2498</ele>
        <time>2022-08-14T09:56:44Z</time>
      </trkpt>
      <trkpt lat="42.6145" lon="1.73514">
        <ele>2498</ele>
        <time>2022-08-14T09:57:01Z</time>
      </trkpt>
      <trkpt lat="42.61459" lon="1.73519">
        <ele>2498</ele>
        <time>2022-08-14T09:57:12Z</time>
      </trkpt>
      <trkpt lat="42.61467" lon="1.73525">
        <ele>2498</ele>
        <time>2022-08-14T09:57:25Z</time>
      </trkpt>
      <trkpt lat="42.61475" lon="1.73533">
        <ele>2498</ele>
        <time>2022-08-14T09:57:41Z</time>
      </trkpt>
      <trkpt lat="42.61483" lon="1.73539">
        <ele>2522</ele>
        <time>2022-08-14T09:57:49Z</time>
      </trkpt>
      <trkpt lat="42.61487" lon="1.7355">
        <ele>2522</ele>
        <time>2022-08-14T09:57:58Z</time>
      </trkpt>
      <trkpt lat="42.61494" lon="1.73559">
        <ele>2522</ele>
        <time>2022-08-14T09:58:06Z</time>
      </trkpt>
      <trkpt lat="42.61495" lon="1.73572">
        <ele>2522</ele>
        <time>2022-08-14T09:58:20Z</time>
      </trkpt>
      <trkpt lat="42.61504" lon="1.73577">
        <ele>2522</ele>
        <time>2022-08-14T09:58:42Z</time>
      </trkpt>
      <trkpt lat="42.61512" lon="1.73585">
        <ele>2522</ele>
        <time>2022-08-14T09:58:54Z</time>
      </trkpt>
      <trkpt lat="42.61519" lon="1.73593">
        <ele>2522</ele>
        <time>2022-08-14T09:59:07Z</time>
      </trkpt>
      <trkpt lat="42.61527" lon="1.73602">
        <ele>2522</ele>
        <time>2022-08-14T09:59:16Z</time>
      </trkpt>
      <trkpt lat="42.61531" lon="1.73614">
        <ele>2522</ele>
        <time>2022-08-14T09:59:25Z</time>
      </trkpt>
      <trkpt lat="42.61539" lon="1.73621">
        <ele>2522</ele>
        <time>2022-08-14T10:00:28Z</time>
      </trkpt>
      <trkpt lat="42.61548" lon="1.73617">
        <ele>2522</ele>
        <time>2022-08-14T10:00:36Z</time>
      </trkpt>
      <trkpt lat="42.61558" lon="1.73621">
        <ele>2531</ele>
        <time>2022-08-14T10:00:49Z</time>
      </trkpt>
      <trkpt lat="42.61563" lon="1.73631">
        <ele>2531</ele>
        <time>2022-08-14T10:01:07Z</time>
      </trkpt>
      <trkpt lat="42.6157" lon="1.7364">
        <ele>2531</ele>
        <time>2022-08-14T10:01:22Z</time>
      </trkpt>
      <trkpt lat="42.6158" lon="1.73642">
        <ele>2531</ele>
        <time>2022-08-14T10:01:52Z</time>
      </trkpt>
      <trkpt lat="42.61584" lon="1.73653">
        <ele>2531</ele>
        <time>2022-08-14T10:02:56Z</time>
      </trkpt>
      <trkpt lat="42.6159" lon="1.73664">
        <ele>2504</ele>
        <time>2022-08-14T10:03:29Z</time>
      </trkpt>
      <trkpt lat="42.61597" lon="1.73674">
        <ele>2500</ele>
        <time>2022-08-14T10:03:39Z</time>
      </trkpt>
      <trkpt lat="42.61603" lon="1.73684">
        <ele>2500</ele>
        <time>2022-08-14T10:03:50Z</time>
      </trkpt>
      <trkpt lat="42.61609" lon="1.73695">
        <ele>2500</ele>
        <time>2022-08-14T10:04:15Z</time>
      </trkpt>
      <trkpt lat="42.61614" lon="1.73706">
        <ele>2500</ele>
        <time>2022-08-14T10:04:42Z</time>
      </trkpt>
      <trkpt lat="42.61619" lon="1.73717">
        <ele>2500</ele>
        <time>2022-08-14T10:04:56Z</time>
      </trkpt>
      <trkpt lat="42.61623" lon="1.73729">
        <ele>2500</ele>
        <time>2022-08-14T10:05:11Z</time>
      </trkpt>
      <trkpt lat="42.61627" lon="1.73741">
        <ele>2500</ele>
        <time>2022-08-14T10:05:28Z</time>
      </trkpt>
      <trkpt lat="42.61625" lon="1.73753">
        <ele>2500</ele>
        <time>2022-08-14T10:05:42Z</time>
      </trkpt>
      <trkpt lat="42.6163" lon="1.73765">
        <ele>2500</ele>
        <time>2022-08-14T10:06:04Z</time>
      </trkpt>
      <trkpt lat="42.61635" lon="1.73775">
        <ele>2500</ele>
        <time>2022-08-14T10:06:37Z</time>
      </trkpt>
      <trkpt lat="42.61641" lon="1.73785">
        <ele>2500</ele>
        <time>2022-08-14T10:07:50Z</time>
      </trkpt>
      <trkpt lat="42.61645" lon="1.73796">
        <ele>2500</ele>
        <time>2022-08-14T10:08:08Z</time>
      </trkpt>
      <trkpt lat="42.61651" lon="1.73805">
        <ele>2453</ele>
        <time>2022-08-14T10:08:29Z</time>
      </trkpt>
      <trkpt lat="42.61653" lon="1.73818">
        <ele>2453</ele>
        <time>2022-08-14T10:09:12Z</time>
      </trkpt>
      <trkpt lat="42.61658" lon="1.73828">
        <ele>2453</ele>
        <time>2022-08-14T10:09:31Z</time>
      </trkpt>
      <trkpt lat="42.61661" lon="1.73839">
        <ele>2453</ele>
        <time>2022-08-14T10:09:53Z</time>
      </trkpt>
      <trkpt lat="42.61668" lon="1.7383">
        <ele>2453</ele>
        <time>2022-08-14T10:10:07Z</time>
      </trkpt>
      <trkpt lat="42.61667" lon="1.73844">
        <ele>2453</ele>
        <time>2022-08-14T10:10:18Z</time>
      </trkpt>
      <trkpt lat="42.61659" lon="1.73851">
        <ele>2453</ele>
        <time>2022-08-14T10:10:42Z</time>
      </trkpt>
      <trkpt lat="42.61655" lon="1.7384">
        <ele>2453</ele>
        <time>2022-08-14T10:10:52Z</time>
      </trkpt>
      <trkpt lat="42.61664" lon="1.73842">
        <ele>2453</ele>
        <time>2022-08-14T10:11:18Z</time>
      </trkpt>
      <trkpt lat="42.61669" lon="1.73853">
        <ele>2453</ele>
        <time>2022-08-14T10:12:14Z</time>
      </trkpt>
      <trkpt lat="42.61674" lon="1.73863">
        <ele>2453</ele>
        <time>2022-08-14T10:12:31Z</time>
      </trkpt>
      <trkpt lat="42.61675" lon="1.73876">
        <ele>2453</ele>
        <time>2022-08-14T10:13:34Z</time>
      </trkpt>
      <trkpt lat="42.61682" lon="1.73885">
        <ele>2453</ele>
        <time>2022-08-14T10:13:44Z</time>
      </trkpt>
      <trkpt lat="42.61685" lon="1.73896">
        <ele>2453</ele>
        <time>2022-08-14T10:14:12Z</time>
      </trkpt>
      <trkpt lat="42.61685" lon="1.73909">
        <ele>2453</ele>
        <time>2022-08-14T10:14:24Z</time>
      </trkpt>
      <trkpt lat="42.61686" lon="1.73921">
        <ele>2424</ele>
        <time>2022-08-14T10:14:39Z</time>
      </trkpt>
      <trkpt lat="42.61681" lon="1.73932">
        <ele>2424</ele>
        <time>2022-08-14T10:15:14Z</time>
      </trkpt>
      <trkpt lat="42.61687" lon="1.73942">
        <ele>2424</ele>
        <time>2022-08-14T10:16:13Z</time>
      </trkpt>
      <trkpt lat="42.61691" lon="1.73953">
        <ele>2424</ele>
        <time>2022-08-14T10:16:24Z</time>
      </trkpt>
      <trkpt lat="42.6169" lon="1.73966">
        <ele>2424</ele>
        <time>2022-08-14T10:16:35Z</time>
      </trkpt>
      <trkpt lat="42.61693" lon="1.73977">
        <ele>2424</ele>
        <time>2022-08-14T10:16:45Z</time>
      </trkpt>
      <trkpt lat="42.61694" lon="1.7399">
        <ele>2408</ele>
        <time>2022-08-14T10:16:59Z</time>
      </trkpt>
      <trkpt lat="42.61697" lon="1.74002">
        <ele>2408</ele>
        <time>2022-08-14T10:17:08Z</time>
      </trkpt>
      <trkpt lat="42.61701" lon="1.74014">
        <ele>2408</ele>
        <time>2022-08-14T10:17:18Z</time>
      </trkpt>
      <trkpt lat="42.617" lon="1.74028">
        <ele>2408</ele>
        <time>2022-08-14T10:18:18Z</time>
      </trkpt>
      <trkpt lat="42.61703" lon="1.7404">
        <ele>2408</ele>
        <time>2022-08-14T10:18:26Z</time>
      </trkpt>
      <trkpt lat="42.6171" lon="1.74049">
        <ele>2408</ele>
        <time>2022-08-14T10:18:37Z</time>
      </trkpt>
      <trkpt lat="42.61714" lon="1.7406">
        <ele>2408</ele>
        <time>2022-08-14T10:18:52Z</time>
      </trkpt>
      <trkpt lat="42.6172" lon="1.74071">
        <ele>2408</ele>
        <time>2022-08-14T10:19:04Z</time>
      </trkpt>
      <trkpt lat="42.61724" lon="1.74082">
        <ele>2408</ele>
        <time>2022-08-14T10:19:13Z</time>
      </trkpt>
      <trkpt lat="42.61727" lon="1.74094">
        <ele>2408</ele>
        <time>2022-08-14T10:19:24Z</time>
      </trkpt>
      <trkpt lat="42.61726" lon="1.74106">
        <ele>2408</ele>
        <time>2022-08-14T10:19:34Z</time>
      </trkpt>
      <trkpt lat="42.61732" lon="1.74116">
        <ele>2408</ele>
        <time>2022-08-14T10:19:45Z</time>
      </trkpt>
      <trkpt lat="42.61736" lon="1.74128">
        <ele>2408</ele>
        <time>2022-08-14T10:19:57Z</time>
      </trkpt>
      <trkpt lat="42.61743" lon="1.74135">
        <ele>2408</ele>
        <time>2022-08-14T10:20:44Z</time>
      </trkpt>
      <trkpt lat="42.61752" lon="1.74139">
        <ele>2408</ele>
        <time>2022-08-14T10:20:54Z</time>
      </trkpt>
      <trkpt lat="42.6176" lon="1.74146">
        <ele>2408</ele>
        <time>2022-08-14T10:21:08Z</time>
      </trkpt>
      <trkpt lat="42.61767" lon="1.74156">
        <ele>2408</ele>
        <time>2022-08-14T10:21:22Z</time>
      </trkpt>
      <trkpt lat="42.61772" lon="1.74166">
        <ele>2408</ele>
        <time>2022-08-14T10:21:51Z</time>
      </trkpt>
      <trkpt lat="42.61777" lon="1.74176">
        <ele>2386</ele>
        <time>2022-08-14T10:21:59Z</time>
      </trkpt>
      <trkpt lat="42.61784" lon="1.74187">
        <ele>2386</ele>
        <time>2022-08-14T10:22:11Z</time>
      </trkpt>
      <trkpt lat="42.61784" lon="1.742">
        <ele>2386</ele>
        <time>2022-08-14T10:22:20Z</time>
      </trkpt>
      <trkpt lat="42.61793" lon="1.74207">
        <ele>2386</ele>
        <time>2022-08-14T10:22:32Z</time>
      </trkpt>
      <trkpt lat="42.61799" lon="1.74218">
        <ele>2386</ele>
        <time>2022-08-14T10:22:43Z</time>
      </trkpt>
      <trkpt lat="42.61804" lon="1.7423">
        <ele>2386</ele>
        <time>2022-08-14T10:22:58Z</time>
      </trkpt>
      <trkpt lat="42.6181" lon="1.7424">
        <ele>2386</ele>
        <time>2022-08-14T10:23:11Z</time>
      </trkpt>
      <trkpt lat="42.61814" lon="1.74251">
        <ele>2386</ele>
        <time>2022-08-14T10:23:24Z</time>
      </trkpt>
      <trkpt lat="42.61816" lon="1.74264">
        <ele>2386</ele>
        <time>2022-08-14T10:24:00Z</time>
      </trkpt>
      <trkpt lat="42.61824" lon="1.7427">
        <ele>2386</ele>
        <time>2022-08-14T10:24:10Z</time>
      </trkpt>
      <trkpt lat="42.61828" lon="1.74283">
        <ele>2393</ele>
        <time>2022-08-14T10:24:19Z</time>
      </trkpt>
      <trkpt lat="42.61831" lon="1.74298">
        <ele>2393</ele>
        <time>2022-08-14T10:24:31Z</time>
      </trkpt>
      <trkpt lat="42.61828" lon="1.7431">
        <ele>2393</ele>
        <time>2022-08-14T10:24:42Z</time>
      </trkpt>
      <trkpt lat="42.61828" lon="1.74322">
        <ele>2393</ele>
        <time>2022-08-14T10:24:53Z</time>
      </trkpt>
      <trkpt lat="42.61834" lon="1.74332">
        <ele>2393</ele>
        <time>2022-08-14T10:25:04Z</time>
      </trkpt>
      <trkpt lat="42.61835" lon="1.74345">
        <ele>2393</ele>
        <time>2022-08-14T10:25:18Z</time>
      </trkpt>
      <trkpt lat="42.61833" lon="1.74358">
        <ele>2393</ele>
        <time>2022-08-14T10:25:28Z</time>
      </trkpt>
      <trkpt lat="42.6183" lon="1.7437">
        <ele>2393</ele>
        <time>2022-08-14T10:25:37Z</time>
      </trkpt>
      <trkpt lat="42.61836" lon="1.7438">
        <ele>2393</ele>
        <time>2022-08-14T10:25:52Z</time>
      </trkpt>
      <trkpt lat="42.61839" lon="1.74392">
        <ele>2393</ele>
        <time>2022-08-14T10:26:05Z</time>
      </trkpt>
      <trkpt lat="42.61845" lon="1.74402">
        <ele>2393</ele>
        <time>2022-08-14T10:26:15Z</time>
      </trkpt>
      <trkpt lat="42.61853" lon="1.7441">
        <ele>2393</ele>
        <time>2022-08-14T10:26:24Z</time>
      </trkpt>
      <trkpt lat="42.61855" lon="1.74423">
        <ele>2393</ele>
        <time>2022-08-14T10:26:34Z</time>
      </trkpt>
      <trkpt lat="42.61864" lon="1.74424">
        <ele>2366</ele>
        <time>2022-08-14T10:28:09Z</time>
      </trkpt>
      <trkpt lat="42.61861" lon="1.74437">
        <ele>2366</ele>
        <time>2022-08-14T10:28:26Z</time>
      </trkpt>
      <trkpt lat="42.61862" lon="1.7445">
        <ele>2366</ele>
        <time>2022-08-14T10:28:35Z</time>
      </trkpt>
      <trkpt lat="42.61856" lon="1.7446">
        <ele>2366</ele>
        <time>2022-08-14T10:28:42Z</time>
      </trkpt>
      <trkpt lat="42.61852" lon="1.74471">
        <ele>2366</ele>
        <time>2022-08-14T10:28:50Z</time>
      </trkpt>
      <trkpt lat="42.61845" lon="1.74478">
        <ele>2366</ele>
        <time>2022-08-14T10:29:12Z</time>
      </trkpt>
      <trkpt lat="42.6184" lon="1.74488">
        <ele>2366</ele>
        <time>2022-08-14T10:29:22Z</time>
      </trkpt>
      <trkpt lat="42.61833" lon="1.7448">
        <ele>2366</ele>
        <time>2022-08-14T10:29:42Z</time>
      </trkpt>
      <trkpt lat="42.61838" lon="1.74491">
        <ele>2366</ele>
        <time>2022-08-14T10:29:54Z</time>
      </trkpt>
      <trkpt lat="42.61847" lon="1.74496">
        <ele>2366</ele>
        <time>2022-08-14T10:30:08Z</time>
      </trkpt>
      <trkpt lat="42.61856" lon="1.74495">
        <ele>2366</ele>
        <time>2022-08-14T10:30:20Z</time>
      </trkpt>
      <trkpt lat="42.61851" lon="1.74494">
        <ele>2359</ele>
        <time>2022-08-14T10:31:09Z</time>
      </trkpt>
      <trkpt lat="42.61865" lon="1.74491">
        <ele>2359</ele>
        <time>2022-08-14T10:31:31Z</time>
      </trkpt>
      <trkpt lat="42.61874" lon="1.74492">
        <ele>2354</ele>
        <time>2022-08-14T10:31:49Z</time>
      </trkpt>
      <trkpt lat="42.6188" lon="1.74502">
        <ele>2354</ele>
        <time>2022-08-14T10:32:02Z</time>
      </trkpt>
      <trkpt lat="42.61889" lon="1.74498">
        <ele>2349</ele>
        <time>2022-08-14T10:32:19Z</time>
      </trkpt>
      <trkpt lat="42.61889" lon="1.74485">
        <ele>2348</ele>
        <time>2022-08-14T11:33:45Z</time>
      </trkpt>
      <trkpt lat="42.61894" lon="1.74482">
        <ele>2348</ele>
        <time>2022-08-14T11:33:58Z</time>
      </trkpt>
      <trkpt lat="42.61901" lon="1.74472">
        <ele>2348</ele>
        <time>2022-08-14T11:34:07Z</time>
      </trkpt>
      <trkpt lat="42.61902" lon="1.74459">
        <ele>2348</ele>
        <time>2022-08-14T11:34:19Z</time>
      </trkpt>
      <trkpt lat="42.61903" lon="1.74446">
        <ele>2348</ele>
        <time>2022-08-14T11:34:40Z</time>
      </trkpt>
      <trkpt lat="42.6191" lon="1.74439">
        <ele>2348</ele>
        <time>2022-08-14T11:34:52Z</time>
      </trkpt>
      <trkpt lat="42.61918" lon="1.74447">
        <ele>2348</ele>
        <time>2022-08-14T11:35:07Z</time>
      </trkpt>
      <trkpt lat="42.61924" lon="1.74456">
        <ele>2348</ele>
        <time>2022-08-14T11:35:18Z</time>
      </trkpt>
      <trkpt lat="42.6193" lon="1.74467">
        <ele>2348</ele>
        <time>2022-08-14T11:35:36Z</time>
      </trkpt>
      <trkpt lat="42.61936" lon="1.74477">
        <ele>2348</ele>
        <time>2022-08-14T11:35:47Z</time>
      </trkpt>
      <trkpt lat="42.61942" lon="1.74487">
        <ele>2348</ele>
        <time>2022-08-14T11:36:09Z</time>
      </trkpt>
      <trkpt lat="42.61952" lon="1.74487">
        <ele>2348</ele>
        <time>2022-08-14T11:36:23Z</time>
      </trkpt>
      <trkpt lat="42.61961" lon="1.74492">
        <ele>2348</ele>
        <time>2022-08-14T11:36:33Z</time>
      </trkpt>
      <trkpt lat="42.6197" lon="1.74494">
        <ele>2348</ele>
        <time>2022-08-14T11:36:49Z</time>
      </trkpt>
      <trkpt lat="42.61977" lon="1.74485">
        <ele>2348</ele>
        <time>2022-08-14T11:37:00Z</time>
      </trkpt>
      <trkpt lat="42.61986" lon="1.74486">
        <ele>2348</ele>
        <time>2022-08-14T11:37:08Z</time>
      </trkpt>
      <trkpt lat="42.61994" lon="1.74491">
        <ele>2348</ele>
        <time>2022-08-14T11:37:20Z</time>
      </trkpt>
      <trkpt lat="42.62003" lon="1.74494">
        <ele>2348</ele>
        <time>2022-08-14T11:37:30Z</time>
      </trkpt>
      <trkpt lat="42.62012" lon="1.74497">
        <ele>2348</ele>
        <time>2022-08-14T11:37:39Z</time>
      </trkpt>
      <trkpt lat="42.62017" lon="1.74509">
        <ele>2348</ele>
        <time>2022-08-14T11:37:47Z</time>
      </trkpt>
      <trkpt lat="42.62025" lon="1.74519">
        <ele>2348</ele>
        <time>2022-08-14T11:37:54Z</time>
      </trkpt>
      <trkpt lat="42.62031" lon="1.74528">
        <ele>2348</ele>
        <time>2022-08-14T11:38:02Z</time>
      </trkpt>
      <trkpt lat="42.62039" lon="1.74537">
        <ele>2348</ele>
        <time>2022-08-14T11:38:14Z</time>
      </trkpt>
      <trkpt lat="42.62046" lon="1.74544">
        <ele>2348</ele>
        <time>2022-08-14T11:38:27Z</time>
      </trkpt>
      <trkpt lat="42.62056" lon="1.74547">
        <ele>2348</ele>
        <time>2022-08-14T11:38:37Z</time>
      </trkpt>
      <trkpt lat="42.62065" lon="1.74549">
        <ele>2348</ele>
        <time>2022-08-14T11:38:47Z</time>
      </trkpt>
      <trkpt lat="42.62073" lon="1.74555">
        <ele>2348</ele>
        <time>2022-08-14T11:38:59Z</time>
      </trkpt>
      <trkpt lat="42.62081" lon="1.74561">
        <ele>2348</ele>
        <time>2022-08-14T11:39:07Z</time>
      </trkpt>
      <trkpt lat="42.6209" lon="1.74569">
        <ele>2348</ele>
        <time>2022-08-14T11:39:17Z</time>
      </trkpt>
      <trkpt lat="42.62098" lon="1.74564">
        <ele>2303</ele>
        <time>2022-08-14T11:39:55Z</time>
      </trkpt>
      <trkpt lat="42.62105" lon="1.74554">
        <ele>2303</ele>
        <time>2022-08-14T11:40:07Z</time>
      </trkpt>
      <trkpt lat="42.62113" lon="1.74546">
        <ele>2303</ele>
        <time>2022-08-14T11:40:29Z</time>
      </trkpt>
      <trkpt lat="42.62116" lon="1.74534">
        <ele>2300</ele>
        <time>2022-08-14T11:40:45Z</time>
      </trkpt>
      <trkpt lat="42.62124" lon="1.74527">
        <ele>2300</ele>
        <time>2022-08-14T11:40:56Z</time>
      </trkpt>
      <trkpt lat="42.62127" lon="1.74515">
        <ele>2300</ele>
        <time>2022-08-14T11:41:20Z</time>
      </trkpt>
      <trkpt lat="42.62137" lon="1.74519">
        <ele>2300</ele>
        <time>2022-08-14T11:42:34Z</time>
      </trkpt>
      <trkpt lat="42.62141" lon="1.74504">
        <ele>2300</ele>
        <time>2022-08-14T11:43:46Z</time>
      </trkpt>
      <trkpt lat="42.62138" lon="1.74519">
        <ele>2300</ele>
        <time>2022-08-14T11:43:58Z</time>
      </trkpt>
      <trkpt lat="42.62137" lon="1.74532">
        <ele>2300</ele>
        <time>2022-08-14T11:44:04Z</time>
      </trkpt>
      <trkpt lat="42.62142" lon="1.7452">
        <ele>2300</ele>
        <time>2022-08-14T11:44:30Z</time>
      </trkpt>
      <trkpt lat="42.62148" lon="1.74511">
        <ele>2303</ele>
        <time>2022-08-14T11:44:45Z</time>
      </trkpt>
      <trkpt lat="42.62157" lon="1.74507">
        <ele>2303</ele>
        <time>2022-08-14T11:45:03Z</time>
      </trkpt>
      <trkpt lat="42.62167" lon="1.74509">
        <ele>2303</ele>
        <time>2022-08-14T11:45:43Z</time>
      </trkpt>
      <trkpt lat="42.62176" lon="1.74512">
        <ele>2303</ele>
        <time>2022-08-14T11:45:56Z</time>
      </trkpt>
      <trkpt lat="42.62181" lon="1.74525">
        <ele>2302</ele>
        <time>2022-08-14T11:46:15Z</time>
      </trkpt>
      <trkpt lat="42.62187" lon="1.74535">
        <ele>2302</ele>
        <time>2022-08-14T11:46:47Z</time>
      </trkpt>
      <trkpt lat="42.62195" lon="1.74544">
        <ele>2302</ele>
        <time>2022-08-14T11:46:58Z</time>
      </trkpt>
      <trkpt lat="42.62203" lon="1.74551">
        <ele>2302</ele>
        <time>2022-08-14T11:47:08Z</time>
      </trkpt>
      <trkpt lat="42.6221" lon="1.7456">
        <ele>2302</ele>
        <time>2022-08-14T11:47:30Z</time>
      </trkpt>
      <trkpt lat="42.62215" lon="1.7457">
        <ele>2302</ele>
        <time>2022-08-14T11:47:41Z</time>
      </trkpt>
      <trkpt lat="42.62221" lon="1.74579">
        <ele>2302</ele>
        <time>2022-08-14T11:47:59Z</time>
      </trkpt>
      <trkpt lat="42.62222" lon="1.74592">
        <ele>2302</ele>
        <time>2022-08-14T11:48:09Z</time>
      </trkpt>
      <trkpt lat="42.62225" lon="1.74604">
        <ele>2302</ele>
        <time>2022-08-14T11:48:35Z</time>
      </trkpt>
      <trkpt lat="42.62232" lon="1.74613">
        <ele>2302</ele>
        <time>2022-08-14T11:48:46Z</time>
      </trkpt>
      <trkpt lat="42.62235" lon="1.74625">
        <ele>2302</ele>
        <time>2022-08-14T11:49:00Z</time>
      </trkpt>
      <trkpt lat="42.62245" lon="1.74623">
        <ele>2302</ele>
        <time>2022-08-14T11:49:38Z</time>
      </trkpt>
      <trkpt lat="42.62253" lon="1.74627">
        <ele>2302</ele>
        <time>2022-08-14T11:50:00Z</time>
      </trkpt>
      <trkpt lat="42.62261" lon="1.74634">
        <ele>2302</ele>
        <time>2022-08-14T11:50:48Z</time>
      </trkpt>
      <trkpt lat="42.6227" lon="1.7464">
        <ele>2302</ele>
        <time>2022-08-14T11:50:59Z</time>
      </trkpt>
      <trkpt lat="42.62279" lon="1.74643">
        <ele>2300</ele>
        <time>2022-08-14T11:51:15Z</time>
      </trkpt>
      <trkpt lat="42.62286" lon="1.74651">
        <ele>2300</ele>
        <time>2022-08-14T11:51:36Z</time>
      </trkpt>
      <trkpt lat="42.62289" lon="1.74664">
        <ele>2300</ele>
        <time>2022-08-14T11:51:51Z</time>
      </trkpt>
      <trkpt lat="42.62297" lon="1.74671">
        <ele>2300</ele>
        <time>2022-08-14T11:52:12Z</time>
      </trkpt>
      <trkpt lat="42.62289" lon="1.74677">
        <ele>2296</ele>
        <time>2022-08-14T11:52:35Z</time>
      </trkpt>
      <trkpt lat="42.62298" lon="1.74675">
        <ele>2296</ele>
        <time>2022-08-14T11:53:32Z</time>
      </trkpt>
      <trkpt lat="42.62292" lon="1.74685">
        <ele>2296</ele>
        <time>2022-08-14T11:53:42Z</time>
      </trkpt>
      <trkpt lat="42.6229" lon="1.74698">
        <ele>2296</ele>
        <time>2022-08-14T11:53:54Z</time>
      </trkpt>
      <trkpt lat="42.62301" lon="1.74703">
        <ele>2296</ele>
        <time>2022-08-14T11:54:30Z</time>
      </trkpt>
      <trkpt lat="42.6231" lon="1.74708">
        <ele>2296</ele>
        <time>2022-08-14T11:54:40Z</time>
      </trkpt>
      <trkpt lat="42.62307" lon="1.7472">
        <ele>2296</ele>
        <time>2022-08-14T11:54:50Z</time>
      </trkpt>
      <trkpt lat="42.62312" lon="1.7473">
        <ele>2296</ele>
        <time>2022-08-14T11:55:19Z</time>
      </trkpt>
      <trkpt lat="42.62317" lon="1.7474">
        <ele>2296</ele>
        <time>2022-08-14T11:55:27Z</time>
      </trkpt>
      <trkpt lat="42.6232" lon="1.74752">
        <ele>2296</ele>
        <time>2022-08-14T11:55:41Z</time>
      </trkpt>
      <trkpt lat="42.62318" lon="1.74765">
        <ele>2296</ele>
        <time>2022-08-14T11:55:53Z</time>
      </trkpt>
      <trkpt lat="42.62317" lon="1.74778">
        <ele>2296</ele>
        <time>2022-08-14T11:56:04Z</time>
      </trkpt>
      <trkpt lat="42.62311" lon="1.74789">
        <ele>2296</ele>
        <time>2022-08-14T11:56:17Z</time>
      </trkpt>
      <trkpt lat="42.62312" lon="1.74802">
        <ele>2296</ele>
        <time>2022-08-14T11:56:59Z</time>
      </trkpt>
      <trkpt lat="42.6231" lon="1.74815">
        <ele>2296</ele>
        <time>2022-08-14T11:57:08Z</time>
      </trkpt>
      <trkpt lat="42.62312" lon="1.74827">
        <ele>2296</ele>
        <time>2022-08-14T11:57:17Z</time>
      </trkpt>
      <trkpt lat="42.62319" lon="1.74837">
        <ele>2296</ele>
        <time>2022-08-14T11:57:26Z</time>
      </trkpt>
      <trkpt lat="42.62328" lon="1.74843">
        <ele>2296</ele>
        <time>2022-08-14T11:57:33Z</time>
      </trkpt>
      <trkpt lat="42.62331" lon="1.74855">
        <ele>2296</ele>
        <time>2022-08-14T11:57:49Z</time>
      </trkpt>
      <trkpt lat="42.62335" lon="1.74867">
        <ele>2296</ele>
        <time>2022-08-14T11:58:00Z</time>
      </trkpt>
      <trkpt lat="42.62345" lon="1.74871">
        <ele>2296</ele>
        <time>2022-08-14T11:58:28Z</time>
      </trkpt>
      <trkpt lat="42.62354" lon="1.74874">
        <ele>2296</ele>
        <time>2022-08-14T11:58:38Z</time>
      </trkpt>
      <trkpt lat="42.62362" lon="1.74882">
        <ele>2296</ele>
        <time>2022-08-14T11:58:46Z</time>
      </trkpt>
      <trkpt lat="42.62367" lon="1.74893">
        <ele>2296</ele>
        <time>2022-08-14T11:58:56Z</time>
      </trkpt>
      <trkpt lat="42.62376" lon="1.74893">
        <ele>2296</ele>
        <time>2022-08-14T11:59:06Z</time>
      </trkpt>
      <trkpt lat="42.62373" lon="1.74904">
        <ele>2296</ele>
        <time>2022-08-14T11:59:49Z</time>
      </trkpt>
      <trkpt lat="42.62367" lon="1.74915">
        <ele>2296</ele>
        <time>2022-08-14T12:00:42Z</time>
      </trkpt>
      <trkpt lat="42.62362" lon="1.74926">
        <ele>2296</ele>
        <time>2022-08-14T12:00:58Z</time>
      </trkpt>
      <trkpt lat="42.62371" lon="1.7492">
        <ele>2296</ele>
        <time>2022-08-14T12:01:22Z</time>
      </trkpt>
      <trkpt lat="42.62367" lon="1.74932">
        <ele>2296</ele>
        <time>2022-08-14T12:01:47Z</time>
      </trkpt>
      <trkpt lat="42.6236" lon="1.7494">
        <ele>2296</ele>
        <time>2022-08-14T12:01:57Z</time>
      </trkpt>
      <trkpt lat="42.62359" lon="1.74953">
        <ele>2296</ele>
        <time>2022-08-14T12:02:10Z</time>
      </trkpt>
      <trkpt lat="42.62353" lon="1.74962">
        <ele>2296</ele>
        <time>2022-08-14T12:02:16Z</time>
      </trkpt>
      <trkpt lat="42.62352" lon="1.74974">
        <ele>2294</ele>
        <time>2022-08-14T12:02:25Z</time>
      </trkpt>
      <trkpt lat="42.62352" lon="1.74988">
        <ele>2294</ele>
        <time>2022-08-14T12:02:34Z</time>
      </trkpt>
      <trkpt lat="42.62355" lon="1.75">
        <ele>2294</ele>
        <time>2022-08-14T12:02:43Z</time>
      </trkpt>
      <trkpt lat="42.62355" lon="1.75012">
        <ele>2294</ele>
        <time>2022-08-14T12:03:16Z</time>
      </trkpt>
      <trkpt lat="42.62363" lon="1.75019">
        <ele>2294</ele>
        <time>2022-08-14T12:03:28Z</time>
      </trkpt>
      <trkpt lat="42.62364" lon="1.75032">
        <ele>2287</ele>
        <time>2022-08-14T12:03:55Z</time>
      </trkpt>
      <trkpt lat="42.62371" lon="1.7504">
        <ele>2287</ele>
        <time>2022-08-14T12:04:16Z</time>
      </trkpt>
      <trkpt lat="42.62375" lon="1.75051">
        <ele>2287</ele>
        <time>2022-08-14T12:04:26Z</time>
      </trkpt>
      <trkpt lat="42.62376" lon="1.75063">
        <ele>2287</ele>
        <time>2022-08-14T12:04:36Z</time>
      </trkpt>
      <trkpt lat="42.62383" lon="1.75072">
        <ele>2287</ele>
        <time>2022-08-14T12:05:33Z</time>
      </trkpt>
      <trkpt lat="42.62393" lon="1.75069">
        <ele>2287</ele>
        <time>2022-08-14T12:05:38Z</time>
      </trkpt>
      <trkpt lat="42.62402" lon="1.75064">
        <ele>2287</ele>
        <time>2022-08-14T12:05:44Z</time>
      </trkpt>
      <trkpt lat="42.62398" lon="1.75076">
        <ele>2287</ele>
        <time>2022-08-14T12:05:50Z</time>
      </trkpt>
      <trkpt lat="42.62388" lon="1.75074">
        <ele>2272</ele>
        <time>2022-08-14T12:06:05Z</time>
      </trkpt>
      <trkpt lat="42.6238" lon="1.7508">
        <ele>2272</ele>
        <time>2022-08-14T12:06:14Z</time>
      </trkpt>
      <trkpt lat="42.62389" lon="1.75084">
        <ele>2272</ele>
        <time>2022-08-14T12:07:01Z</time>
      </trkpt>
      <trkpt lat="42.62385" lon="1.75097">
        <ele>2272</ele>
        <time>2022-08-14T12:07:59Z</time>
      </trkpt>
      <trkpt lat="42.62376" lon="1.751">
        <ele>2272</ele>
        <time>2022-08-14T12:08:10Z</time>
      </trkpt>
      <trkpt lat="42.62371" lon="1.75089">
        <ele>2272</ele>
        <time>2022-08-14T12:08:17Z</time>
      </trkpt>
      <trkpt lat="42.62375" lon="1.751">
        <ele>2272</ele>
        <time>2022-08-14T12:08:43Z</time>
      </trkpt>
      <trkpt lat="42.62367" lon="1.75109">
        <ele>2272</ele>
        <time>2022-08-14T12:08:53Z</time>
      </trkpt>
      <trkpt lat="42.62359" lon="1.75116">
        <ele>2272</ele>
        <time>2022-08-14T12:09:06Z</time>
      </trkpt>
      <trkpt lat="42.62352" lon="1.75123">
        <ele>2253</ele>
        <time>2022-08-14T12:09:25Z</time>
      </trkpt>
      <trkpt lat="42.62347" lon="1.75134">
        <ele>2253</ele>
        <time>2022-08-14T12:09:37Z</time>
      </trkpt>
      <trkpt lat="42.62341" lon="1.75144">
        <ele>2253</ele>
        <time>2022-08-14T12:09:57Z</time>
      </trkpt>
      <trkpt lat="42.62333" lon="1.75151">
        <ele>2253</ele>
        <time>2022-08-14T12:10:10Z</time>
      </trkpt>
      <trkpt lat="42.62325" lon="1.75158">
        <ele>2253</ele>
        <time>2022-08-14T12:10:24Z</time>
      </trkpt>
      <trkpt lat="42.62315" lon="1.75158">
        <ele>2253</ele>
        <time>2022-08-14T12:11:27Z</time>
      </trkpt>
      <trkpt lat="42.62301" lon="1.75159">
        <ele>2235</ele>
        <time>2022-08-14T12:11:35Z</time>
      </trkpt>
      <trkpt lat="42.62309" lon="1.75169">
        <ele>2235</ele>
        <time>2022-08-14T12:11:46Z</time>
      </trkpt>
      <trkpt lat="42.6232" lon="1.75174">
        <ele>2235</ele>
        <time>2022-08-14T12:11:51Z</time>
      </trkpt>
      <trkpt lat="42.62329" lon="1.7518">
        <ele>2235</ele>
        <time>2022-08-14T12:11:57Z</time>
      </trkpt>
      <trkpt lat="42.62337" lon="1.75186">
        <ele>2235</ele>
        <time>2022-08-14T12:12:07Z</time>
      </trkpt>
      <trkpt lat="42.62346" lon="1.75182">
        <ele>2235</ele>
        <time>2022-08-14T12:12:21Z</time>
      </trkpt>
      <trkpt lat="42.62347" lon="1.75194">
        <ele>2235</ele>
        <time>2022-08-14T12:13:00Z</time>
      </trkpt>
      <trkpt lat="42.62357" lon="1.75197">
        <ele>2235</ele>
        <time>2022-08-14T12:13:16Z</time>
      </trkpt>
      <trkpt lat="42.62361" lon="1.75208">
        <ele>2235</ele>
        <time>2022-08-14T12:13:25Z</time>
      </trkpt>
      <trkpt lat="42.62356" lon="1.75218">
        <ele>2234</ele>
        <time>2022-08-14T12:13:45Z</time>
      </trkpt>
      <trkpt lat="42.62362" lon="1.75227">
        <ele>2234</ele>
        <time>2022-08-14T12:14:04Z</time>
      </trkpt>
      <trkpt lat="42.62366" lon="1.75238">
        <ele>2234</ele>
        <time>2022-08-14T12:14:31Z</time>
      </trkpt>
      <trkpt lat="42.6236" lon="1.75249">
        <ele>2234</ele>
        <time>2022-08-14T12:14:51Z</time>
      </trkpt>
      <trkpt lat="42.62348" lon="1.75246">
        <ele>2234</ele>
        <time>2022-08-14T12:15:19Z</time>
      </trkpt>
      <trkpt lat="42.62357" lon="1.75253">
        <ele>2234</ele>
        <time>2022-08-14T12:15:33Z</time>
      </trkpt>
      <trkpt lat="42.62362" lon="1.75266">
        <ele>2234</ele>
        <time>2022-08-14T12:15:42Z</time>
      </trkpt>
      <trkpt lat="42.62355" lon="1.75274">
        <ele>2234</ele>
        <time>2022-08-14T12:16:19Z</time>
      </trkpt>
      <trkpt lat="42.62358" lon="1.75286">
        <ele>2234</ele>
        <time>2022-08-14T12:16:34Z</time>
      </trkpt>
      <trkpt lat="42.62361" lon="1.75299">
        <ele>2234</ele>
        <time>2022-08-14T12:16:46Z</time>
      </trkpt>
      <trkpt lat="42.62369" lon="1.75324">
        <ele>2234</ele>
        <time>2022-08-14T12:17:16Z</time>
      </trkpt>
      <trkpt lat="42.62407" lon="1.75368">
        <ele>2234</ele>
        <time>2022-08-14T12:18:12Z</time>
      </trkpt>
      <trkpt lat="42.62432" lon="1.7538">
        <ele>2234</ele>
        <time>2022-08-14T12:18:18Z</time>
      </trkpt>
      <trkpt lat="42.62415" lon="1.75406">
        <ele>2232</ele>
        <time>2022-08-14T12:27:46Z</time>
      </trkpt>
      <trkpt lat="42.62416" lon="1.75425">
        <ele>2232</ele>
        <time>2022-08-14T12:27:58Z</time>
      </trkpt>
      <trkpt lat="42.62434" lon="1.75439">
        <ele>2232</ele>
        <time>2022-08-14T12:28:05Z</time>
      </trkpt>
      <trkpt lat="42.62446" lon="1.75445">
        <ele>2232</ele>
        <time>2022-08-14T12:28:06Z</time>
      </trkpt>
      <trkpt lat="42.62455" lon="1.75451">
        <ele>2232</ele>
        <time>2022-08-14T12:28:07Z</time>
      </trkpt>
      <trkpt lat="42.62445" lon="1.7545">
        <ele>2232</ele>
        <time>2022-08-14T12:28:14Z</time>
      </trkpt>
      <trkpt lat="42.62435" lon="1.75451">
        <ele>2232</ele>
        <time>2022-08-14T12:28:23Z</time>
      </trkpt>
      <trkpt lat="42.62434" lon="1.75463">
        <ele>2232</ele>
        <time>2022-08-14T12:28:38Z</time>
      </trkpt>
      <trkpt lat="42.62435" lon="1.75477">
        <ele>2232</ele>
        <time>2022-08-14T12:28:53Z</time>
      </trkpt>
      <trkpt lat="42.62435" lon="1.7549">
        <ele>2232</ele>
        <time>2022-08-14T12:29:03Z</time>
      </trkpt>
      <trkpt lat="42.62425" lon="1.75495">
        <ele>2232</ele>
        <time>2022-08-14T12:29:16Z</time>
      </trkpt>
      <trkpt lat="42.62422" lon="1.75507">
        <ele>2232</ele>
        <time>2022-08-14T12:29:39Z</time>
      </trkpt>
      <trkpt lat="42.6242" lon="1.7552">
        <ele>2232</ele>
        <time>2022-08-14T12:29:53Z</time>
      </trkpt>
      <trkpt lat="42.62414" lon="1.75531">
        <ele>2232</ele>
        <time>2022-08-14T12:30:18Z</time>
      </trkpt>
      <trkpt lat="42.62416" lon="1.75544">
        <ele>2232</ele>
        <time>2022-08-14T12:30:25Z</time>
      </trkpt>
      <trkpt lat="42.62408" lon="1.75552">
        <ele>2232</ele>
        <time>2022-08-14T12:30:33Z</time>
      </trkpt>
      <trkpt lat="42.62404" lon="1.75564">
        <ele>2232</ele>
        <time>2022-08-14T12:30:47Z</time>
      </trkpt>
      <trkpt lat="42.62406" lon="1.75577">
        <ele>2232</ele>
        <time>2022-08-14T12:31:00Z</time>
      </trkpt>
      <trkpt lat="42.62399" lon="1.75587">
        <ele>2242</ele>
        <time>2022-08-14T12:31:12Z</time>
      </trkpt>
      <trkpt lat="42.62395" lon="1.75598">
        <ele>2244</ele>
        <time>2022-08-14T12:31:22Z</time>
      </trkpt>
      <trkpt lat="42.6239" lon="1.75608">
        <ele>2244</ele>
        <time>2022-08-14T12:31:56Z</time>
      </trkpt>
      <trkpt lat="42.6238" lon="1.7561">
        <ele>2244</ele>
        <time>2022-08-14T12:32:03Z</time>
      </trkpt>
      <trkpt lat="42.6237" lon="1.7561">
        <ele>2244</ele>
        <time>2022-08-14T12:32:14Z</time>
      </trkpt>
      <trkpt lat="42.6237" lon="1.75623">
        <ele>2244</ele>
        <time>2022-08-14T12:32:27Z</time>
      </trkpt>
      <trkpt lat="42.62369" lon="1.75637">
        <ele>2239</ele>
        <time>2022-08-14T12:32:42Z</time>
      </trkpt>
      <trkpt lat="42.62366" lon="1.75649">
        <ele>2239</ele>
        <time>2022-08-14T12:32:55Z</time>
      </trkpt>
      <trkpt lat="42.62369" lon="1.75661">
        <ele>2239</ele>
        <time>2022-08-14T12:33:05Z</time>
      </trkpt>
      <trkpt lat="42.62361" lon="1.7567">
        <ele>2239</ele>
        <time>2022-08-14T12:33:14Z</time>
      </trkpt>
      <trkpt lat="42.62353" lon="1.75676">
        <ele>2239</ele>
        <time>2022-08-14T12:33:27Z</time>
      </trkpt>
      <trkpt lat="42.62345" lon="1.75682">
        <ele>2239</ele>
        <time>2022-08-14T12:33:40Z</time>
      </trkpt>
      <trkpt lat="42.6234" lon="1.75694">
        <ele>2239</ele>
        <time>2022-08-14T12:33:51Z</time>
      </trkpt>
      <trkpt lat="42.62341" lon="1.75706">
        <ele>2239</ele>
        <time>2022-08-14T12:34:00Z</time>
      </trkpt>
      <trkpt lat="42.62341" lon="1.7572">
        <ele>2234</ele>
        <time>2022-08-14T12:34:22Z</time>
      </trkpt>
      <trkpt lat="42.62331" lon="1.75724">
        <ele>2235</ele>
        <time>2022-08-14T12:35:22Z</time>
      </trkpt>
      <trkpt lat="42.6233" lon="1.75738">
        <ele>2235</ele>
        <time>2022-08-14T12:35:31Z</time>
      </trkpt>
      <trkpt lat="42.62322" lon="1.75744">
        <ele>2234</ele>
        <time>2022-08-14T12:35:52Z</time>
      </trkpt>
      <trkpt lat="42.62324" lon="1.75756">
        <ele>2234</ele>
        <time>2022-08-14T12:36:09Z</time>
      </trkpt>
      <trkpt lat="42.62319" lon="1.75766">
        <ele>2234</ele>
        <time>2022-08-14T12:36:20Z</time>
      </trkpt>
      <trkpt lat="42.62312" lon="1.75775">
        <ele>2234</ele>
        <time>2022-08-14T12:36:27Z</time>
      </trkpt>
      <trkpt lat="42.62302" lon="1.75781">
        <ele>2234</ele>
        <time>2022-08-14T12:36:38Z</time>
      </trkpt>
      <trkpt lat="42.62288" lon="1.7578">
        <ele>2234</ele>
        <time>2022-08-14T12:36:40Z</time>
      </trkpt>
      <trkpt lat="42.6228" lon="1.75786">
        <ele>2234</ele>
        <time>2022-08-14T12:36:46Z</time>
      </trkpt>
      <trkpt lat="42.62276" lon="1.75797">
        <ele>2234</ele>
        <time>2022-08-14T12:36:56Z</time>
      </trkpt>
      <trkpt lat="42.62273" lon="1.7581">
        <ele>2234</ele>
        <time>2022-08-14T12:37:13Z</time>
      </trkpt>
      <trkpt lat="42.62264" lon="1.75804">
        <ele>2234</ele>
        <time>2022-08-14T12:37:33Z</time>
      </trkpt>
      <trkpt lat="42.62264" lon="1.75817">
        <ele>2235</ele>
        <time>2022-08-14T12:37:52Z</time>
      </trkpt>
      <trkpt lat="42.62258" lon="1.75829">
        <ele>2235</ele>
        <time>2022-08-14T12:38:04Z</time>
      </trkpt>
      <trkpt lat="42.62263" lon="1.75818">
        <ele>2235</ele>
        <time>2022-08-14T12:38:10Z</time>
      </trkpt>
      <trkpt lat="42.62249" lon="1.75805">
        <ele>2235</ele>
        <time>2022-08-14T12:38:17Z</time>
      </trkpt>
      <trkpt lat="42.62241" lon="1.7581">
        <ele>2235</ele>
        <time>2022-08-14T12:38:20Z</time>
      </trkpt>
      <trkpt lat="42.62251" lon="1.75811">
        <ele>2238</ele>
        <time>2022-08-14T12:38:42Z</time>
      </trkpt>
      <trkpt lat="42.62261" lon="1.75815">
        <ele>2238</ele>
        <time>2022-08-14T12:38:51Z</time>
      </trkpt>
      <trkpt lat="42.6225" lon="1.75812">
        <ele>2238</ele>
        <time>2022-08-14T12:39:08Z</time>
      </trkpt>
      <trkpt lat="42.62258" lon="1.75817">
        <ele>2238</ele>
        <time>2022-08-14T12:39:33Z</time>
      </trkpt>
      <trkpt lat="42.62266" lon="1.75823">
        <ele>2238</ele>
        <time>2022-08-14T12:40:16Z</time>
      </trkpt>
      <trkpt lat="42.62257" lon="1.75818">
        <ele>2238</ele>
        <time>2022-08-14T12:40:46Z</time>
      </trkpt>
      <trkpt lat="42.62265" lon="1.75825">
        <ele>2238</ele>
        <time>2022-08-14T12:42:38Z</time>
      </trkpt>
      <trkpt lat="42.62257" lon="1.75819">
        <ele>2238</ele>
        <time>2022-08-14T12:43:19Z</time>
      </trkpt>
      <trkpt lat="42.62248" lon="1.7581">
        <ele>2238</ele>
        <time>2022-08-14T12:43:24Z</time>
      </trkpt>
      <trkpt lat="42.62257" lon="1.75819">
        <ele>2238</ele>
        <time>2022-08-14T12:43:47Z</time>
      </trkpt>
      <trkpt lat="42.62249" lon="1.75829">
        <ele>2238</ele>
        <time>2022-08-14T12:44:05Z</time>
      </trkpt>
      <trkpt lat="42.62237" lon="1.75823">
        <ele>2238</ele>
        <time>2022-08-14T12:44:08Z</time>
      </trkpt>
      <trkpt lat="42.62227" lon="1.75827">
        <ele>2238</ele>
        <time>2022-08-14T12:44:13Z</time>
      </trkpt>
      <trkpt lat="42.62216" lon="1.75821">
        <ele>2238</ele>
        <time>2022-08-14T12:44:15Z</time>
      </trkpt>
      <trkpt lat="42.62219" lon="1.75834">
        <ele>2236</ele>
        <time>2022-08-14T12:44:22Z</time>
      </trkpt>
      <trkpt lat="42.62223" lon="1.75846">
        <ele>2236</ele>
        <time>2022-08-14T12:44:27Z</time>
      </trkpt>
      <trkpt lat="42.62228" lon="1.75858">
        <ele>2236</ele>
        <time>2022-08-14T12:44:36Z</time>
      </trkpt>
      <trkpt lat="42.62223" lon="1.7587">
        <ele>2236</ele>
        <time>2022-08-14T12:44:46Z</time>
      </trkpt>
      <trkpt lat="42.62224" lon="1.75883">
        <ele>2236</ele>
        <time>2022-08-14T12:44:56Z</time>
      </trkpt>
      <trkpt lat="42.6222" lon="1.75895">
        <ele>2236</ele>
        <time>2022-08-14T12:45:10Z</time>
      </trkpt>
      <trkpt lat="42.62221" lon="1.75907">
        <ele>2236</ele>
        <time>2022-08-14T12:45:18Z</time>
      </trkpt>
      <trkpt lat="42.6222" lon="1.75919">
        <ele>2236</ele>
        <time>2022-08-14T12:45:26Z</time>
      </trkpt>
      <trkpt lat="42.62217" lon="1.75932">
        <ele>2236</ele>
        <time>2022-08-14T12:45:35Z</time>
      </trkpt>
      <trkpt lat="42.62207" lon="1.75936">
        <ele>2236</ele>
        <time>2022-08-14T12:45:40Z</time>
      </trkpt>
      <trkpt lat="42.62203" lon="1.75953">
        <ele>2236</ele>
        <time>2022-08-14T12:45:49Z</time>
      </trkpt>
      <trkpt lat="42.62201" lon="1.75965">
        <ele>2236</ele>
        <time>2022-08-14T12:45:57Z</time>
      </trkpt>
      <trkpt lat="42.62195" lon="1.75975">
        <ele>2236</ele>
        <time>2022-08-14T12:46:07Z</time>
      </trkpt>
      <trkpt lat="42.62189" lon="1.75985">
        <ele>2236</ele>
        <time>2022-08-14T12:46:17Z</time>
      </trkpt>
      <trkpt lat="42.62183" lon="1.75996">
        <ele>2236</ele>
        <time>2022-08-14T12:46:25Z</time>
      </trkpt>
      <trkpt lat="42.62179" lon="1.76008">
        <ele>2236</ele>
        <time>2022-08-14T12:46:36Z</time>
      </trkpt>
      <trkpt lat="42.62177" lon="1.7602">
        <ele>2236</ele>
        <time>2022-08-14T12:46:44Z</time>
      </trkpt>
      <trkpt lat="42.62172" lon="1.76031">
        <ele>2236</ele>
        <time>2022-08-14T12:46:54Z</time>
      </trkpt>
      <trkpt lat="42.62168" lon="1.76042">
        <ele>2236</ele>
        <time>2022-08-14T12:47:04Z</time>
      </trkpt>
      <trkpt lat="42.62165" lon="1.76055">
        <ele>2236</ele>
        <time>2022-08-14T12:47:13Z</time>
      </trkpt>
      <trkpt lat="42.62163" lon="1.76066">
        <ele>2236</ele>
        <time>2022-08-14T12:47:26Z</time>
      </trkpt>
      <trkpt lat="42.6216" lon="1.76079">
        <ele>2236</ele>
        <time>2022-08-14T12:47:36Z</time>
      </trkpt>
      <trkpt lat="42.62157" lon="1.76091">
        <ele>2236</ele>
        <time>2022-08-14T12:47:48Z</time>
      </trkpt>
      <trkpt lat="42.62153" lon="1.76103">
        <ele>2236</ele>
        <time>2022-08-14T12:47:56Z</time>
      </trkpt>
      <trkpt lat="42.62154" lon="1.76116">
        <ele>2236</ele>
        <time>2022-08-14T12:48:13Z</time>
      </trkpt>
      <trkpt lat="42.6215" lon="1.76128">
        <ele>2236</ele>
        <time>2022-08-14T12:48:23Z</time>
      </trkpt>
      <trkpt lat="42.62143" lon="1.76137">
        <ele>2236</ele>
        <time>2022-08-14T12:48:40Z</time>
      </trkpt>
      <trkpt lat="42.6215" lon="1.7615">
        <ele>2236</ele>
        <time>2022-08-14T12:49:13Z</time>
      </trkpt>
      <trkpt lat="42.62145" lon="1.76136">
        <ele>2236</ele>
        <time>2022-08-14T12:49:46Z</time>
      </trkpt>
      <trkpt lat="42.62154" lon="1.76132">
        <ele>2235</ele>
        <time>2022-08-14T12:50:12Z</time>
      </trkpt>
      <trkpt lat="42.62151" lon="1.76144">
        <ele>2235</ele>
        <time>2022-08-14T12:52:06Z</time>
      </trkpt>
      <trkpt lat="42.62147" lon="1.76156">
        <ele>2235</ele>
        <time>2022-08-14T12:52:20Z</time>
      </trkpt>
      <trkpt lat="42.62152" lon="1.76166">
        <ele>2235</ele>
        <time>2022-08-14T12:52:55Z</time>
      </trkpt>
      <trkpt lat="42.62152" lon="1.7618">
        <ele>2235</ele>
        <time>2022-08-14T12:53:07Z</time>
      </trkpt>
      <trkpt lat="42.62142" lon="1.76178">
        <ele>2235</ele>
        <time>2022-08-14T12:53:12Z</time>
      </trkpt>
      <trkpt lat="42.62135" lon="1.76185">
        <ele>2235</ele>
        <time>2022-08-14T12:53:20Z</time>
      </trkpt>
      <trkpt lat="42.62129" lon="1.76195">
        <ele>2235</ele>
        <time>2022-08-14T12:53:27Z</time>
      </trkpt>
      <trkpt lat="42.62129" lon="1.76208">
        <ele>2235</ele>
        <time>2022-08-14T12:53:38Z</time>
      </trkpt>
      <trkpt lat="42.6213" lon="1.7622">
        <ele>2235</ele>
        <time>2022-08-14T12:53:51Z</time>
      </trkpt>
      <trkpt lat="42.62127" lon="1.76232">
        <ele>2235</ele>
        <time>2022-08-14T12:53:59Z</time>
      </trkpt>
      <trkpt lat="42.62128" lon="1.76247">
        <ele>2235</ele>
        <time>2022-08-14T12:54:07Z</time>
      </trkpt>
      <trkpt lat="42.62119" lon="1.76254">
        <ele>2235</ele>
        <time>2022-08-14T12:54:24Z</time>
      </trkpt>
      <trkpt lat="42.62115" lon="1.76266">
        <ele>2235</ele>
        <time>2022-08-14T12:54:37Z</time>
      </trkpt>
      <trkpt lat="42.62107" lon="1.76273">
        <ele>2235</ele>
        <time>2022-08-14T12:54:48Z</time>
      </trkpt>
      <trkpt lat="42.62109" lon="1.76286">
        <ele>2235</ele>
        <time>2022-08-14T12:55:00Z</time>
      </trkpt>
      <trkpt lat="42.621" lon="1.76289">
        <ele>2235</ele>
        <time>2022-08-14T12:55:19Z</time>
      </trkpt>
      <trkpt lat="42.62101" lon="1.76302">
        <ele>2217</ele>
        <time>2022-08-14T12:55:32Z</time>
      </trkpt>
      <trkpt lat="42.62099" lon="1.76314">
        <ele>2217</ele>
        <time>2022-08-14T12:55:53Z</time>
      </trkpt>
      <trkpt lat="42.62098" lon="1.76327">
        <ele>2217</ele>
        <time>2022-08-14T12:56:08Z</time>
      </trkpt>
      <trkpt lat="42.62097" lon="1.76339">
        <ele>2217</ele>
        <time>2022-08-14T12:56:17Z</time>
      </trkpt>
      <trkpt lat="42.62095" lon="1.76352">
        <ele>2217</ele>
        <time>2022-08-14T12:56:28Z</time>
      </trkpt>
      <trkpt lat="42.62098" lon="1.76364">
        <ele>2217</ele>
        <time>2022-08-14T12:56:48Z</time>
      </trkpt>
      <trkpt lat="42.621" lon="1.76376">
        <ele>2217</ele>
        <time>2022-08-14T12:57:01Z</time>
      </trkpt>
      <trkpt lat="42.621" lon="1.7639">
        <ele>2203</ele>
        <time>2022-08-14T12:57:12Z</time>
      </trkpt>
      <trkpt lat="42.62099" lon="1.76404">
        <ele>2203</ele>
        <time>2022-08-14T12:57:22Z</time>
      </trkpt>
      <trkpt lat="42.62101" lon="1.76417">
        <ele>2203</ele>
        <time>2022-08-14T12:57:31Z</time>
      </trkpt>
      <trkpt lat="42.62105" lon="1.76428">
        <ele>2203</ele>
        <time>2022-08-14T12:57:40Z</time>
      </trkpt>
      <trkpt lat="42.62111" lon="1.76438">
        <ele>2203</ele>
        <time>2022-08-14T12:57:53Z</time>
      </trkpt>
      <trkpt lat="42.62105" lon="1.76429">
        <ele>2203</ele>
        <time>2022-08-14T12:58:14Z</time>
      </trkpt>
      <trkpt lat="42.62104" lon="1.76444">
        <ele>2203</ele>
        <time>2022-08-14T12:58:23Z</time>
      </trkpt>
      <trkpt lat="42.621" lon="1.76457">
        <ele>2203</ele>
        <time>2022-08-14T12:58:31Z</time>
      </trkpt>
      <trkpt lat="42.62103" lon="1.7647">
        <ele>2203</ele>
        <time>2022-08-14T12:58:41Z</time>
      </trkpt>
      <trkpt lat="42.62102" lon="1.76482">
        <ele>2203</ele>
        <time>2022-08-14T12:58:49Z</time>
      </trkpt>
      <trkpt lat="42.62103" lon="1.76495">
        <ele>2203</ele>
        <time>2022-08-14T12:59:00Z</time>
      </trkpt>
      <trkpt lat="42.62094" lon="1.76502">
        <ele>2203</ele>
        <time>2022-08-14T12:59:11Z</time>
      </trkpt>
      <trkpt lat="42.62093" lon="1.76515">
        <ele>2203</ele>
        <time>2022-08-14T12:59:26Z</time>
      </trkpt>
      <trkpt lat="42.62086" lon="1.76523">
        <ele>2203</ele>
        <time>2022-08-14T12:59:38Z</time>
      </trkpt>
      <trkpt lat="42.62086" lon="1.76536">
        <ele>2203</ele>
        <time>2022-08-14T12:59:59Z</time>
      </trkpt>
      <trkpt lat="42.62089" lon="1.76548">
        <ele>2203</ele>
        <time>2022-08-14T13:00:17Z</time>
      </trkpt>
      <trkpt lat="42.62085" lon="1.76559">
        <ele>2203</ele>
        <time>2022-08-14T13:00:36Z</time>
      </trkpt>
      <trkpt lat="42.6208" lon="1.7657">
        <ele>2203</ele>
        <time>2022-08-14T13:00:57Z</time>
      </trkpt>
      <trkpt lat="42.6208" lon="1.76582">
        <ele>2203</ele>
        <time>2022-08-14T13:01:16Z</time>
      </trkpt>
      <trkpt lat="42.62088" lon="1.7659">
        <ele>2160</ele>
        <time>2022-08-14T13:01:32Z</time>
      </trkpt>
      <trkpt lat="42.62085" lon="1.76603">
        <ele>2160</ele>
        <time>2022-08-14T13:01:57Z</time>
      </trkpt>
      <trkpt lat="42.62093" lon="1.76608">
        <ele>2160</ele>
        <time>2022-08-14T13:02:26Z</time>
      </trkpt>
      <trkpt lat="42.62085" lon="1.76613">
        <ele>2160</ele>
        <time>2022-08-14T13:02:51Z</time>
      </trkpt>
      <trkpt lat="42.62086" lon="1.76625">
        <ele>2160</ele>
        <time>2022-08-14T13:03:40Z</time>
      </trkpt>
      <trkpt lat="42.62081" lon="1.76614">
        <ele>2160</ele>
        <time>2022-08-14T13:04:08Z</time>
      </trkpt>
      <trkpt lat="42.62079" lon="1.76626">
        <ele>2152</ele>
        <time>2022-08-14T13:04:32Z</time>
      </trkpt>
      <trkpt lat="42.62081" lon="1.76639">
        <ele>2152</ele>
        <time>2022-08-14T13:05:04Z</time>
      </trkpt>
      <trkpt lat="42.6208" lon="1.76652">
        <ele>2152</ele>
        <time>2022-08-14T13:05:23Z</time>
      </trkpt>
      <trkpt lat="42.62075" lon="1.76663">
        <ele>2152</ele>
        <time>2022-08-14T13:05:41Z</time>
      </trkpt>
      <trkpt lat="42.62075" lon="1.76676">
        <ele>2152</ele>
        <time>2022-08-14T13:05:53Z</time>
      </trkpt>
      <trkpt lat="42.62066" lon="1.76672">
        <ele>2152</ele>
        <time>2022-08-14T13:06:15Z</time>
      </trkpt>
      <trkpt lat="42.62056" lon="1.7667">
        <ele>2152</ele>
        <time>2022-08-14T13:06:21Z</time>
      </trkpt>
      <trkpt lat="42.62069" lon="1.7667">
        <ele>2152</ele>
        <time>2022-08-14T13:06:40Z</time>
      </trkpt>
      <trkpt lat="42.62064" lon="1.76656">
        <ele>2152</ele>
        <time>2022-08-14T13:06:49Z</time>
      </trkpt>
      <trkpt lat="42.62066" lon="1.76668">
        <ele>2152</ele>
        <time>2022-08-14T13:06:58Z</time>
      </trkpt>
      <trkpt lat="42.62072" lon="1.76678">
        <ele>2152</ele>
        <time>2022-08-14T13:07:11Z</time>
      </trkpt>
      <trkpt lat="42.62076" lon="1.7669">
        <ele>2152</ele>
        <time>2022-08-14T13:07:25Z</time>
      </trkpt>
      <trkpt lat="42.6207" lon="1.76699">
        <ele>2152</ele>
        <time>2022-08-14T13:08:04Z</time>
      </trkpt>
      <trkpt lat="42.62073" lon="1.76711">
        <ele>2152</ele>
        <time>2022-08-14T13:08:19Z</time>
      </trkpt>
      <trkpt lat="42.6208" lon="1.76719">
        <ele>2152</ele>
        <time>2022-08-14T13:08:48Z</time>
      </trkpt>
      <trkpt lat="42.62083" lon="1.76731">
        <ele>2152</ele>
        <time>2022-08-14T13:08:57Z</time>
      </trkpt>
      <trkpt lat="42.62089" lon="1.76742">
        <ele>2152</ele>
        <time>2022-08-14T13:09:09Z</time>
      </trkpt>
      <trkpt lat="42.62085" lon="1.76754">
        <ele>2111</ele>
        <time>2022-08-14T13:09:32Z</time>
      </trkpt>
      <trkpt lat="42.62092" lon="1.76747">
        <ele>2111</ele>
        <time>2022-08-14T13:09:41Z</time>
      </trkpt>
      <trkpt lat="42.62086" lon="1.76759">
        <ele>2111</ele>
        <time>2022-08-14T13:09:44Z</time>
      </trkpt>
      <trkpt lat="42.62092" lon="1.7677">
        <ele>2111</ele>
        <time>2022-08-14T13:10:05Z</time>
      </trkpt>
      <trkpt lat="42.62098" lon="1.7678">
        <ele>2111</ele>
        <time>2022-08-14T13:10:13Z</time>
      </trkpt>
      <trkpt lat="42.62105" lon="1.76788">
        <ele>2111</ele>
        <time>2022-08-14T13:10:44Z</time>
      </trkpt>
      <trkpt lat="42.62112" lon="1.76798">
        <ele>2111</ele>
        <time>2022-08-14T13:11:00Z</time>
      </trkpt>
      <trkpt lat="42.62119" lon="1.76806">
        <ele>2111</ele>
        <time>2022-08-14T13:11:07Z</time>
      </trkpt>
      <trkpt lat="42.62128" lon="1.76813">
        <ele>2111</ele>
        <time>2022-08-14T13:11:17Z</time>
      </trkpt>
      <trkpt lat="42.62127" lon="1.76826">
        <ele>2111</ele>
        <time>2022-08-14T13:12:03Z</time>
      </trkpt>
      <trkpt lat="42.62125" lon="1.76839">
        <ele>2111</ele>
        <time>2022-08-14T13:12:11Z</time>
      </trkpt>
      <trkpt lat="42.62124" lon="1.76853">
        <ele>2102</ele>
        <time>2022-08-14T13:12:22Z</time>
      </trkpt>
      <trkpt lat="42.62121" lon="1.76866">
        <ele>2102</ele>
        <time>2022-08-14T13:12:29Z</time>
      </trkpt>
      <trkpt lat="42.62131" lon="1.76864">
        <ele>2099</ele>
        <time>2022-08-14T13:13:02Z</time>
      </trkpt>
      <trkpt lat="42.62139" lon="1.76859">
        <ele>2099</ele>
        <time>2022-08-14T13:13:51Z</time>
      </trkpt>
      <trkpt lat="42.62148" lon="1.76872">
        <ele>2099</ele>
        <time>2022-08-14T13:15:11Z</time>
      </trkpt>
      <trkpt lat="42.62151" lon="1.76884">
        <ele>2099</ele>
        <time>2022-08-14T13:15:18Z</time>
      </trkpt>
      <trkpt lat="42.62152" lon="1.76897">
        <ele>2099</ele>
        <time>2022-08-14T13:15:25Z</time>
      </trkpt>
      <trkpt lat="42.62148" lon="1.76912">
        <ele>2099</ele>
        <time>2022-08-14T13:15:39Z</time>
      </trkpt>
      <trkpt lat="42.62147" lon="1.76924">
        <ele>2099</ele>
        <time>2022-08-14T13:15:50Z</time>
      </trkpt>
      <trkpt lat="42.62151" lon="1.76914">
        <ele>2099</ele>
        <time>2022-08-14T13:17:06Z</time>
      </trkpt>
      <trkpt lat="42.62162" lon="1.7691">
        <ele>2099</ele>
        <time>2022-08-14T13:17:13Z</time>
      </trkpt>
      <trkpt lat="42.6217" lon="1.76905">
        <ele>2097</ele>
        <time>2022-08-14T13:17:22Z</time>
      </trkpt>
      <trkpt lat="42.62178" lon="1.76898">
        <ele>2097</ele>
        <time>2022-08-14T13:17:33Z</time>
      </trkpt>
      <trkpt lat="42.62188" lon="1.76898">
        <ele>2100</ele>
        <time>2022-08-14T13:17:42Z</time>
      </trkpt>
      <trkpt lat="42.62197" lon="1.76899">
        <ele>2100</ele>
        <time>2022-08-14T13:17:52Z</time>
      </trkpt>
      <trkpt lat="42.62205" lon="1.76895">
        <ele>2100</ele>
        <time>2022-08-14T13:18:05Z</time>
      </trkpt>
      <trkpt lat="42.62215" lon="1.769">
        <ele>2100</ele>
        <time>2022-08-14T13:18:21Z</time>
      </trkpt>
      <trkpt lat="42.62223" lon="1.76907">
        <ele>2100</ele>
        <time>2022-08-14T13:18:35Z</time>
      </trkpt>
      <trkpt lat="42.62233" lon="1.76911">
        <ele>2100</ele>
        <time>2022-08-14T13:18:45Z</time>
      </trkpt>
      <trkpt lat="42.62242" lon="1.76915">
        <ele>2100</ele>
        <time>2022-08-14T13:18:59Z</time>
      </trkpt>
      <trkpt lat="42.62251" lon="1.76919">
        <ele>2100</ele>
        <time>2022-08-14T13:19:10Z</time>
      </trkpt>
      <trkpt lat="42.6226" lon="1.76923">
        <ele>2100</ele>
        <time>2022-08-14T13:19:18Z</time>
      </trkpt>
      <trkpt lat="42.62259" lon="1.7694">
        <ele>2100</ele>
        <time>2022-08-14T13:19:27Z</time>
      </trkpt>
      <trkpt lat="42.62269" lon="1.76942">
        <ele>2100</ele>
        <time>2022-08-14T13:19:38Z</time>
      </trkpt>
      <trkpt lat="42.62279" lon="1.7694">
        <ele>2108</ele>
        <time>2022-08-14T13:19:52Z</time>
      </trkpt>
      <trkpt lat="42.62287" lon="1.76947">
        <ele>2107</ele>
        <time>2022-08-14T13:20:12Z</time>
      </trkpt>
      <trkpt lat="42.62294" lon="1.76956">
        <ele>2107</ele>
        <time>2022-08-14T13:20:20Z</time>
      </trkpt>
      <trkpt lat="42.62299" lon="1.76968">
        <ele>2107</ele>
        <time>2022-08-14T13:20:31Z</time>
      </trkpt>
      <trkpt lat="42.62303" lon="1.7698">
        <ele>2107</ele>
        <time>2022-08-14T13:20:43Z</time>
      </trkpt>
      <trkpt lat="42.62309" lon="1.7699">
        <ele>2107</ele>
        <time>2022-08-14T13:20:55Z</time>
      </trkpt>
      <trkpt lat="42.62312" lon="1.77002">
        <ele>2107</ele>
        <time>2022-08-14T13:21:06Z</time>
      </trkpt>
      <trkpt lat="42.62312" lon="1.77015">
        <ele>2107</ele>
        <time>2022-08-14T13:21:41Z</time>
      </trkpt>
      <trkpt lat="42.62321" lon="1.77016">
        <ele>2107</ele>
        <time>2022-08-14T13:22:11Z</time>
      </trkpt>
      <trkpt lat="42.62328" lon="1.77025">
        <ele>2107</ele>
        <time>2022-08-14T13:22:26Z</time>
      </trkpt>
      <trkpt lat="42.62335" lon="1.77033">
        <ele>2107</ele>
        <time>2022-08-14T13:23:11Z</time>
      </trkpt>
      <trkpt lat="42.62342" lon="1.77042">
        <ele>2107</ele>
        <time>2022-08-14T13:23:20Z</time>
      </trkpt>
      <trkpt lat="42.6235" lon="1.77049">
        <ele>2107</ele>
        <time>2022-08-14T13:23:31Z</time>
      </trkpt>
      <trkpt lat="42.62357" lon="1.77056">
        <ele>2107</ele>
        <time>2022-08-14T13:23:39Z</time>
      </trkpt>
      <trkpt lat="42.62365" lon="1.77063">
        <ele>2107</ele>
        <time>2022-08-14T13:23:52Z</time>
      </trkpt>
      <trkpt lat="42.62371" lon="1.77074">
        <ele>2107</ele>
        <time>2022-08-14T13:24:20Z</time>
      </trkpt>
      <trkpt lat="42.62379" lon="1.77083">
        <ele>2107</ele>
        <time>2022-08-14T13:24:30Z</time>
      </trkpt>
      <trkpt lat="42.62387" lon="1.77089">
        <ele>2107</ele>
        <time>2022-08-14T13:24:46Z</time>
      </trkpt>
      <trkpt lat="42.62392" lon="1.771">
        <ele>2107</ele>
        <time>2022-08-14T13:25:05Z</time>
      </trkpt>
      <trkpt lat="42.62401" lon="1.77098">
        <ele>2107</ele>
        <time>2022-08-14T13:25:37Z</time>
      </trkpt>
      <trkpt lat="42.6241" lon="1.77097">
        <ele>2107</ele>
        <time>2022-08-14T13:25:48Z</time>
      </trkpt>
      <trkpt lat="42.62419" lon="1.77092">
        <ele>2107</ele>
        <time>2022-08-14T13:26:05Z</time>
      </trkpt>
      <trkpt lat="42.62411" lon="1.77097">
        <ele>2087</ele>
        <time>2022-08-14T13:26:12Z</time>
      </trkpt>
      <trkpt lat="42.6242" lon="1.77097">
        <ele>2087</ele>
        <time>2022-08-14T13:27:23Z</time>
      </trkpt>
      <trkpt lat="42.62428" lon="1.7709">
        <ele>2087</ele>
        <time>2022-08-14T13:27:40Z</time>
      </trkpt>
      <trkpt lat="42.62438" lon="1.7709">
        <ele>2087</ele>
        <time>2022-08-14T13:29:16Z</time>
      </trkpt>
      <trkpt lat="42.62447" lon="1.77089">
        <ele>2069</ele>
        <time>2022-08-14T13:29:32Z</time>
      </trkpt>
      <trkpt lat="42.62453" lon="1.77098">
        <ele>2069</ele>
        <time>2022-08-14T13:30:05Z</time>
      </trkpt>
      <trkpt lat="42.62463" lon="1.771">
        <ele>2069</ele>
        <time>2022-08-14T13:30:18Z</time>
      </trkpt>
      <trkpt lat="42.62474" lon="1.77098">
        <ele>2069</ele>
        <time>2022-08-14T13:30:31Z</time>
      </trkpt>
      <trkpt lat="42.62465" lon="1.77106">
        <ele>2069</ele>
        <time>2022-08-14T13:31:11Z</time>
      </trkpt>
      <trkpt lat="42.62475" lon="1.77106">
        <ele>2069</ele>
        <time>2022-08-14T13:32:48Z</time>
      </trkpt>
      <trkpt lat="42.62484" lon="1.77107">
        <ele>2069</ele>
        <time>2022-08-14T13:32:59Z</time>
      </trkpt>
      <trkpt lat="42.6249" lon="1.77105">
        <ele>2059</ele>
        <time>2022-08-14T13:33:08Z</time>
      </trkpt>
      <trkpt lat="42.62488" lon="1.77123">
        <ele>2059</ele>
        <time>2022-08-14T13:55:08Z</time>
      </trkpt>
      <trkpt lat="42.6249" lon="1.77136">
        <ele>2059</ele>
        <time>2022-08-14T13:55:17Z</time>
      </trkpt>
      <trkpt lat="42.62483" lon="1.77148">
        <ele>2059</ele>
        <time>2022-08-14T13:55:19Z</time>
      </trkpt>
      <trkpt lat="42.62479" lon="1.77158">
        <ele>2059</ele>
        <time>2022-08-14T13:55:27Z</time>
      </trkpt>
      <trkpt lat="42.62475" lon="1.77173">
        <ele>2059</ele>
        <time>2022-08-14T13:55:32Z</time>
      </trkpt>
      <trkpt lat="42.62467" lon="1.77184">
        <ele>2056</ele>
        <time>2022-08-14T13:55:36Z</time>
      </trkpt>
      <trkpt lat="42.62461" lon="1.77194">
        <ele>2056</ele>
        <time>2022-08-14T13:55:43Z</time>
      </trkpt>
      <trkpt lat="42.62458" lon="1.77207">
        <ele>2056</ele>
        <time>2022-08-14T13:55:49Z</time>
      </trkpt>
      <trkpt lat="42.62456" lon="1.77219">
        <ele>2056</ele>
        <time>2022-08-14T13:55:54Z</time>
      </trkpt>
      <trkpt lat="42.62451" lon="1.77229">
        <ele>2056</ele>
        <time>2022-08-14T13:56:00Z</time>
      </trkpt>
      <trkpt lat="42.62456" lon="1.77242">
        <ele>2054</ele>
        <time>2022-08-14T13:56:06Z</time>
      </trkpt>
      <trkpt lat="42.62455" lon="1.77254">
        <ele>2054</ele>
        <time>2022-08-14T13:56:27Z</time>
      </trkpt>
      <trkpt lat="42.62456" lon="1.77267">
        <ele>2054</ele>
        <time>2022-08-14T13:56:40Z</time>
      </trkpt>
      <trkpt lat="42.62462" lon="1.77278">
        <ele>2054</ele>
        <time>2022-08-14T13:57:04Z</time>
      </trkpt>
      <trkpt lat="42.62472" lon="1.77274">
        <ele>2047</ele>
        <time>2022-08-14T13:57:16Z</time>
      </trkpt>
      <trkpt lat="42.6248" lon="1.7727">
        <ele>2047</ele>
        <time>2022-08-14T13:57:20Z</time>
      </trkpt>
      <trkpt lat="42.62489" lon="1.77267">
        <ele>2046</ele>
        <time>2022-08-14T13:57:26Z</time>
      </trkpt>
      <trkpt lat="42.62498" lon="1.77267">
        <ele>2046</ele>
        <time>2022-08-14T13:57:44Z</time>
      </trkpt>
      <trkpt lat="42.62508" lon="1.77269">
        <ele>2046</ele>
        <time>2022-08-14T13:57:55Z</time>
      </trkpt>
      <trkpt lat="42.62509" lon="1.77283">
        <ele>2046</ele>
        <time>2022-08-14T13:58:21Z</time>
      </trkpt>
      <trkpt lat="42.62508" lon="1.77296">
        <ele>2046</ele>
        <time>2022-08-14T13:59:12Z</time>
      </trkpt>
      <trkpt lat="42.62515" lon="1.77305">
        <ele>2046</ele>
        <time>2022-08-14T14:00:34Z</time>
      </trkpt>
      <trkpt lat="42.62519" lon="1.77315">
        <ele>2046</ele>
        <time>2022-08-14T14:01:19Z</time>
      </trkpt>
      <trkpt lat="42.62515" lon="1.77326">
        <ele>2031</ele>
        <time>2022-08-14T14:01:36Z</time>
      </trkpt>
      <trkpt lat="42.62519" lon="1.77338">
        <ele>2031</ele>
        <time>2022-08-14T14:02:09Z</time>
      </trkpt>
      <trkpt lat="42.62526" lon="1.77346">
        <ele>2031</ele>
        <time>2022-08-14T14:02:33Z</time>
      </trkpt>
      <trkpt lat="42.62533" lon="1.77354">
        <ele>2031</ele>
        <time>2022-08-14T14:02:44Z</time>
      </trkpt>
      <trkpt lat="42.62533" lon="1.77366">
        <ele>2031</ele>
        <time>2022-08-14T14:03:09Z</time>
      </trkpt>
      <trkpt lat="42.62524" lon="1.77384">
        <ele>2031</ele>
        <time>2022-08-14T14:03:20Z</time>
      </trkpt>
      <trkpt lat="42.62516" lon="1.77397">
        <ele>2031</ele>
        <time>2022-08-14T14:03:24Z</time>
      </trkpt>
      <trkpt lat="42.62509" lon="1.77407">
        <ele>2031</ele>
        <time>2022-08-14T14:03:31Z</time>
      </trkpt>
      <trkpt lat="42.62502" lon="1.77415">
        <ele>2031</ele>
        <time>2022-08-14T14:03:35Z</time>
      </trkpt>
      <trkpt lat="42.62493" lon="1.77422">
        <ele>2031</ele>
        <time>2022-08-14T14:03:42Z</time>
      </trkpt>
      <trkpt lat="42.62486" lon="1.77432">
        <ele>2031</ele>
        <time>2022-08-14T14:03:50Z</time>
      </trkpt>
      <trkpt lat="42.62487" lon="1.77445">
        <ele>2031</ele>
        <time>2022-08-14T14:04:03Z</time>
      </trkpt>
      <trkpt lat="42.62489" lon="1.77458">
        <ele>2031</ele>
        <time>2022-08-14T14:04:19Z</time>
      </trkpt>
      <trkpt lat="42.62494" lon="1.77469">
        <ele>2031</ele>
        <time>2022-08-14T14:04:30Z</time>
      </trkpt>
      <trkpt lat="42.62499" lon="1.77479">
        <ele>2031</ele>
        <time>2022-08-14T14:04:39Z</time>
      </trkpt>
      <trkpt lat="42.62508" lon="1.77486">
        <ele>2031</ele>
        <time>2022-08-14T14:04:47Z</time>
      </trkpt>
      <trkpt lat="42.62513" lon="1.77473">
        <ele>2031</ele>
        <time>2022-08-14T14:04:48Z</time>
      </trkpt>
      <trkpt lat="42.62504" lon="1.7747">
        <ele>2031</ele>
        <time>2022-08-14T14:04:57Z</time>
      </trkpt>
      <trkpt lat="42.62496" lon="1.77463">
        <ele>2031</ele>
        <time>2022-08-14T14:05:23Z</time>
      </trkpt>
      <trkpt lat="42.62486" lon="1.77462">
        <ele>2031</ele>
        <time>2022-08-14T14:05:28Z</time>
      </trkpt>
      <trkpt lat="42.62496" lon="1.77464">
        <ele>2010</ele>
        <time>2022-08-14T14:05:46Z</time>
      </trkpt>
      <trkpt lat="42.62505" lon="1.77467">
        <ele>2010</ele>
        <time>2022-08-14T14:05:58Z</time>
      </trkpt>
      <trkpt lat="42.62514" lon="1.77464">
        <ele>2010</ele>
        <time>2022-08-14T14:06:23Z</time>
      </trkpt>
      <trkpt lat="42.62502" lon="1.77464">
        <ele>2010</ele>
        <time>2022-08-14T14:07:23Z</time>
      </trkpt>
      <trkpt lat="42.62512" lon="1.77465">
        <ele>2010</ele>
        <time>2022-08-14T14:07:29Z</time>
      </trkpt>
      <trkpt lat="42.62523" lon="1.7746">
        <ele>2010</ele>
        <time>2022-08-14T14:07:43Z</time>
      </trkpt>
      <trkpt lat="42.62532" lon="1.77455">
        <ele>2010</ele>
        <time>2022-08-14T14:07:49Z</time>
      </trkpt>
      <trkpt lat="42.62512" lon="1.77474">
        <ele>2010</ele>
        <time>2022-08-14T14:08:00Z</time>
      </trkpt>
      <trkpt lat="42.625" lon="1.77476">
        <ele>2010</ele>
        <time>2022-08-14T14:08:01Z</time>
      </trkpt>
      <trkpt lat="42.62497" lon="1.7749">
        <ele>2010</ele>
        <time>2022-08-14T14:08:07Z</time>
      </trkpt>
      <trkpt lat="42.62491" lon="1.77502">
        <ele>2010</ele>
        <time>2022-08-14T14:08:24Z</time>
      </trkpt>
      <trkpt lat="42.62485" lon="1.77511">
        <ele>2010</ele>
        <time>2022-08-14T14:08:30Z</time>
      </trkpt>
      <trkpt lat="42.62479" lon="1.77521">
        <ele>2010</ele>
        <time>2022-08-14T14:08:41Z</time>
      </trkpt>
      <trkpt lat="42.62488" lon="1.77522">
        <ele>2010</ele>
        <time>2022-08-14T14:08:50Z</time>
      </trkpt>
      <trkpt lat="42.6248" lon="1.7753">
        <ele>2010</ele>
        <time>2022-08-14T14:09:23Z</time>
      </trkpt>
      <trkpt lat="42.62479" lon="1.77531">
        <ele>2005</ele>
        <time>2022-08-14T14:09:38Z</time>
      </trkpt>
      <trkpt lat="42.62543" lon="1.77479">
        <ele>2006</ele>
        <time>2022-08-14T14:23:19Z</time>
      </trkpt>
      <trkpt lat="42.62537" lon="1.7749">
        <ele>2006</ele>
        <time>2022-08-14T14:23:46Z</time>
      </trkpt>
      <trkpt lat="42.62543" lon="1.77498">
        <ele>2006</ele>
        <time>2022-08-14T14:23:55Z</time>
      </trkpt>
      <trkpt lat="42.62544" lon="1.77512">
        <ele>2006</ele>
        <time>2022-08-14T14:24:04Z</time>
      </trkpt>
      <trkpt lat="42.62541" lon="1.77526">
        <ele>2006</ele>
        <time>2022-08-14T14:24:14Z</time>
      </trkpt>
      <trkpt lat="42.62542" lon="1.77539">
        <ele>2006</ele>
        <time>2022-08-14T14:24:25Z</time>
      </trkpt>
      <trkpt lat="42.62546" lon="1.77551">
        <ele>2006</ele>
        <time>2022-08-14T14:25:52Z</time>
      </trkpt>
      <trkpt lat="42.62552" lon="1.7756">
        <ele>2006</ele>
        <time>2022-08-14T14:26:37Z</time>
      </trkpt>
      <trkpt lat="42.6256" lon="1.77567">
        <ele>2006</ele>
        <time>2022-08-14T14:26:48Z</time>
      </trkpt>
      <trkpt lat="42.62563" lon="1.7758">
        <ele>2006</ele>
        <time>2022-08-14T14:27:04Z</time>
      </trkpt>
      <trkpt lat="42.62568" lon="1.77591">
        <ele>2006</ele>
        <time>2022-08-14T14:27:20Z</time>
      </trkpt>
      <trkpt lat="42.62573" lon="1.77604">
        <ele>2006</ele>
        <time>2022-08-14T14:27:30Z</time>
      </trkpt>
      <trkpt lat="42.6258" lon="1.77613">
        <ele>2006</ele>
        <time>2022-08-14T14:27:46Z</time>
      </trkpt>
      <trkpt lat="42.62584" lon="1.77626">
        <ele>2006</ele>
        <time>2022-08-14T14:27:54Z</time>
      </trkpt>
      <trkpt lat="42.62589" lon="1.77636">
        <ele>2006</ele>
        <time>2022-08-14T14:28:01Z</time>
      </trkpt>
      <trkpt lat="42.62592" lon="1.77648">
        <ele>1985</ele>
        <time>2022-08-14T14:28:09Z</time>
      </trkpt>
      <trkpt lat="42.6259" lon="1.7766">
        <ele>1985</ele>
        <time>2022-08-14T14:28:18Z</time>
      </trkpt>
      <trkpt lat="42.62594" lon="1.77672">
        <ele>1981</ele>
        <time>2022-08-14T14:28:29Z</time>
      </trkpt>
      <trkpt lat="42.62601" lon="1.7768">
        <ele>1981</ele>
        <time>2022-08-14T14:28:41Z</time>
      </trkpt>
      <trkpt lat="42.62603" lon="1.77693">
        <ele>1981</ele>
        <time>2022-08-14T14:28:55Z</time>
      </trkpt>
      <trkpt lat="42.62595" lon="1.77701">
        <ele>1981</ele>
        <time>2022-08-14T14:29:20Z</time>
      </trkpt>
      <trkpt lat="42.62594" lon="1.77713">
        <ele>1981</ele>
        <time>2022-08-14T14:29:34Z</time>
      </trkpt>
      <trkpt lat="42.62599" lon="1.77723">
        <ele>1981</ele>
        <time>2022-08-14T14:29:48Z</time>
      </trkpt>
      <trkpt lat="42.62598" lon="1.77736">
        <ele>1981</ele>
        <time>2022-08-14T14:30:15Z</time>
      </trkpt>
      <trkpt lat="42.62596" lon="1.77748">
        <ele>1981</ele>
        <time>2022-08-14T14:30:31Z</time>
      </trkpt>
      <trkpt lat="42.626" lon="1.77759">
        <ele>1981</ele>
        <time>2022-08-14T14:31:01Z</time>
      </trkpt>
      <trkpt lat="42.62598" lon="1.77773">
        <ele>1981</ele>
        <time>2022-08-14T14:32:18Z</time>
      </trkpt>
      <trkpt lat="42.62595" lon="1.77786">
        <ele>1981</ele>
        <time>2022-08-14T14:32:28Z</time>
      </trkpt>
      <trkpt lat="42.62597" lon="1.77798">
        <ele>1981</ele>
        <time>2022-08-14T14:32:38Z</time>
      </trkpt>
      <trkpt lat="42.62599" lon="1.77811">
        <ele>1981</ele>
        <time>2022-08-14T14:32:56Z</time>
      </trkpt>
      <trkpt lat="42.62605" lon="1.77823">
        <ele>1981</ele>
        <time>2022-08-14T14:33:05Z</time>
      </trkpt>
      <trkpt lat="42.62609" lon="1.77834">
        <ele>1981</ele>
        <time>2022-08-14T14:33:13Z</time>
      </trkpt>
      <trkpt lat="42.62618" lon="1.77838">
        <ele>1981</ele>
        <time>2022-08-14T14:33:25Z</time>
      </trkpt>
      <trkpt lat="42.62624" lon="1.77848">
        <ele>1981</ele>
        <time>2022-08-14T14:33:34Z</time>
      </trkpt>
      <trkpt lat="42.62627" lon="1.7786">
        <ele>1981</ele>
        <time>2022-08-14T14:33:47Z</time>
      </trkpt>
      <trkpt lat="42.62628" lon="1.77874">
        <ele>1981</ele>
        <time>2022-08-14T14:33:57Z</time>
      </trkpt>
      <trkpt lat="42.62637" lon="1.77883">
        <ele>1981</ele>
        <time>2022-08-14T14:34:06Z</time>
      </trkpt>
      <trkpt lat="42.62645" lon="1.77892">
        <ele>1981</ele>
        <time>2022-08-14T14:34:18Z</time>
      </trkpt>
      <trkpt lat="42.62648" lon="1.77904">
        <ele>1981</ele>
        <time>2022-08-14T14:34:28Z</time>
      </trkpt>
      <trkpt lat="42.62651" lon="1.77916">
        <ele>1981</ele>
        <time>2022-08-14T14:34:37Z</time>
      </trkpt>
      <trkpt lat="42.62652" lon="1.7793">
        <ele>1981</ele>
        <time>2022-08-14T14:34:46Z</time>
      </trkpt>
      <trkpt lat="42.62649" lon="1.77942">
        <ele>1981</ele>
        <time>2022-08-14T14:34:55Z</time>
      </trkpt>
      <trkpt lat="42.62652" lon="1.77954">
        <ele>1981</ele>
        <time>2022-08-14T14:35:03Z</time>
      </trkpt>
      <trkpt lat="42.62653" lon="1.77966">
        <ele>1981</ele>
        <time>2022-08-14T14:35:21Z</time>
      </trkpt>
      <trkpt lat="42.62663" lon="1.77969">
        <ele>1981</ele>
        <time>2022-08-14T14:35:43Z</time>
      </trkpt>
      <trkpt lat="42.62669" lon="1.77959">
        <ele>1981</ele>
        <time>2022-08-14T14:35:56Z</time>
      </trkpt>
      <trkpt lat="42.62677" lon="1.77962">
        <ele>1981</ele>
        <time>2022-08-14T14:36:14Z</time>
      </trkpt>
      <trkpt lat="42.62685" lon="1.7797">
        <ele>1981</ele>
        <time>2022-08-14T14:36:31Z</time>
      </trkpt>
      <trkpt lat="42.62692" lon="1.77979">
        <ele>1981</ele>
        <time>2022-08-14T14:36:41Z</time>
      </trkpt>
      <trkpt lat="42.62683" lon="1.77984">
        <ele>1981</ele>
        <time>2022-08-14T14:37:02Z</time>
      </trkpt>
      <trkpt lat="42.62675" lon="1.77989">
        <ele>1981</ele>
        <time>2022-08-14T14:37:11Z</time>
      </trkpt>
      <trkpt lat="42.62665" lon="1.7799">
        <ele>1981</ele>
        <time>2022-08-14T14:37:20Z</time>
      </trkpt>
      <trkpt lat="42.62657" lon="1.77993">
        <ele>1981</ele>
        <time>2022-08-14T14:37:31Z</time>
      </trkpt>
      <trkpt lat="42.62652" lon="1.78004">
        <ele>1943</ele>
        <time>2022-08-14T14:37:39Z</time>
      </trkpt>
      <trkpt lat="42.62648" lon="1.78015">
        <ele>1943</ele>
        <time>2022-08-14T14:37:48Z</time>
      </trkpt>
      <trkpt lat="42.62649" lon="1.78028">
        <ele>1943</ele>
        <time>2022-08-14T14:38:00Z</time>
      </trkpt>
      <trkpt lat="42.62657" lon="1.78037">
        <ele>1943</ele>
        <time>2022-08-14T14:38:10Z</time>
      </trkpt>
      <trkpt lat="42.62658" lon="1.78049">
        <ele>1943</ele>
        <time>2022-08-14T14:38:20Z</time>
      </trkpt>
      <trkpt lat="42.62659" lon="1.78062">
        <ele>1943</ele>
        <time>2022-08-14T14:38:30Z</time>
      </trkpt>
      <trkpt lat="42.62665" lon="1.78071">
        <ele>1943</ele>
        <time>2022-08-14T14:38:37Z</time>
      </trkpt>
      <trkpt lat="42.62667" lon="1.78083">
        <ele>1943</ele>
        <time>2022-08-14T14:38:48Z</time>
      </trkpt>
      <trkpt lat="42.62673" lon="1.78093">
        <ele>1943</ele>
        <time>2022-08-14T14:38:56Z</time>
      </trkpt>
      <trkpt lat="42.62677" lon="1.78107">
        <ele>1943</ele>
        <time>2022-08-14T14:39:36Z</time>
      </trkpt>
      <trkpt lat="42.62681" lon="1.78119">
        <ele>1943</ele>
        <time>2022-08-14T14:39:50Z</time>
      </trkpt>
      <trkpt lat="42.62688" lon="1.78129">
        <ele>1943</ele>
        <time>2022-08-14T14:40:00Z</time>
      </trkpt>
      <trkpt lat="42.62694" lon="1.78141">
        <ele>1946</ele>
        <time>2022-08-14T14:40:09Z</time>
      </trkpt>
      <trkpt lat="42.62694" lon="1.78154">
        <ele>1946</ele>
        <time>2022-08-14T14:40:33Z</time>
      </trkpt>
      <trkpt lat="42.6269" lon="1.78166">
        <ele>1946</ele>
        <time>2022-08-14T14:40:44Z</time>
      </trkpt>
      <trkpt lat="42.62693" lon="1.7818">
        <ele>1946</ele>
        <time>2022-08-14T14:40:51Z</time>
      </trkpt>
      <trkpt lat="42.62699" lon="1.7819">
        <ele>1946</ele>
        <time>2022-08-14T14:41:02Z</time>
      </trkpt>
      <trkpt lat="42.62703" lon="1.78203">
        <ele>1946</ele>
        <time>2022-08-14T14:41:13Z</time>
      </trkpt>
      <trkpt lat="42.62711" lon="1.78208">
        <ele>1949</ele>
        <time>2022-08-14T14:41:19Z</time>
      </trkpt>
      <trkpt lat="42.62717" lon="1.78219">
        <ele>1949</ele>
        <time>2022-08-14T14:41:27Z</time>
      </trkpt>
      <trkpt lat="42.62716" lon="1.78231">
        <ele>1949</ele>
        <time>2022-08-14T14:41:34Z</time>
      </trkpt>
      <trkpt lat="42.62713" lon="1.78244">
        <ele>1949</ele>
        <time>2022-08-14T14:41:43Z</time>
      </trkpt>
      <trkpt lat="42.62704" lon="1.78248">
        <ele>1949</ele>
        <time>2022-08-14T14:41:51Z</time>
      </trkpt>
      <trkpt lat="42.62703" lon="1.78261">
        <ele>1946</ele>
        <time>2022-08-14T14:41:59Z</time>
      </trkpt>
      <trkpt lat="42.62694" lon="1.78268">
        <ele>1946</ele>
        <time>2022-08-14T14:42:05Z</time>
      </trkpt>
      <trkpt lat="42.62685" lon="1.78273">
        <ele>1946</ele>
        <time>2022-08-14T14:42:13Z</time>
      </trkpt>
      <trkpt lat="42.62687" lon="1.78286">
        <ele>1946</ele>
        <time>2022-08-14T14:42:27Z</time>
      </trkpt>
      <trkpt lat="42.62692" lon="1.78297">
        <ele>1946</ele>
        <time>2022-08-14T14:42:34Z</time>
      </trkpt>
      <trkpt lat="42.62695" lon="1.78309">
        <ele>1947</ele>
        <time>2022-08-14T14:42:39Z</time>
      </trkpt>
      <trkpt lat="42.62687" lon="1.78314">
        <ele>1947</ele>
        <time>2022-08-14T14:42:57Z</time>
      </trkpt>
      <trkpt lat="42.6268" lon="1.78325">
        <ele>1947</ele>
        <time>2022-08-14T14:43:13Z</time>
      </trkpt>
      <trkpt lat="42.62692" lon="1.78333">
        <ele>1945</ele>
        <time>2022-08-14T14:43:19Z</time>
      </trkpt>
      <trkpt lat="42.62697" lon="1.78344">
        <ele>1945</ele>
        <time>2022-08-14T14:43:27Z</time>
      </trkpt>
      <trkpt lat="42.62689" lon="1.78351">
        <ele>1946</ele>
        <time>2022-08-14T14:43:39Z</time>
      </trkpt>
      <trkpt lat="42.62685" lon="1.78363">
        <ele>1946</ele>
        <time>2022-08-14T14:43:53Z</time>
      </trkpt>
      <trkpt lat="42.6268" lon="1.78374">
        <ele>1946</ele>
        <time>2022-08-14T14:44:01Z</time>
      </trkpt>
      <trkpt lat="42.62671" lon="1.78377">
        <ele>1946</ele>
        <time>2022-08-14T14:44:18Z</time>
      </trkpt>
      <trkpt lat="42.62671" lon="1.7839">
        <ele>1946</ele>
        <time>2022-08-14T14:44:30Z</time>
      </trkpt>
      <trkpt lat="42.62672" lon="1.78404">
        <ele>1946</ele>
        <time>2022-08-14T14:44:37Z</time>
      </trkpt>
      <trkpt lat="42.62677" lon="1.78417">
        <ele>1946</ele>
        <time>2022-08-14T14:44:45Z</time>
      </trkpt>
      <trkpt lat="42.62686" lon="1.78419">
        <ele>1946</ele>
        <time>2022-08-14T14:45:11Z</time>
      </trkpt>
      <trkpt lat="42.62678" lon="1.78425">
        <ele>1946</ele>
        <time>2022-08-14T14:45:22Z</time>
      </trkpt>
      <trkpt lat="42.62675" lon="1.78436">
        <ele>1946</ele>
        <time>2022-08-14T14:45:31Z</time>
      </trkpt>
      <trkpt lat="42.6267" lon="1.78447">
        <ele>1946</ele>
        <time>2022-08-14T14:45:40Z</time>
      </trkpt>
      <trkpt lat="42.62668" lon="1.78459">
        <ele>1946</ele>
        <time>2022-08-14T14:45:48Z</time>
      </trkpt>
      <trkpt lat="42.62668" lon="1.78474">
        <ele>1946</ele>
        <time>2022-08-14T14:46:06Z</time>
      </trkpt>
      <trkpt lat="42.62664" lon="1.78486">
        <ele>1946</ele>
        <time>2022-08-14T14:46:16Z</time>
      </trkpt>
      <trkpt lat="42.62663" lon="1.78498">
        <ele>1946</ele>
        <time>2022-08-14T14:46:27Z</time>
      </trkpt>
      <trkpt lat="42.62665" lon="1.7851">
        <ele>1946</ele>
        <time>2022-08-14T14:46:34Z</time>
      </trkpt>
      <trkpt lat="42.62672" lon="1.78522">
        <ele>1946</ele>
        <time>2022-08-14T14:46:41Z</time>
      </trkpt>
      <trkpt lat="42.62677" lon="1.78532">
        <ele>1946</ele>
        <time>2022-08-14T14:46:55Z</time>
      </trkpt>
      <trkpt lat="42.62686" lon="1.78528">
        <ele>1946</ele>
        <time>2022-08-14T14:47:34Z</time>
      </trkpt>
      <trkpt lat="42.62677" lon="1.78534">
        <ele>1929</ele>
        <time>2022-08-14T14:48:19Z</time>
      </trkpt>
      <trkpt lat="42.62684" lon="1.78542">
        <ele>1929</ele>
        <time>2022-08-14T14:48:58Z</time>
      </trkpt>
      <trkpt lat="42.62692" lon="1.78551">
        <ele>1929</ele>
        <time>2022-08-14T14:49:12Z</time>
      </trkpt>
      <trkpt lat="42.62698" lon="1.78561">
        <ele>1929</ele>
        <time>2022-08-14T14:49:27Z</time>
      </trkpt>
      <trkpt lat="42.62707" lon="1.78565">
        <ele>1929</ele>
        <time>2022-08-14T14:49:37Z</time>
      </trkpt>
      <trkpt lat="42.62713" lon="1.78573">
        <ele>1929</ele>
        <time>2022-08-14T14:49:46Z</time>
      </trkpt>
      <trkpt lat="42.62719" lon="1.78584">
        <ele>1929</ele>
        <time>2022-08-14T14:49:56Z</time>
      </trkpt>
      <trkpt lat="42.62722" lon="1.78597">
        <ele>1929</ele>
        <time>2022-08-14T14:50:13Z</time>
      </trkpt>
      <trkpt lat="42.6272" lon="1.7861">
        <ele>1929</ele>
        <time>2022-08-14T14:50:21Z</time>
      </trkpt>
      <trkpt lat="42.62729" lon="1.78616">
        <ele>1929</ele>
        <time>2022-08-14T14:50:31Z</time>
      </trkpt>
      <trkpt lat="42.62738" lon="1.78616">
        <ele>1929</ele>
        <time>2022-08-14T14:50:58Z</time>
      </trkpt>
      <trkpt lat="42.62731" lon="1.78625">
        <ele>1929</ele>
        <time>2022-08-14T14:52:57Z</time>
      </trkpt>
      <trkpt lat="42.62739" lon="1.78618">
        <ele>1929</ele>
        <time>2022-08-14T14:53:28Z</time>
      </trkpt>
      <trkpt lat="42.6273" lon="1.78622">
        <ele>1929</ele>
        <time>2022-08-14T14:55:00Z</time>
      </trkpt>
      <trkpt lat="42.62725" lon="1.78635">
        <ele>1929</ele>
        <time>2022-08-14T14:57:50Z</time>
      </trkpt>
      <trkpt lat="42.62733" lon="1.78629">
        <ele>1929</ele>
        <time>2022-08-14T14:58:02Z</time>
      </trkpt>
      <trkpt lat="42.62737" lon="1.78618">
        <ele>1929</ele>
        <time>2022-08-14T14:59:08Z</time>
      </trkpt>
      <trkpt lat="42.62744" lon="1.78626">
        <ele>1929</ele>
        <time>2022-08-14T14:59:52Z</time>
      </trkpt>
      <trkpt lat="42.62753" lon="1.78624">
        <ele>1887</ele>
        <time>2022-08-14T14:59:59Z</time>
      </trkpt>
      <trkpt lat="42.62758" lon="1.78635">
        <ele>1887</ele>
        <time>2022-08-14T15:00:07Z</time>
      </trkpt>
      <trkpt lat="42.62765" lon="1.78647">
        <ele>1887</ele>
        <time>2022-08-14T15:00:20Z</time>
      </trkpt>
      <trkpt lat="42.62769" lon="1.78658">
        <ele>1880</ele>
        <time>2022-08-14T15:00:39Z</time>
      </trkpt>
      <trkpt lat="42.62768" lon="1.78671">
        <ele>1877</ele>
        <time>2022-08-14T15:00:49Z</time>
      </trkpt>
      <trkpt lat="42.62775" lon="1.78682">
        <ele>1877</ele>
        <time>2022-08-14T15:00:58Z</time>
      </trkpt>
      <trkpt lat="42.62781" lon="1.78691">
        <ele>1877</ele>
        <time>2022-08-14T15:01:13Z</time>
      </trkpt>
      <trkpt lat="42.6279" lon="1.78703">
        <ele>1877</ele>
        <time>2022-08-14T15:01:26Z</time>
      </trkpt>
      <trkpt lat="42.62798" lon="1.78711">
        <ele>1877</ele>
        <time>2022-08-14T15:01:34Z</time>
      </trkpt>
      <trkpt lat="42.62793" lon="1.78724">
        <ele>1877</ele>
        <time>2022-08-14T15:01:44Z</time>
      </trkpt>
      <trkpt lat="42.62797" lon="1.78736">
        <ele>1877</ele>
        <time>2022-08-14T15:01:53Z</time>
      </trkpt>
      <trkpt lat="42.62805" lon="1.78744">
        <ele>1877</ele>
        <time>2022-08-14T15:02:01Z</time>
      </trkpt>
      <trkpt lat="42.62813" lon="1.78752">
        <ele>1860</ele>
        <time>2022-08-14T15:02:09Z</time>
      </trkpt>
      <trkpt lat="42.62817" lon="1.78765">
        <ele>1856</ele>
        <time>2022-08-14T15:02:19Z</time>
      </trkpt>
      <trkpt lat="42.6282" lon="1.78777">
        <ele>1856</ele>
        <time>2022-08-14T15:02:30Z</time>
      </trkpt>
      <trkpt lat="42.6282" lon="1.7879">
        <ele>1856</ele>
        <time>2022-08-14T15:02:36Z</time>
      </trkpt>
      <trkpt lat="42.62819" lon="1.78803">
        <ele>1856</ele>
        <time>2022-08-14T15:02:44Z</time>
      </trkpt>
      <trkpt lat="42.6282" lon="1.78815">
        <ele>1856</ele>
        <time>2022-08-14T15:02:54Z</time>
      </trkpt>
      <trkpt lat="42.62822" lon="1.78828">
        <ele>1856</ele>
        <time>2022-08-14T15:03:07Z</time>
      </trkpt>
      <trkpt lat="42.6283" lon="1.78837">
        <ele>1856</ele>
        <time>2022-08-14T15:03:17Z</time>
      </trkpt>
      <trkpt lat="42.6284" lon="1.78842">
        <ele>1856</ele>
        <time>2022-08-14T15:03:27Z</time>
      </trkpt>
      <trkpt lat="42.62849" lon="1.78842">
        <ele>1856</ele>
        <time>2022-08-14T15:03:35Z</time>
      </trkpt>
      <trkpt lat="42.62859" lon="1.7884">
        <ele>1856</ele>
        <time>2022-08-14T15:03:45Z</time>
      </trkpt>
      <trkpt lat="42.62868" lon="1.78844">
        <ele>1856</ele>
        <time>2022-08-14T15:03:54Z</time>
      </trkpt>
      <trkpt lat="42.62874" lon="1.78854">
        <ele>1856</ele>
        <time>2022-08-14T15:04:06Z</time>
      </trkpt>
      <trkpt lat="42.62883" lon="1.78861">
        <ele>1856</ele>
        <time>2022-08-14T15:04:15Z</time>
      </trkpt>
      <trkpt lat="42.62893" lon="1.78862">
        <ele>1856</ele>
        <time>2022-08-14T15:04:22Z</time>
      </trkpt>
      <trkpt lat="42.62901" lon="1.7887">
        <ele>1856</ele>
        <time>2022-08-14T15:04:32Z</time>
      </trkpt>
      <trkpt lat="42.6291" lon="1.78875">
        <ele>1820</ele>
        <time>2022-08-14T15:04:39Z</time>
      </trkpt>
      <trkpt lat="42.6292" lon="1.78876">
        <ele>1820</ele>
        <time>2022-08-14T15:04:47Z</time>
      </trkpt>
      <trkpt lat="42.62923" lon="1.78889">
        <ele>1820</ele>
        <time>2022-08-14T15:05:03Z</time>
      </trkpt>
      <trkpt lat="42.62929" lon="1.78898">
        <ele>1820</ele>
        <time>2022-08-14T15:05:11Z</time>
      </trkpt>
      <trkpt lat="42.62935" lon="1.78908">
        <ele>1820</ele>
        <time>2022-08-14T15:05:22Z</time>
      </trkpt>
      <trkpt lat="42.62937" lon="1.78921">
        <ele>1820</ele>
        <time>2022-08-14T15:05:30Z</time>
      </trkpt>
      <trkpt lat="42.62944" lon="1.7893">
        <ele>1820</ele>
        <time>2022-08-14T15:05:43Z</time>
      </trkpt>
      <trkpt lat="42.62948" lon="1.78942">
        <ele>1820</ele>
        <time>2022-08-14T15:05:53Z</time>
      </trkpt>
      <trkpt lat="42.62956" lon="1.78951">
        <ele>1820</ele>
        <time>2022-08-14T15:06:06Z</time>
      </trkpt>
      <trkpt lat="42.62966" lon="1.78951">
        <ele>1820</ele>
        <time>2022-08-14T15:06:13Z</time>
      </trkpt>
      <trkpt lat="42.62972" lon="1.78961">
        <ele>1820</ele>
        <time>2022-08-14T15:06:24Z</time>
      </trkpt>
      <trkpt lat="42.62979" lon="1.7897">
        <ele>1820</ele>
        <time>2022-08-14T15:06:37Z</time>
      </trkpt>
      <trkpt lat="42.62987" lon="1.78974">
        <ele>1800</ele>
        <time>2022-08-14T15:06:49Z</time>
      </trkpt>
      <trkpt lat="42.62996" lon="1.78981">
        <ele>1800</ele>
        <time>2022-08-14T15:07:04Z</time>
      </trkpt>
      <trkpt lat="42.63005" lon="1.78984">
        <ele>1800</ele>
        <time>2022-08-14T15:07:23Z</time>
      </trkpt>
      <trkpt lat="42.63019" lon="1.78989">
        <ele>1800</ele>
        <time>2022-08-14T15:07:37Z</time>
      </trkpt>
      <trkpt lat="42.63029" lon="1.7899">
        <ele>1800</ele>
        <time>2022-08-14T15:07:41Z</time>
      </trkpt>
      <trkpt lat="42.63039" lon="1.78992">
        <ele>1800</ele>
        <time>2022-08-14T15:07:50Z</time>
      </trkpt>
      <trkpt lat="42.63045" lon="1.79004">
        <ele>1800</ele>
        <time>2022-08-14T15:08:01Z</time>
      </trkpt>
      <trkpt lat="42.63047" lon="1.79016">
        <ele>1800</ele>
        <time>2022-08-14T15:08:15Z</time>
      </trkpt>
      <trkpt lat="42.63047" lon="1.79029">
        <ele>1800</ele>
        <time>2022-08-14T15:08:27Z</time>
      </trkpt>
      <trkpt lat="42.63041" lon="1.79039">
        <ele>1800</ele>
        <time>2022-08-14T15:08:42Z</time>
      </trkpt>
      <trkpt lat="42.63049" lon="1.79047">
        <ele>1800</ele>
        <time>2022-08-14T15:09:01Z</time>
      </trkpt>
      <trkpt lat="42.63055" lon="1.79058">
        <ele>1800</ele>
        <time>2022-08-14T15:09:12Z</time>
      </trkpt>
      <trkpt lat="42.6305" lon="1.7907">
        <ele>1790</ele>
        <time>2022-08-14T15:09:19Z</time>
      </trkpt>
      <trkpt lat="42.6305" lon="1.79085">
        <ele>1790</ele>
        <time>2022-08-14T15:09:25Z</time>
      </trkpt>
      <trkpt lat="42.63048" lon="1.79098">
        <ele>1790</ele>
        <time>2022-08-14T15:09:33Z</time>
      </trkpt>
      <trkpt lat="42.63055" lon="1.79107">
        <ele>1790</ele>
        <time>2022-08-14T15:09:44Z</time>
      </trkpt>
      <trkpt lat="42.63064" lon="1.79111">
        <ele>1790</ele>
        <time>2022-08-14T15:09:53Z</time>
      </trkpt>
      <trkpt lat="42.63074" lon="1.79113">
        <ele>1790</ele>
        <time>2022-08-14T15:10:01Z</time>
      </trkpt>
      <trkpt lat="42.6308" lon="1.79122">
        <ele>1790</ele>
        <time>2022-08-14T15:10:13Z</time>
      </trkpt>
      <trkpt lat="42.63085" lon="1.79133">
        <ele>1790</ele>
        <time>2022-08-14T15:10:21Z</time>
      </trkpt>
      <trkpt lat="42.63089" lon="1.79145">
        <ele>1790</ele>
        <time>2022-08-14T15:10:32Z</time>
      </trkpt>
      <trkpt lat="42.63096" lon="1.79154">
        <ele>1790</ele>
        <time>2022-08-14T15:10:40Z</time>
      </trkpt>
      <trkpt lat="42.63103" lon="1.79162">
        <ele>1788</ele>
        <time>2022-08-14T15:10:49Z</time>
      </trkpt>
      <trkpt lat="42.63098" lon="1.79151">
        <ele>1788</ele>
        <time>2022-08-14T15:11:09Z</time>
      </trkpt>
      <trkpt lat="42.63102" lon="1.79162">
        <ele>1788</ele>
        <time>2022-08-14T15:11:35Z</time>
      </trkpt>
      <trkpt lat="42.63127" lon="1.79147">
        <ele>1788</ele>
        <time>2022-08-14T15:12:00Z</time>
      </trkpt>
      <trkpt lat="42.63134" lon="1.79157">
        <ele>1788</ele>
        <time>2022-08-14T15:12:11Z</time>
      </trkpt>
      <trkpt lat="42.63141" lon="1.79167">
        <ele>1788</ele>
        <time>2022-08-14T15:12:24Z</time>
      </trkpt>
      <trkpt lat="42.63148" lon="1.79175">
        <ele>1788</ele>
        <time>2022-08-14T15:12:34Z</time>
      </trkpt>
      <trkpt lat="42.63158" lon="1.79177">
        <ele>1788</ele>
        <time>2022-08-14T15:12:41Z</time>
      </trkpt>
      <trkpt lat="42.63166" lon="1.79186">
        <ele>1788</ele>
        <time>2022-08-14T15:12:52Z</time>
      </trkpt>
      <trkpt lat="42.63173" lon="1.79195">
        <ele>1788</ele>
        <time>2022-08-14T15:13:03Z</time>
      </trkpt>
      <trkpt lat="42.63181" lon="1.79202">
        <ele>1788</ele>
        <time>2022-08-14T15:13:24Z</time>
      </trkpt>
      <trkpt lat="42.6319" lon="1.79205">
        <ele>1788</ele>
        <time>2022-08-14T15:13:33Z</time>
      </trkpt>
      <trkpt lat="42.6319" lon="1.79219">
        <ele>1788</ele>
        <time>2022-08-14T15:13:46Z</time>
      </trkpt>
      <trkpt lat="42.63196" lon="1.79227">
        <ele>1788</ele>
        <time>2022-08-14T15:14:10Z</time>
      </trkpt>
      <trkpt lat="42.63203" lon="1.79237">
        <ele>1788</ele>
        <time>2022-08-14T15:14:21Z</time>
      </trkpt>
      <trkpt lat="42.63209" lon="1.79246">
        <ele>1788</ele>
        <time>2022-08-14T15:14:32Z</time>
      </trkpt>
      <trkpt lat="42.63204" lon="1.79258">
        <ele>1788</ele>
        <time>2022-08-14T15:14:44Z</time>
      </trkpt>
      <trkpt lat="42.63213" lon="1.79267">
        <ele>1788</ele>
        <time>2022-08-14T15:14:54Z</time>
      </trkpt>
      <trkpt lat="42.63218" lon="1.79278">
        <ele>1788</ele>
        <time>2022-08-14T15:15:02Z</time>
      </trkpt>
      <trkpt lat="42.6322" lon="1.79291">
        <ele>1765</ele>
        <time>2022-08-14T15:16:09Z</time>
      </trkpt>
      <trkpt lat="42.63229" lon="1.79298">
        <ele>1765</ele>
        <time>2022-08-14T15:16:17Z</time>
      </trkpt>
      <trkpt lat="42.63233" lon="1.7931">
        <ele>1765</ele>
        <time>2022-08-14T15:16:26Z</time>
      </trkpt>
      <trkpt lat="42.63235" lon="1.79322">
        <ele>1765</ele>
        <time>2022-08-14T15:16:36Z</time>
      </trkpt>
      <trkpt lat="42.63241" lon="1.79333">
        <ele>1765</ele>
        <time>2022-08-14T15:16:46Z</time>
      </trkpt>
      <trkpt lat="42.63251" lon="1.79334">
        <ele>1765</ele>
        <time>2022-08-14T15:16:52Z</time>
      </trkpt>
      <trkpt lat="42.63259" lon="1.7934">
        <ele>1765</ele>
        <time>2022-08-14T15:17:04Z</time>
      </trkpt>
      <trkpt lat="42.63268" lon="1.79342">
        <ele>1765</ele>
        <time>2022-08-14T15:17:13Z</time>
      </trkpt>
      <trkpt lat="42.63275" lon="1.79351">
        <ele>1765</ele>
        <time>2022-08-14T15:17:24Z</time>
      </trkpt>
      <trkpt lat="42.63284" lon="1.79352">
        <ele>1761</ele>
        <time>2022-08-14T15:17:39Z</time>
      </trkpt>
      <trkpt lat="42.63293" lon="1.79347">
        <ele>1760</ele>
        <time>2022-08-14T15:17:59Z</time>
      </trkpt>
      <trkpt lat="42.633" lon="1.79355">
        <ele>1760</ele>
        <time>2022-08-14T15:18:08Z</time>
      </trkpt>
      <trkpt lat="42.63304" lon="1.79344">
        <ele>1757</ele>
        <time>2022-08-14T15:18:29Z</time>
      </trkpt>
      <trkpt lat="42.63309" lon="1.79333">
        <ele>1757</ele>
        <time>2022-08-14T15:18:46Z</time>
      </trkpt>
      <trkpt lat="42.63308" lon="1.79335">
        <ele>1754</ele>
        <time>2022-08-14T15:19:27Z</time>
      </trkpt>
      <trkpt lat="42.6331" lon="1.79337">
        <ele>1754</ele>
        <time>2022-08-14T15:23:43Z</time>
      </trkpt>
      <trkpt lat="42.63318" lon="1.79334">
        <ele>1754</ele>
        <time>2022-08-14T15:23:48Z</time>
      </trkpt>
      <trkpt lat="42.63318" lon="1.79347">
        <ele>1754</ele>
        <time>2022-08-14T15:24:10Z</time>
      </trkpt>
      <trkpt lat="42.63327" lon="1.7935">
        <ele>1754</ele>
        <time>2022-08-14T15:24:29Z</time>
      </trkpt>
      <trkpt lat="42.63336" lon="1.7935">
        <ele>1754</ele>
        <time>2022-08-14T15:24:38Z</time>
      </trkpt>
      <trkpt lat="42.63347" lon="1.79352">
        <ele>1754</ele>
        <time>2022-08-14T15:24:49Z</time>
      </trkpt>
      <trkpt lat="42.63355" lon="1.79357">
        <ele>1754</ele>
        <time>2022-08-14T15:24:58Z</time>
      </trkpt>
      <trkpt lat="42.63365" lon="1.79361">
        <ele>1754</ele>
        <time>2022-08-14T15:25:06Z</time>
      </trkpt>
      <trkpt lat="42.63375" lon="1.79363">
        <ele>1754</ele>
        <time>2022-08-14T15:25:16Z</time>
      </trkpt>
      <trkpt lat="42.63383" lon="1.7937">
        <ele>1754</ele>
        <time>2022-08-14T15:25:25Z</time>
      </trkpt>
      <trkpt lat="42.63393" lon="1.79371">
        <ele>1754</ele>
        <time>2022-08-14T15:25:35Z</time>
      </trkpt>
      <trkpt lat="42.63402" lon="1.79369">
        <ele>1755</ele>
        <time>2022-08-14T15:25:43Z</time>
      </trkpt>
      <trkpt lat="42.63411" lon="1.79365">
        <ele>1755</ele>
        <time>2022-08-14T15:25:52Z</time>
      </trkpt>
      <trkpt lat="42.6342" lon="1.79361">
        <ele>1755</ele>
        <time>2022-08-14T15:26:02Z</time>
      </trkpt>
      <trkpt lat="42.63429" lon="1.79363">
        <ele>1755</ele>
        <time>2022-08-14T15:26:15Z</time>
      </trkpt>
      <trkpt lat="42.63438" lon="1.79363">
        <ele>1755</ele>
        <time>2022-08-14T15:26:35Z</time>
      </trkpt>
      <trkpt lat="42.63439" lon="1.79375">
        <ele>1755</ele>
        <time>2022-08-14T15:27:05Z</time>
      </trkpt>
      <trkpt lat="42.63448" lon="1.7938">
        <ele>1755</ele>
        <time>2022-08-14T15:27:27Z</time>
      </trkpt>
      <trkpt lat="42.63457" lon="1.79376">
        <ele>1755</ele>
        <time>2022-08-14T15:27:39Z</time>
      </trkpt>
      <trkpt lat="42.63461" lon="1.79365">
        <ele>1755</ele>
        <time>2022-08-14T15:27:48Z</time>
      </trkpt>
      <trkpt lat="42.63469" lon="1.79359">
        <ele>1755</ele>
        <time>2022-08-14T15:27:56Z</time>
      </trkpt>
      <trkpt lat="42.63477" lon="1.79353">
        <ele>1755</ele>
        <time>2022-08-14T15:28:09Z</time>
      </trkpt>
      <trkpt lat="42.63483" lon="1.79342">
        <ele>1755</ele>
        <time>2022-08-14T15:28:20Z</time>
      </trkpt>
      <trkpt lat="42.63489" lon="1.79333">
        <ele>1755</ele>
        <time>2022-08-14T15:28:35Z</time>
      </trkpt>
      <trkpt lat="42.63496" lon="1.79342">
        <ele>1755</ele>
        <time>2022-08-14T15:29:00Z</time>
      </trkpt>
      <trkpt lat="42.63503" lon="1.7935">
        <ele>1755</ele>
        <time>2022-08-14T15:29:08Z</time>
      </trkpt>
      <trkpt lat="42.63508" lon="1.79361">
        <ele>1755</ele>
        <time>2022-08-14T15:29:18Z</time>
      </trkpt>
      <trkpt lat="42.63517" lon="1.79364">
        <ele>1755</ele>
        <time>2022-08-14T15:29:28Z</time>
      </trkpt>
      <trkpt lat="42.63523" lon="1.79373">
        <ele>1755</ele>
        <time>2022-08-14T15:29:35Z</time>
      </trkpt>
      <trkpt lat="42.63532" lon="1.79378">
        <ele>1750</ele>
        <time>2022-08-14T15:29:43Z</time>
      </trkpt>
      <trkpt lat="42.63539" lon="1.79387">
        <ele>1749</ele>
        <time>2022-08-14T15:29:53Z</time>
      </trkpt>
      <trkpt lat="42.63546" lon="1.79394">
        <ele>1749</ele>
        <time>2022-08-14T15:30:01Z</time>
      </trkpt>
      <trkpt lat="42.63552" lon="1.79404">
        <ele>1749</ele>
        <time>2022-08-14T15:30:11Z</time>
      </trkpt>
      <trkpt lat="42.63558" lon="1.79414">
        <ele>1749</ele>
        <time>2022-08-14T15:30:22Z</time>
      </trkpt>
      <trkpt lat="42.63564" lon="1.79423">
        <ele>1749</ele>
        <time>2022-08-14T15:30:31Z</time>
      </trkpt>
      <trkpt lat="42.63573" lon="1.79429">
        <ele>1744</ele>
        <time>2022-08-14T15:30:43Z</time>
      </trkpt>
      <trkpt lat="42.63583" lon="1.79431">
        <ele>1744</ele>
        <time>2022-08-14T15:30:50Z</time>
      </trkpt>
      <trkpt lat="42.63592" lon="1.79434">
        <ele>1744</ele>
        <time>2022-08-14T15:30:58Z</time>
      </trkpt>
      <trkpt lat="42.63602" lon="1.79435">
        <ele>1744</ele>
        <time>2022-08-14T15:31:06Z</time>
      </trkpt>
      <trkpt lat="42.63611" lon="1.79434">
        <ele>1744</ele>
        <time>2022-08-14T15:31:17Z</time>
      </trkpt>
      <trkpt lat="42.63622" lon="1.79434">
        <ele>1744</ele>
        <time>2022-08-14T15:31:26Z</time>
      </trkpt>
      <trkpt lat="42.63629" lon="1.79445">
        <ele>1744</ele>
        <time>2022-08-14T15:31:39Z</time>
      </trkpt>
      <trkpt lat="42.63638" lon="1.79449">
        <ele>1744</ele>
        <time>2022-08-14T15:31:48Z</time>
      </trkpt>
      <trkpt lat="42.63646" lon="1.79455">
        <ele>1744</ele>
        <time>2022-08-14T15:31:59Z</time>
      </trkpt>
      <trkpt lat="42.63656" lon="1.79463">
        <ele>1744</ele>
        <time>2022-08-14T15:32:12Z</time>
      </trkpt>
      <trkpt lat="42.63666" lon="1.79465">
        <ele>1744</ele>
        <time>2022-08-14T15:32:21Z</time>
      </trkpt>
      <trkpt lat="42.63671" lon="1.79475">
        <ele>1744</ele>
        <time>2022-08-14T15:32:32Z</time>
      </trkpt>
      <trkpt lat="42.6367" lon="1.79488">
        <ele>1744</ele>
        <time>2022-08-14T15:33:00Z</time>
      </trkpt>
      <trkpt lat="42.63677" lon="1.79497">
        <ele>1744</ele>
        <time>2022-08-14T15:33:29Z</time>
      </trkpt>
      <trkpt lat="42.63685" lon="1.79502">
        <ele>1744</ele>
        <time>2022-08-14T15:33:40Z</time>
      </trkpt>
      <trkpt lat="42.63698" lon="1.79503">
        <ele>1744</ele>
        <time>2022-08-14T15:33:50Z</time>
      </trkpt>
      <trkpt lat="42.63707" lon="1.79501">
        <ele>1744</ele>
        <time>2022-08-14T15:34:08Z</time>
      </trkpt>
      <trkpt lat="42.63715" lon="1.79507">
        <ele>1744</ele>
        <time>2022-08-14T15:34:19Z</time>
      </trkpt>
      <trkpt lat="42.63721" lon="1.79517">
        <ele>1744</ele>
        <time>2022-08-14T15:34:32Z</time>
      </trkpt>
      <trkpt lat="42.63729" lon="1.79521">
        <ele>1720</ele>
        <time>2022-08-14T15:34:43Z</time>
      </trkpt>
      <trkpt lat="42.63733" lon="1.79533">
        <ele>1720</ele>
        <time>2022-08-14T15:34:57Z</time>
      </trkpt>
      <trkpt lat="42.63738" lon="1.79544">
        <ele>1720</ele>
        <time>2022-08-14T15:35:10Z</time>
      </trkpt>
      <trkpt lat="42.63746" lon="1.79552">
        <ele>1720</ele>
        <time>2022-08-14T15:35:26Z</time>
      </trkpt>
      <trkpt lat="42.6375" lon="1.79563">
        <ele>1720</ele>
        <time>2022-08-14T15:35:37Z</time>
      </trkpt>
      <trkpt lat="42.63756" lon="1.79573">
        <ele>1720</ele>
        <time>2022-08-14T15:35:49Z</time>
      </trkpt>
      <trkpt lat="42.63764" lon="1.79582">
        <ele>1720</ele>
        <time>2022-08-14T15:35:58Z</time>
      </trkpt>
      <trkpt lat="42.63772" lon="1.79589">
        <ele>1720</ele>
        <time>2022-08-14T15:36:11Z</time>
      </trkpt>
      <trkpt lat="42.63778" lon="1.79597">
        <ele>1720</ele>
        <time>2022-08-14T15:36:26Z</time>
      </trkpt>
      <trkpt lat="42.63786" lon="1.79605">
        <ele>1704</ele>
        <time>2022-08-14T15:36:43Z</time>
      </trkpt>
      <trkpt lat="42.63794" lon="1.79613">
        <ele>1702</ele>
        <time>2022-08-14T15:36:53Z</time>
      </trkpt>
      <trkpt lat="42.63799" lon="1.79623">
        <ele>1699</ele>
        <time>2022-08-14T15:37:03Z</time>
      </trkpt>
      <trkpt lat="42.63806" lon="1.79631">
        <ele>1699</ele>
        <time>2022-08-14T15:37:14Z</time>
      </trkpt>
      <trkpt lat="42.63816" lon="1.79631">
        <ele>1698</ele>
        <time>2022-08-14T15:37:23Z</time>
      </trkpt>
      <trkpt lat="42.63825" lon="1.79635">
        <ele>1698</ele>
        <time>2022-08-14T15:37:32Z</time>
      </trkpt>
      <trkpt lat="42.63828" lon="1.79647">
        <ele>1698</ele>
        <time>2022-08-14T15:37:41Z</time>
      </trkpt>
      <trkpt lat="42.63831" lon="1.7966">
        <ele>1698</ele>
        <time>2022-08-14T15:37:47Z</time>
      </trkpt>
      <trkpt lat="42.6383" lon="1.79673">
        <ele>1698</ele>
        <time>2022-08-14T15:37:55Z</time>
      </trkpt>
      <trkpt lat="42.63837" lon="1.79682">
        <ele>1698</ele>
        <time>2022-08-14T15:38:01Z</time>
      </trkpt>
      <trkpt lat="42.63838" lon="1.79695">
        <ele>1698</ele>
        <time>2022-08-14T15:38:16Z</time>
      </trkpt>
      <trkpt lat="42.63836" lon="1.79707">
        <ele>1698</ele>
        <time>2022-08-14T15:38:24Z</time>
      </trkpt>
      <trkpt lat="42.6384" lon="1.7972">
        <ele>1698</ele>
        <time>2022-08-14T15:38:31Z</time>
      </trkpt>
      <trkpt lat="42.63844" lon="1.79731">
        <ele>1698</ele>
        <time>2022-08-14T15:38:39Z</time>
      </trkpt>
      <trkpt lat="42.63846" lon="1.79744">
        <ele>1698</ele>
        <time>2022-08-14T15:38:47Z</time>
      </trkpt>
      <trkpt lat="42.63848" lon="1.79757">
        <ele>1698</ele>
        <time>2022-08-14T15:38:59Z</time>
      </trkpt>
      <trkpt lat="42.63848" lon="1.7977">
        <ele>1698</ele>
        <time>2022-08-14T15:39:07Z</time>
      </trkpt>
      <trkpt lat="42.63847" lon="1.79784">
        <ele>1698</ele>
        <time>2022-08-14T15:39:20Z</time>
      </trkpt>
      <trkpt lat="42.63847" lon="1.79797">
        <ele>1698</ele>
        <time>2022-08-14T15:39:31Z</time>
      </trkpt>
      <trkpt lat="42.63851" lon="1.79808">
        <ele>1698</ele>
        <time>2022-08-14T15:39:42Z</time>
      </trkpt>
      <trkpt lat="42.63861" lon="1.79809">
        <ele>1698</ele>
        <time>2022-08-14T15:40:22Z</time>
      </trkpt>
      <trkpt lat="42.63851" lon="1.7981">
        <ele>1698</ele>
        <time>2022-08-14T15:41:14Z</time>
      </trkpt>
      <trkpt lat="42.63843" lon="1.79813">
        <ele>1698</ele>
        <time>2022-08-14T15:41:59Z</time>
      </trkpt>
      <trkpt lat="42.63768" lon="1.79758">
        <ele>1652.9</ele>
        <time>2022-08-15T07:22:24Z</time>
      </trkpt>
      <trkpt lat="42.63774" lon="1.79768">
        <ele>1652.4</ele>
        <time>2022-08-15T07:22:28Z</time>
      </trkpt>
      <trkpt lat="42.63783" lon="1.79769">
        <ele>1652</ele>
        <time>2022-08-15T07:23:03Z</time>
      </trkpt>
      <trkpt lat="42.63792" lon="1.79768">
        <ele>1652</ele>
        <time>2022-08-15T07:23:15Z</time>
      </trkpt>
      <trkpt lat="42.638" lon="1.79758">
        <ele>1689</ele>
        <time>2022-08-15T07:23:22Z</time>
      </trkpt>
      <trkpt lat="42.63809" lon="1.79756">
        <ele>1689</ele>
        <time>2022-08-15T07:23:32Z</time>
      </trkpt>
      <trkpt lat="42.63818" lon="1.79759">
        <ele>1689</ele>
        <time>2022-08-15T07:23:41Z</time>
      </trkpt>
      <trkpt lat="42.63826" lon="1.79762">
        <ele>1689</ele>
        <time>2022-08-15T07:23:50Z</time>
      </trkpt>
      <trkpt lat="42.63842" lon="1.79768">
        <ele>1689</ele>
        <time>2022-08-15T07:24:00Z</time>
      </trkpt>
      <trkpt lat="42.63857" lon="1.79777">
        <ele>1690</ele>
        <time>2022-08-15T07:24:02Z</time>
      </trkpt>
      <trkpt lat="42.63867" lon="1.79783">
        <ele>1690</ele>
        <time>2022-08-15T07:24:04Z</time>
      </trkpt>
      <trkpt lat="42.63874" lon="1.79789">
        <ele>1690</ele>
        <time>2022-08-15T07:24:07Z</time>
      </trkpt>
      <trkpt lat="42.63883" lon="1.79796">
        <ele>1690</ele>
        <time>2022-08-15T07:24:11Z</time>
      </trkpt>
      <trkpt lat="42.63891" lon="1.79802">
        <ele>1690</ele>
        <time>2022-08-15T07:24:59Z</time>
      </trkpt>
      <trkpt lat="42.63901" lon="1.79808">
        <ele>1690</ele>
        <time>2022-08-15T07:25:29Z</time>
      </trkpt>
      <trkpt lat="42.63903" lon="1.79822">
        <ele>1692</ele>
        <time>2022-08-15T07:25:52Z</time>
      </trkpt>
      <trkpt lat="42.63901" lon="1.79868">
        <ele>1692</ele>
        <time>2022-08-15T07:26:44Z</time>
      </trkpt>
      <trkpt lat="42.63909" lon="1.79861">
        <ele>1692</ele>
        <time>2022-08-15T07:26:49Z</time>
      </trkpt>
      <trkpt lat="42.63903" lon="1.79848">
        <ele>1692</ele>
        <time>2022-08-15T07:26:56Z</time>
      </trkpt>
      <trkpt lat="42.63909" lon="1.79856">
        <ele>1692</ele>
        <time>2022-08-15T07:27:05Z</time>
      </trkpt>
      <trkpt lat="42.63921" lon="1.79856">
        <ele>1692</ele>
        <time>2022-08-15T07:27:14Z</time>
      </trkpt>
      <trkpt lat="42.6393" lon="1.79861">
        <ele>1692</ele>
        <time>2022-08-15T07:27:19Z</time>
      </trkpt>
      <trkpt lat="42.6394" lon="1.79865">
        <ele>1692</ele>
        <time>2022-08-15T07:27:26Z</time>
      </trkpt>
      <trkpt lat="42.6395" lon="1.79865">
        <ele>1692</ele>
        <time>2022-08-15T07:27:37Z</time>
      </trkpt>
      <trkpt lat="42.63958" lon="1.79872">
        <ele>1692</ele>
        <time>2022-08-15T07:27:45Z</time>
      </trkpt>
      <trkpt lat="42.63968" lon="1.79877">
        <ele>1692</ele>
        <time>2022-08-15T07:28:01Z</time>
      </trkpt>
      <trkpt lat="42.63974" lon="1.79887">
        <ele>1692</ele>
        <time>2022-08-15T07:28:07Z</time>
      </trkpt>
      <trkpt lat="42.63983" lon="1.79888">
        <ele>1692</ele>
        <time>2022-08-15T07:28:16Z</time>
      </trkpt>
      <trkpt lat="42.63994" lon="1.79891">
        <ele>1690</ele>
        <time>2022-08-15T07:28:22Z</time>
      </trkpt>
      <trkpt lat="42.64" lon="1.79902">
        <ele>1690</ele>
        <time>2022-08-15T07:28:29Z</time>
      </trkpt>
      <trkpt lat="42.64008" lon="1.7991">
        <ele>1690</ele>
        <time>2022-08-15T07:28:31Z</time>
      </trkpt>
      <trkpt lat="42.64017" lon="1.79914">
        <ele>1690</ele>
        <time>2022-08-15T07:28:36Z</time>
      </trkpt>
      <trkpt lat="42.64023" lon="1.79922">
        <ele>1690</ele>
        <time>2022-08-15T07:28:44Z</time>
      </trkpt>
      <trkpt lat="42.64028" lon="1.79935">
        <ele>1690</ele>
        <time>2022-08-15T07:28:54Z</time>
      </trkpt>
      <trkpt lat="42.64033" lon="1.79947">
        <ele>1690</ele>
        <time>2022-08-15T07:29:04Z</time>
      </trkpt>
      <trkpt lat="42.64038" lon="1.79957">
        <ele>1690</ele>
        <time>2022-08-15T07:29:40Z</time>
      </trkpt>
      <trkpt lat="42.64046" lon="1.79964">
        <ele>1690</ele>
        <time>2022-08-15T07:30:23Z</time>
      </trkpt>
      <trkpt lat="42.64053" lon="1.79973">
        <ele>1690</ele>
        <time>2022-08-15T07:30:30Z</time>
      </trkpt>
      <trkpt lat="42.6406" lon="1.79983">
        <ele>1690</ele>
        <time>2022-08-15T07:30:38Z</time>
      </trkpt>
      <trkpt lat="42.64069" lon="1.79987">
        <ele>1690</ele>
        <time>2022-08-15T07:30:59Z</time>
      </trkpt>
      <trkpt lat="42.64075" lon="1.79999">
        <ele>1690</ele>
        <time>2022-08-15T07:31:13Z</time>
      </trkpt>
      <trkpt lat="42.64079" lon="1.80011">
        <ele>1690</ele>
        <time>2022-08-15T07:31:23Z</time>
      </trkpt>
      <trkpt lat="42.64089" lon="1.80018">
        <ele>1688</ele>
        <time>2022-08-15T07:31:32Z</time>
      </trkpt>
      <trkpt lat="42.64096" lon="1.80024">
        <ele>1688</ele>
        <time>2022-08-15T07:31:38Z</time>
      </trkpt>
      <trkpt lat="42.64102" lon="1.80036">
        <ele>1688</ele>
        <time>2022-08-15T07:31:47Z</time>
      </trkpt>
      <trkpt lat="42.64107" lon="1.80047">
        <ele>1688</ele>
        <time>2022-08-15T07:31:57Z</time>
      </trkpt>
      <trkpt lat="42.64115" lon="1.80054">
        <ele>1688</ele>
        <time>2022-08-15T07:32:11Z</time>
      </trkpt>
      <trkpt lat="42.64125" lon="1.80059">
        <ele>1683</ele>
        <time>2022-08-15T07:32:22Z</time>
      </trkpt>
      <trkpt lat="42.64133" lon="1.80067">
        <ele>1683</ele>
        <time>2022-08-15T07:32:31Z</time>
      </trkpt>
      <trkpt lat="42.64143" lon="1.80067">
        <ele>1683</ele>
        <time>2022-08-15T07:32:38Z</time>
      </trkpt>
      <trkpt lat="42.64151" lon="1.80074">
        <ele>1683</ele>
        <time>2022-08-15T07:32:49Z</time>
      </trkpt>
      <trkpt lat="42.64157" lon="1.80083">
        <ele>1683</ele>
        <time>2022-08-15T07:33:00Z</time>
      </trkpt>
      <trkpt lat="42.64162" lon="1.80093">
        <ele>1675</ele>
        <time>2022-08-15T07:33:12Z</time>
      </trkpt>
      <trkpt lat="42.6417" lon="1.80102">
        <ele>1675</ele>
        <time>2022-08-15T07:33:21Z</time>
      </trkpt>
      <trkpt lat="42.64179" lon="1.80104">
        <ele>1675</ele>
        <time>2022-08-15T07:33:38Z</time>
      </trkpt>
      <trkpt lat="42.64188" lon="1.80109">
        <ele>1675</ele>
        <time>2022-08-15T07:33:44Z</time>
      </trkpt>
      <trkpt lat="42.64189" lon="1.80125">
        <ele>1675</ele>
        <time>2022-08-15T07:33:57Z</time>
      </trkpt>
      <trkpt lat="42.64194" lon="1.80137">
        <ele>1675</ele>
        <time>2022-08-15T07:34:04Z</time>
      </trkpt>
      <trkpt lat="42.64197" lon="1.80148">
        <ele>1675</ele>
        <time>2022-08-15T07:34:15Z</time>
      </trkpt>
      <trkpt lat="42.64197" lon="1.80161">
        <ele>1675</ele>
        <time>2022-08-15T07:34:31Z</time>
      </trkpt>
      <trkpt lat="42.64201" lon="1.80173">
        <ele>1675</ele>
        <time>2022-08-15T07:34:40Z</time>
      </trkpt>
      <trkpt lat="42.64204" lon="1.80188">
        <ele>1675</ele>
        <time>2022-08-15T07:34:51Z</time>
      </trkpt>
      <trkpt lat="42.64213" lon="1.80194">
        <ele>1675</ele>
        <time>2022-08-15T07:35:00Z</time>
      </trkpt>
      <trkpt lat="42.64221" lon="1.80202">
        <ele>1675</ele>
        <time>2022-08-15T07:35:11Z</time>
      </trkpt>
      <trkpt lat="42.6423" lon="1.80203">
        <ele>1675</ele>
        <time>2022-08-15T07:35:20Z</time>
      </trkpt>
      <trkpt lat="42.64235" lon="1.80214">
        <ele>1675</ele>
        <time>2022-08-15T07:35:26Z</time>
      </trkpt>
      <trkpt lat="42.64233" lon="1.80227">
        <ele>1675</ele>
        <time>2022-08-15T07:35:36Z</time>
      </trkpt>
      <trkpt lat="42.64238" lon="1.80238">
        <ele>1675</ele>
        <time>2022-08-15T07:35:43Z</time>
      </trkpt>
      <trkpt lat="42.64247" lon="1.80241">
        <ele>1675</ele>
        <time>2022-08-15T07:35:56Z</time>
      </trkpt>
      <trkpt lat="42.64256" lon="1.80247">
        <ele>1675</ele>
        <time>2022-08-15T07:36:06Z</time>
      </trkpt>
      <trkpt lat="42.64262" lon="1.80257">
        <ele>1675</ele>
        <time>2022-08-15T07:36:16Z</time>
      </trkpt>
      <trkpt lat="42.64273" lon="1.80261">
        <ele>1675</ele>
        <time>2022-08-15T07:36:30Z</time>
      </trkpt>
      <trkpt lat="42.64279" lon="1.8027">
        <ele>1675</ele>
        <time>2022-08-15T07:36:38Z</time>
      </trkpt>
      <trkpt lat="42.64286" lon="1.80278">
        <ele>1675</ele>
        <time>2022-08-15T07:36:57Z</time>
      </trkpt>
      <trkpt lat="42.64294" lon="1.80285">
        <ele>1675</ele>
        <time>2022-08-15T07:37:05Z</time>
      </trkpt>
      <trkpt lat="42.64301" lon="1.80294">
        <ele>1675</ele>
        <time>2022-08-15T07:37:19Z</time>
      </trkpt>
      <trkpt lat="42.64309" lon="1.80302">
        <ele>1675</ele>
        <time>2022-08-15T07:37:31Z</time>
      </trkpt>
      <trkpt lat="42.64317" lon="1.80307">
        <ele>1675</ele>
        <time>2022-08-15T07:37:39Z</time>
      </trkpt>
      <trkpt lat="42.64327" lon="1.80313">
        <ele>1675</ele>
        <time>2022-08-15T07:37:48Z</time>
      </trkpt>
      <trkpt lat="42.64333" lon="1.80323">
        <ele>1675</ele>
        <time>2022-08-15T07:37:56Z</time>
      </trkpt>
      <trkpt lat="42.64341" lon="1.80332">
        <ele>1675</ele>
        <time>2022-08-15T07:38:06Z</time>
      </trkpt>
      <trkpt lat="42.64347" lon="1.80342">
        <ele>1675</ele>
        <time>2022-08-15T07:38:14Z</time>
      </trkpt>
      <trkpt lat="42.64355" lon="1.8035">
        <ele>1675</ele>
        <time>2022-08-15T07:38:23Z</time>
      </trkpt>
      <trkpt lat="42.64364" lon="1.80355">
        <ele>1675</ele>
        <time>2022-08-15T07:38:30Z</time>
      </trkpt>
      <trkpt lat="42.6437" lon="1.80365">
        <ele>1675</ele>
        <time>2022-08-15T07:38:41Z</time>
      </trkpt>
      <trkpt lat="42.64379" lon="1.8037">
        <ele>1675</ele>
        <time>2022-08-15T07:38:54Z</time>
      </trkpt>
      <trkpt lat="42.64387" lon="1.80383">
        <ele>1675</ele>
        <time>2022-08-15T07:39:03Z</time>
      </trkpt>
      <trkpt lat="42.64392" lon="1.80394">
        <ele>1675</ele>
        <time>2022-08-15T07:39:19Z</time>
      </trkpt>
      <trkpt lat="42.64396" lon="1.80405">
        <ele>1675</ele>
        <time>2022-08-15T07:39:29Z</time>
      </trkpt>
      <trkpt lat="42.64406" lon="1.80405">
        <ele>1675</ele>
        <time>2022-08-15T07:39:39Z</time>
      </trkpt>
      <trkpt lat="42.64412" lon="1.80416">
        <ele>1675</ele>
        <time>2022-08-15T07:39:54Z</time>
      </trkpt>
      <trkpt lat="42.6441" lon="1.80429">
        <ele>1617</ele>
        <time>2022-08-15T07:40:02Z</time>
      </trkpt>
      <trkpt lat="42.64416" lon="1.8044">
        <ele>1617</ele>
        <time>2022-08-15T07:40:13Z</time>
      </trkpt>
      <trkpt lat="42.64416" lon="1.80452">
        <ele>1617</ele>
        <time>2022-08-15T07:40:21Z</time>
      </trkpt>
      <trkpt lat="42.64421" lon="1.80465">
        <ele>1617</ele>
        <time>2022-08-15T07:40:31Z</time>
      </trkpt>
      <trkpt lat="42.64429" lon="1.80475">
        <ele>1617</ele>
        <time>2022-08-15T07:40:44Z</time>
      </trkpt>
      <trkpt lat="42.64435" lon="1.80486">
        <ele>1617</ele>
        <time>2022-08-15T07:40:56Z</time>
      </trkpt>
      <trkpt lat="42.64441" lon="1.80497">
        <ele>1617</ele>
        <time>2022-08-15T07:41:07Z</time>
      </trkpt>
      <trkpt lat="42.64446" lon="1.8051">
        <ele>1617</ele>
        <time>2022-08-15T07:41:23Z</time>
      </trkpt>
      <trkpt lat="42.64451" lon="1.80521">
        <ele>1599</ele>
        <time>2022-08-15T07:41:32Z</time>
      </trkpt>
      <trkpt lat="42.64457" lon="1.80531">
        <ele>1599</ele>
        <time>2022-08-15T07:41:39Z</time>
      </trkpt>
      <trkpt lat="42.6446" lon="1.80543">
        <ele>1599</ele>
        <time>2022-08-15T07:41:50Z</time>
      </trkpt>
      <trkpt lat="42.64458" lon="1.80555">
        <ele>1599</ele>
        <time>2022-08-15T07:41:56Z</time>
      </trkpt>
      <trkpt lat="42.64461" lon="1.80568">
        <ele>1599</ele>
        <time>2022-08-15T07:42:10Z</time>
      </trkpt>
      <trkpt lat="42.64468" lon="1.8058">
        <ele>1599</ele>
        <time>2022-08-15T07:42:19Z</time>
      </trkpt>
      <trkpt lat="42.64473" lon="1.80591">
        <ele>1599</ele>
        <time>2022-08-15T07:42:26Z</time>
      </trkpt>
      <trkpt lat="42.6448" lon="1.80598">
        <ele>1599</ele>
        <time>2022-08-15T07:42:40Z</time>
      </trkpt>
      <trkpt lat="42.64489" lon="1.80603">
        <ele>1599</ele>
        <time>2022-08-15T07:42:48Z</time>
      </trkpt>
      <trkpt lat="42.64493" lon="1.80616">
        <ele>1599</ele>
        <time>2022-08-15T07:42:57Z</time>
      </trkpt>
      <trkpt lat="42.64503" lon="1.80618">
        <ele>1599</ele>
        <time>2022-08-15T07:43:19Z</time>
      </trkpt>
      <trkpt lat="42.6451" lon="1.80628">
        <ele>1599</ele>
        <time>2022-08-15T07:43:30Z</time>
      </trkpt>
      <trkpt lat="42.64518" lon="1.80636">
        <ele>1599</ele>
        <time>2022-08-15T07:43:37Z</time>
      </trkpt>
      <trkpt lat="42.64521" lon="1.80649">
        <ele>1599</ele>
        <time>2022-08-15T07:43:45Z</time>
      </trkpt>
      <trkpt lat="42.64522" lon="1.80661">
        <ele>1599</ele>
        <time>2022-08-15T07:43:55Z</time>
      </trkpt>
      <trkpt lat="42.64524" lon="1.80674">
        <ele>1599</ele>
        <time>2022-08-15T07:44:07Z</time>
      </trkpt>
      <trkpt lat="42.64525" lon="1.80688">
        <ele>1599</ele>
        <time>2022-08-15T07:44:27Z</time>
      </trkpt>
      <trkpt lat="42.64525" lon="1.807">
        <ele>1599</ele>
        <time>2022-08-15T07:44:36Z</time>
      </trkpt>
      <trkpt lat="42.64527" lon="1.80712">
        <ele>1587</ele>
        <time>2022-08-15T07:44:52Z</time>
      </trkpt>
      <trkpt lat="42.64533" lon="1.80723">
        <ele>1587</ele>
        <time>2022-08-15T07:44:59Z</time>
      </trkpt>
      <trkpt lat="42.64536" lon="1.80737">
        <ele>1587</ele>
        <time>2022-08-15T07:45:07Z</time>
      </trkpt>
      <trkpt lat="42.64538" lon="1.80751">
        <ele>1587</ele>
        <time>2022-08-15T07:45:16Z</time>
      </trkpt>
      <trkpt lat="42.64545" lon="1.80759">
        <ele>1587</ele>
        <time>2022-08-15T07:45:26Z</time>
      </trkpt>
      <trkpt lat="42.64555" lon="1.80766">
        <ele>1587</ele>
        <time>2022-08-15T07:46:13Z</time>
      </trkpt>
      <trkpt lat="42.64564" lon="1.80776">
        <ele>1587</ele>
        <time>2022-08-15T07:46:23Z</time>
      </trkpt>
      <trkpt lat="42.64573" lon="1.8078">
        <ele>1587</ele>
        <time>2022-08-15T07:46:31Z</time>
      </trkpt>
      <trkpt lat="42.64582" lon="1.80785">
        <ele>1587</ele>
        <time>2022-08-15T07:46:38Z</time>
      </trkpt>
      <trkpt lat="42.64588" lon="1.80795">
        <ele>1587</ele>
        <time>2022-08-15T07:46:43Z</time>
      </trkpt>
      <trkpt lat="42.64595" lon="1.80806">
        <ele>1587</ele>
        <time>2022-08-15T07:46:50Z</time>
      </trkpt>
      <trkpt lat="42.64601" lon="1.80816">
        <ele>1587</ele>
        <time>2022-08-15T07:47:03Z</time>
      </trkpt>
      <trkpt lat="42.64605" lon="1.80828">
        <ele>1587</ele>
        <time>2022-08-15T07:47:11Z</time>
      </trkpt>
      <trkpt lat="42.64612" lon="1.80838">
        <ele>1587</ele>
        <time>2022-08-15T07:47:18Z</time>
      </trkpt>
      <trkpt lat="42.64621" lon="1.8085">
        <ele>1581</ele>
        <time>2022-08-15T07:47:32Z</time>
      </trkpt>
      <trkpt lat="42.64622" lon="1.80864">
        <ele>1581</ele>
        <time>2022-08-15T07:47:37Z</time>
      </trkpt>
      <trkpt lat="42.64624" lon="1.80877">
        <ele>1581</ele>
        <time>2022-08-15T07:47:51Z</time>
      </trkpt>
      <trkpt lat="42.64632" lon="1.8088">
        <ele>1581</ele>
        <time>2022-08-15T07:48:04Z</time>
      </trkpt>
      <trkpt lat="42.6464" lon="1.80889">
        <ele>1579</ele>
        <time>2022-08-15T07:48:12Z</time>
      </trkpt>
      <trkpt lat="42.64651" lon="1.80893">
        <ele>1579</ele>
        <time>2022-08-15T07:48:18Z</time>
      </trkpt>
      <trkpt lat="42.64656" lon="1.80903">
        <ele>1579</ele>
        <time>2022-08-15T07:48:25Z</time>
      </trkpt>
      <trkpt lat="42.64662" lon="1.80916">
        <ele>1579</ele>
        <time>2022-08-15T07:48:34Z</time>
      </trkpt>
      <trkpt lat="42.64667" lon="1.80926">
        <ele>1579</ele>
        <time>2022-08-15T07:48:43Z</time>
      </trkpt>
      <trkpt lat="42.64674" lon="1.80937">
        <ele>1579</ele>
        <time>2022-08-15T07:48:55Z</time>
      </trkpt>
      <trkpt lat="42.64677" lon="1.80949">
        <ele>1579</ele>
        <time>2022-08-15T07:49:09Z</time>
      </trkpt>
      <trkpt lat="42.6468" lon="1.80962">
        <ele>1579</ele>
        <time>2022-08-15T07:49:17Z</time>
      </trkpt>
      <trkpt lat="42.6469" lon="1.80968">
        <ele>1579</ele>
        <time>2022-08-15T07:49:34Z</time>
      </trkpt>
      <trkpt lat="42.64699" lon="1.80976">
        <ele>1579</ele>
        <time>2022-08-15T07:49:41Z</time>
      </trkpt>
      <trkpt lat="42.64706" lon="1.80989">
        <ele>1579</ele>
        <time>2022-08-15T07:49:49Z</time>
      </trkpt>
      <trkpt lat="42.64712" lon="1.80999">
        <ele>1579</ele>
        <time>2022-08-15T07:49:58Z</time>
      </trkpt>
      <trkpt lat="42.64717" lon="1.81009">
        <ele>1579</ele>
        <time>2022-08-15T07:50:05Z</time>
      </trkpt>
      <trkpt lat="42.64726" lon="1.81016">
        <ele>1579</ele>
        <time>2022-08-15T07:50:13Z</time>
      </trkpt>
      <trkpt lat="42.64732" lon="1.81025">
        <ele>1579</ele>
        <time>2022-08-15T07:50:24Z</time>
      </trkpt>
      <trkpt lat="42.64742" lon="1.81033">
        <ele>1579</ele>
        <time>2022-08-15T07:50:35Z</time>
      </trkpt>
      <trkpt lat="42.64751" lon="1.81034">
        <ele>1579</ele>
        <time>2022-08-15T07:50:43Z</time>
      </trkpt>
      <trkpt lat="42.64758" lon="1.81044">
        <ele>1579</ele>
        <time>2022-08-15T07:50:54Z</time>
      </trkpt>
      <trkpt lat="42.64768" lon="1.81049">
        <ele>1568</ele>
        <time>2022-08-15T07:51:02Z</time>
      </trkpt>
      <trkpt lat="42.64784" lon="1.81063">
        <ele>1568</ele>
        <time>2022-08-15T07:51:26Z</time>
      </trkpt>
      <trkpt lat="42.64855" lon="1.81134">
        <ele>1568</ele>
        <time>2022-08-15T07:53:08Z</time>
      </trkpt>
      <trkpt lat="42.64863" lon="1.81141">
        <ele>1568</ele>
        <time>2022-08-15T07:53:17Z</time>
      </trkpt>
      <trkpt lat="42.64872" lon="1.81149">
        <ele>1568</ele>
        <time>2022-08-15T07:53:27Z</time>
      </trkpt>
      <trkpt lat="42.6488" lon="1.81158">
        <ele>1568</ele>
        <time>2022-08-15T07:53:34Z</time>
      </trkpt>
      <trkpt lat="42.64888" lon="1.81164">
        <ele>1532</ele>
        <time>2022-08-15T07:53:42Z</time>
      </trkpt>
      <trkpt lat="42.64897" lon="1.81169">
        <ele>1532</ele>
        <time>2022-08-15T07:53:54Z</time>
      </trkpt>
      <trkpt lat="42.64898" lon="1.81182">
        <ele>1532</ele>
        <time>2022-08-15T07:54:03Z</time>
      </trkpt>
      <trkpt lat="42.64898" lon="1.81195">
        <ele>1532</ele>
        <time>2022-08-15T07:54:13Z</time>
      </trkpt>
      <trkpt lat="42.64904" lon="1.81205">
        <ele>1532</ele>
        <time>2022-08-15T07:54:24Z</time>
      </trkpt>
      <trkpt lat="42.64909" lon="1.81216">
        <ele>1532</ele>
        <time>2022-08-15T07:54:40Z</time>
      </trkpt>
      <trkpt lat="42.64916" lon="1.81225">
        <ele>1532</ele>
        <time>2022-08-15T07:54:49Z</time>
      </trkpt>
      <trkpt lat="42.6492" lon="1.81238">
        <ele>1532</ele>
        <time>2022-08-15T07:54:55Z</time>
      </trkpt>
      <trkpt lat="42.64926" lon="1.81254">
        <ele>1532</ele>
        <time>2022-08-15T07:55:11Z</time>
      </trkpt>
      <trkpt lat="42.64944" lon="1.81277">
        <ele>1532</ele>
        <time>2022-08-15T07:55:34Z</time>
      </trkpt>
      <trkpt lat="42.64951" lon="1.81286">
        <ele>1509</ele>
        <time>2022-08-15T07:55:42Z</time>
      </trkpt>
      <trkpt lat="42.64959" lon="1.81293">
        <ele>1509</ele>
        <time>2022-08-15T07:57:25Z</time>
      </trkpt>
      <trkpt lat="42.64963" lon="1.81305">
        <ele>1509</ele>
        <time>2022-08-15T07:57:45Z</time>
      </trkpt>
      <trkpt lat="42.64969" lon="1.81316">
        <ele>1509</ele>
        <time>2022-08-15T07:57:55Z</time>
      </trkpt>
      <trkpt lat="42.64974" lon="1.81326">
        <ele>1509</ele>
        <time>2022-08-15T07:58:53Z</time>
      </trkpt>
      <trkpt lat="42.64982" lon="1.81333">
        <ele>1501</ele>
        <time>2022-08-15T07:59:02Z</time>
      </trkpt>
      <trkpt lat="42.64999" lon="1.8134">
        <ele>1501</ele>
        <time>2022-08-15T07:59:14Z</time>
      </trkpt>
      <trkpt lat="42.65007" lon="1.81348">
        <ele>1495</ele>
        <time>2022-08-15T07:59:22Z</time>
      </trkpt>
      <trkpt lat="42.65012" lon="1.81361">
        <ele>1491</ele>
        <time>2022-08-15T07:59:42Z</time>
      </trkpt>
      <trkpt lat="42.65018" lon="1.81373">
        <ele>1488</ele>
        <time>2022-08-15T07:59:52Z</time>
      </trkpt>
      <trkpt lat="42.65024" lon="1.81386">
        <ele>1488</ele>
        <time>2022-08-15T08:00:00Z</time>
      </trkpt>
      <trkpt lat="42.65031" lon="1.81396">
        <ele>1488</ele>
        <time>2022-08-15T08:00:13Z</time>
      </trkpt>
      <trkpt lat="42.65039" lon="1.81404">
        <ele>1488</ele>
        <time>2022-08-15T08:00:21Z</time>
      </trkpt>
      <trkpt lat="42.65044" lon="1.81416">
        <ele>1488</ele>
        <time>2022-08-15T08:00:31Z</time>
      </trkpt>
      <trkpt lat="42.65049" lon="1.81426">
        <ele>1488</ele>
        <time>2022-08-15T08:00:39Z</time>
      </trkpt>
      <trkpt lat="42.6505" lon="1.81439">
        <ele>1488</ele>
        <time>2022-08-15T08:00:57Z</time>
      </trkpt>
      <trkpt lat="42.65053" lon="1.81451">
        <ele>1488</ele>
        <time>2022-08-15T08:01:06Z</time>
      </trkpt>
      <trkpt lat="42.65057" lon="1.81464">
        <ele>1488</ele>
        <time>2022-08-15T08:01:16Z</time>
      </trkpt>
      <trkpt lat="42.65058" lon="1.81478">
        <ele>1488</ele>
        <time>2022-08-15T08:01:27Z</time>
      </trkpt>
      <trkpt lat="42.6505" lon="1.81484">
        <ele>1488</ele>
        <time>2022-08-15T08:01:35Z</time>
      </trkpt>
      <trkpt lat="42.65049" lon="1.81499">
        <ele>1488</ele>
        <time>2022-08-15T08:02:00Z</time>
      </trkpt>
      <trkpt lat="42.65048" lon="1.81512">
        <ele>1488</ele>
        <time>2022-08-15T08:02:15Z</time>
      </trkpt>
      <trkpt lat="42.65051" lon="1.81524">
        <ele>1488</ele>
        <time>2022-08-15T08:02:24Z</time>
      </trkpt>
      <trkpt lat="42.65059" lon="1.81533">
        <ele>1488</ele>
        <time>2022-08-15T08:02:45Z</time>
      </trkpt>
      <trkpt lat="42.65068" lon="1.81536">
        <ele>1444</ele>
        <time>2022-08-15T08:02:52Z</time>
      </trkpt>
      <trkpt lat="42.65075" lon="1.81544">
        <ele>1444</ele>
        <time>2022-08-15T08:03:00Z</time>
      </trkpt>
      <trkpt lat="42.65082" lon="1.81552">
        <ele>1444</ele>
        <time>2022-08-15T08:03:09Z</time>
      </trkpt>
      <trkpt lat="42.65089" lon="1.81561">
        <ele>1444</ele>
        <time>2022-08-15T08:03:15Z</time>
      </trkpt>
      <trkpt lat="42.65095" lon="1.8157">
        <ele>1434</ele>
        <time>2022-08-15T08:03:22Z</time>
      </trkpt>
      <trkpt lat="42.65104" lon="1.81571">
        <ele>1434</ele>
        <time>2022-08-15T08:03:28Z</time>
      </trkpt>
      <trkpt lat="42.65113" lon="1.81577">
        <ele>1434</ele>
        <time>2022-08-15T08:03:41Z</time>
      </trkpt>
      <trkpt lat="42.65116" lon="1.81589">
        <ele>1434</ele>
        <time>2022-08-15T08:03:48Z</time>
      </trkpt>
      <trkpt lat="42.65116" lon="1.81602">
        <ele>1434</ele>
        <time>2022-08-15T08:04:01Z</time>
      </trkpt>
      <trkpt lat="42.65121" lon="1.81612">
        <ele>1413</ele>
        <time>2022-08-15T08:04:22Z</time>
      </trkpt>
      <trkpt lat="42.65126" lon="1.81622">
        <ele>1413</ele>
        <time>2022-08-15T08:04:33Z</time>
      </trkpt>
      <trkpt lat="42.65123" lon="1.81636">
        <ele>1413</ele>
        <time>2022-08-15T08:04:53Z</time>
      </trkpt>
      <trkpt lat="42.65121" lon="1.81649">
        <ele>1413</ele>
        <time>2022-08-15T08:05:09Z</time>
      </trkpt>
      <trkpt lat="42.65115" lon="1.81658">
        <ele>1413</ele>
        <time>2022-08-15T08:05:20Z</time>
      </trkpt>
      <trkpt lat="42.65111" lon="1.81671">
        <ele>1413</ele>
        <time>2022-08-15T08:05:35Z</time>
      </trkpt>
      <trkpt lat="42.65105" lon="1.81681">
        <ele>1413</ele>
        <time>2022-08-15T08:06:03Z</time>
      </trkpt>
      <trkpt lat="42.65114" lon="1.8169">
        <ele>1413</ele>
        <time>2022-08-15T08:06:21Z</time>
      </trkpt>
      <trkpt lat="42.65204" lon="1.81837">
        <ele>1413</ele>
        <time>2022-08-15T08:08:01Z</time>
      </trkpt>
      <trkpt lat="42.65208" lon="1.81849">
        <ele>1413</ele>
        <time>2022-08-15T08:08:11Z</time>
      </trkpt>
      <trkpt lat="42.6521" lon="1.81862">
        <ele>1413</ele>
        <time>2022-08-15T08:08:18Z</time>
      </trkpt>
      <trkpt lat="42.6521" lon="1.81875">
        <ele>1413</ele>
        <time>2022-08-15T08:08:30Z</time>
      </trkpt>
      <trkpt lat="42.65216" lon="1.81886">
        <ele>1413</ele>
        <time>2022-08-15T08:08:39Z</time>
      </trkpt>
      <trkpt lat="42.65223" lon="1.81896">
        <ele>1413</ele>
        <time>2022-08-15T08:08:48Z</time>
      </trkpt>
      <trkpt lat="42.65218" lon="1.81908">
        <ele>1413</ele>
        <time>2022-08-15T08:08:59Z</time>
      </trkpt>
      <trkpt lat="42.65207" lon="1.81915">
        <ele>1413</ele>
        <time>2022-08-15T08:09:04Z</time>
      </trkpt>
      <trkpt lat="42.65216" lon="1.81921">
        <ele>1413</ele>
        <time>2022-08-15T08:09:16Z</time>
      </trkpt>
      <trkpt lat="42.65209" lon="1.81929">
        <ele>1413</ele>
        <time>2022-08-15T08:09:27Z</time>
      </trkpt>
      <trkpt lat="42.65204" lon="1.81939">
        <ele>1413</ele>
        <time>2022-08-15T08:09:44Z</time>
      </trkpt>
      <trkpt lat="42.6521" lon="1.8195">
        <ele>1413</ele>
        <time>2022-08-15T08:09:59Z</time>
      </trkpt>
      <trkpt lat="42.65202" lon="1.8196">
        <ele>1413</ele>
        <time>2022-08-15T08:10:08Z</time>
      </trkpt>
      <trkpt lat="42.65197" lon="1.8197">
        <ele>1413</ele>
        <time>2022-08-15T08:10:26Z</time>
      </trkpt>
      <trkpt lat="42.65194" lon="1.81982">
        <ele>1413</ele>
        <time>2022-08-15T08:10:35Z</time>
      </trkpt>
      <trkpt lat="42.65189" lon="1.81994">
        <ele>1413</ele>
        <time>2022-08-15T08:10:44Z</time>
      </trkpt>
      <trkpt lat="42.65188" lon="1.82006">
        <ele>1413</ele>
        <time>2022-08-15T08:10:53Z</time>
      </trkpt>
      <trkpt lat="42.65189" lon="1.8202">
        <ele>1413</ele>
        <time>2022-08-15T08:11:04Z</time>
      </trkpt>
      <trkpt lat="42.65189" lon="1.82034">
        <ele>1413</ele>
        <time>2022-08-15T08:11:13Z</time>
      </trkpt>
      <trkpt lat="42.65189" lon="1.82046">
        <ele>1413</ele>
        <time>2022-08-15T08:11:20Z</time>
      </trkpt>
      <trkpt lat="42.65194" lon="1.82058">
        <ele>1413</ele>
        <time>2022-08-15T08:11:31Z</time>
      </trkpt>
      <trkpt lat="42.65202" lon="1.82065">
        <ele>1413</ele>
        <time>2022-08-15T08:11:37Z</time>
      </trkpt>
      <trkpt lat="42.65207" lon="1.82077">
        <ele>1413</ele>
        <time>2022-08-15T08:11:43Z</time>
      </trkpt>
      <trkpt lat="42.65211" lon="1.82089">
        <ele>1413</ele>
        <time>2022-08-15T08:11:53Z</time>
      </trkpt>
      <trkpt lat="42.65217" lon="1.82099">
        <ele>1413</ele>
        <time>2022-08-15T08:12:03Z</time>
      </trkpt>
      <trkpt lat="42.65226" lon="1.82108">
        <ele>1413</ele>
        <time>2022-08-15T08:12:11Z</time>
      </trkpt>
      <trkpt lat="42.65236" lon="1.82121">
        <ele>1413</ele>
        <time>2022-08-15T08:12:18Z</time>
      </trkpt>
      <trkpt lat="42.65241" lon="1.82132">
        <ele>1413</ele>
        <time>2022-08-15T08:12:24Z</time>
      </trkpt>
      <trkpt lat="42.65251" lon="1.82142">
        <ele>1413</ele>
        <time>2022-08-15T08:12:36Z</time>
      </trkpt>
      <trkpt lat="42.65254" lon="1.82154">
        <ele>1292</ele>
        <time>2022-08-15T08:12:42Z</time>
      </trkpt>
      <trkpt lat="42.65259" lon="1.82166">
        <ele>1292</ele>
        <time>2022-08-15T08:12:48Z</time>
      </trkpt>
      <trkpt lat="42.65262" lon="1.82179">
        <ele>1292</ele>
        <time>2022-08-15T08:12:56Z</time>
      </trkpt>
      <trkpt lat="42.65274" lon="1.82188">
        <ele>1292</ele>
        <time>2022-08-15T08:13:05Z</time>
      </trkpt>
      <trkpt lat="42.65279" lon="1.822">
        <ele>1284</ele>
        <time>2022-08-15T08:13:12Z</time>
      </trkpt>
      <trkpt lat="42.65283" lon="1.82215">
        <ele>1284</ele>
        <time>2022-08-15T08:13:23Z</time>
      </trkpt>
      <trkpt lat="42.6529" lon="1.82227">
        <ele>1284</ele>
        <time>2022-08-15T08:13:30Z</time>
      </trkpt>
      <trkpt lat="42.65296" lon="1.82236">
        <ele>1284</ele>
        <time>2022-08-15T08:13:34Z</time>
      </trkpt>
      <trkpt lat="42.65301" lon="1.82249">
        <ele>1284</ele>
        <time>2022-08-15T08:13:49Z</time>
      </trkpt>
      <trkpt lat="42.65306" lon="1.82259">
        <ele>1284</ele>
        <time>2022-08-15T08:13:57Z</time>
      </trkpt>
      <trkpt lat="42.65306" lon="1.82272">
        <ele>1284</ele>
        <time>2022-08-15T08:14:09Z</time>
      </trkpt>
      <trkpt lat="42.65313" lon="1.82282">
        <ele>1284</ele>
        <time>2022-08-15T08:14:16Z</time>
      </trkpt>
      <trkpt lat="42.65319" lon="1.82292">
        <ele>1284</ele>
        <time>2022-08-15T08:14:20Z</time>
      </trkpt>
      <trkpt lat="42.65316" lon="1.82303">
        <ele>1284</ele>
        <time>2022-08-15T08:14:29Z</time>
      </trkpt>
      <trkpt lat="42.65317" lon="1.82317">
        <ele>1284</ele>
        <time>2022-08-15T08:14:39Z</time>
      </trkpt>
      <trkpt lat="42.65326" lon="1.82327">
        <ele>1284</ele>
        <time>2022-08-15T08:14:44Z</time>
      </trkpt>
      <trkpt lat="42.65331" lon="1.82338">
        <ele>1284</ele>
        <time>2022-08-15T08:14:51Z</time>
      </trkpt>
      <trkpt lat="42.65336" lon="1.82349">
        <ele>1284</ele>
        <time>2022-08-15T08:14:58Z</time>
      </trkpt>
      <trkpt lat="42.6534" lon="1.8236">
        <ele>1284</ele>
        <time>2022-08-15T08:15:11Z</time>
      </trkpt>
      <trkpt lat="42.6534" lon="1.82373">
        <ele>1284</ele>
        <time>2022-08-15T08:15:21Z</time>
      </trkpt>
      <trkpt lat="42.65344" lon="1.82385">
        <ele>1284</ele>
        <time>2022-08-15T08:15:28Z</time>
      </trkpt>
      <trkpt lat="42.65347" lon="1.82398">
        <ele>1284</ele>
        <time>2022-08-15T08:15:37Z</time>
      </trkpt>
      <trkpt lat="42.65351" lon="1.8241">
        <ele>1284</ele>
        <time>2022-08-15T08:15:46Z</time>
      </trkpt>
      <trkpt lat="42.65358" lon="1.82419">
        <ele>1265</ele>
        <time>2022-08-15T08:15:52Z</time>
      </trkpt>
      <trkpt lat="42.65364" lon="1.82428">
        <ele>1265</ele>
        <time>2022-08-15T08:15:57Z</time>
      </trkpt>
      <trkpt lat="42.65369" lon="1.82439">
        <ele>1265</ele>
        <time>2022-08-15T08:16:05Z</time>
      </trkpt>
      <trkpt lat="42.65377" lon="1.82449">
        <ele>1264</ele>
        <time>2022-08-15T08:16:12Z</time>
      </trkpt>
      <trkpt lat="42.65382" lon="1.82459">
        <ele>1264</ele>
        <time>2022-08-15T08:16:18Z</time>
      </trkpt>
      <trkpt lat="42.6539" lon="1.82465">
        <ele>1262</ele>
        <time>2022-08-15T08:16:22Z</time>
      </trkpt>
      <trkpt lat="42.65389" lon="1.82478">
        <ele>1262</ele>
        <time>2022-08-15T08:16:29Z</time>
      </trkpt>
      <trkpt lat="42.6539" lon="1.82491">
        <ele>1262</ele>
        <time>2022-08-15T08:16:37Z</time>
      </trkpt>
      <trkpt lat="42.65392" lon="1.82504">
        <ele>1262</ele>
        <time>2022-08-15T08:16:46Z</time>
      </trkpt>
      <trkpt lat="42.65397" lon="1.82518">
        <ele>1262</ele>
        <time>2022-08-15T08:16:54Z</time>
      </trkpt>
      <trkpt lat="42.65406" lon="1.82526">
        <ele>1262</ele>
        <time>2022-08-15T08:16:57Z</time>
      </trkpt>
      <trkpt lat="42.65412" lon="1.82536">
        <ele>1262</ele>
        <time>2022-08-15T08:17:03Z</time>
      </trkpt>
      <trkpt lat="42.65408" lon="1.82547">
        <ele>1262</ele>
        <time>2022-08-15T08:17:13Z</time>
      </trkpt>
      <trkpt lat="42.65407" lon="1.82561">
        <ele>1262</ele>
        <time>2022-08-15T08:17:20Z</time>
      </trkpt>
      <trkpt lat="42.65406" lon="1.82575">
        <ele>1262</ele>
        <time>2022-08-15T08:17:27Z</time>
      </trkpt>
      <trkpt lat="42.65414" lon="1.82587">
        <ele>1262</ele>
        <time>2022-08-15T08:17:33Z</time>
      </trkpt>
      <trkpt lat="42.65419" lon="1.82597">
        <ele>1262</ele>
        <time>2022-08-15T08:17:37Z</time>
      </trkpt>
      <trkpt lat="42.65426" lon="1.82613">
        <ele>1262</ele>
        <time>2022-08-15T08:17:50Z</time>
      </trkpt>
      <trkpt lat="42.6543" lon="1.82627">
        <ele>1262</ele>
        <time>2022-08-15T08:18:00Z</time>
      </trkpt>
      <trkpt lat="42.65431" lon="1.8264">
        <ele>1262</ele>
        <time>2022-08-15T08:18:05Z</time>
      </trkpt>
      <trkpt lat="42.65429" lon="1.82656">
        <ele>1262</ele>
        <time>2022-08-15T08:18:14Z</time>
      </trkpt>
      <trkpt lat="42.65432" lon="1.82668">
        <ele>1262</ele>
        <time>2022-08-15T08:18:23Z</time>
      </trkpt>
      <trkpt lat="42.65432" lon="1.82681">
        <ele>1262</ele>
        <time>2022-08-15T08:18:30Z</time>
      </trkpt>
      <trkpt lat="42.65431" lon="1.82696">
        <ele>1262</ele>
        <time>2022-08-15T08:18:41Z</time>
      </trkpt>
      <trkpt lat="42.65429" lon="1.82709">
        <ele>1262</ele>
        <time>2022-08-15T08:18:49Z</time>
      </trkpt>
      <trkpt lat="42.65428" lon="1.82723">
        <ele>1262</ele>
        <time>2022-08-15T08:19:00Z</time>
      </trkpt>
      <trkpt lat="42.65433" lon="1.82733">
        <ele>1262</ele>
        <time>2022-08-15T08:19:10Z</time>
      </trkpt>
      <trkpt lat="42.65429" lon="1.82746">
        <ele>1262</ele>
        <time>2022-08-15T08:19:18Z</time>
      </trkpt>
      <trkpt lat="42.65425" lon="1.82757">
        <ele>1262</ele>
        <time>2022-08-15T08:19:23Z</time>
      </trkpt>
      <trkpt lat="42.65432" lon="1.82766">
        <ele>1262</ele>
        <time>2022-08-15T08:19:31Z</time>
      </trkpt>
      <trkpt lat="42.65434" lon="1.82778">
        <ele>1262</ele>
        <time>2022-08-15T08:19:40Z</time>
      </trkpt>
      <trkpt lat="42.65433" lon="1.82792">
        <ele>1262</ele>
        <time>2022-08-15T08:19:50Z</time>
      </trkpt>
      <trkpt lat="42.65435" lon="1.82804">
        <ele>1262</ele>
        <time>2022-08-15T08:19:55Z</time>
      </trkpt>
      <trkpt lat="42.65433" lon="1.82817">
        <ele>1262</ele>
        <time>2022-08-15T08:20:07Z</time>
      </trkpt>
      <trkpt lat="42.65434" lon="1.8283">
        <ele>1262</ele>
        <time>2022-08-15T08:20:16Z</time>
      </trkpt>
      <trkpt lat="42.65431" lon="1.82842">
        <ele>1262</ele>
        <time>2022-08-15T08:20:24Z</time>
      </trkpt>
      <trkpt lat="42.65428" lon="1.82854">
        <ele>1262</ele>
        <time>2022-08-15T08:20:38Z</time>
      </trkpt>
      <trkpt lat="42.65424" lon="1.82865">
        <ele>1262</ele>
        <time>2022-08-15T08:20:47Z</time>
      </trkpt>
      <trkpt lat="42.65423" lon="1.82879">
        <ele>1262</ele>
        <time>2022-08-15T08:20:57Z</time>
      </trkpt>
      <trkpt lat="42.65424" lon="1.82892">
        <ele>1262</ele>
        <time>2022-08-15T08:21:13Z</time>
      </trkpt>
      <trkpt lat="42.65432" lon="1.82901">
        <ele>1262</ele>
        <time>2022-08-15T08:21:35Z</time>
      </trkpt>
      <trkpt lat="42.65442" lon="1.82905">
        <ele>1262</ele>
        <time>2022-08-15T08:21:46Z</time>
      </trkpt>
      <trkpt lat="42.65451" lon="1.82913">
        <ele>1262</ele>
        <time>2022-08-15T08:21:54Z</time>
      </trkpt>
      <trkpt lat="42.65461" lon="1.82917">
        <ele>1262</ele>
        <time>2022-08-15T08:22:06Z</time>
      </trkpt>
      <trkpt lat="42.65471" lon="1.82918">
        <ele>1186</ele>
        <time>2022-08-15T08:22:12Z</time>
      </trkpt>
      <trkpt lat="42.6548" lon="1.8292">
        <ele>1186</ele>
        <time>2022-08-15T08:22:19Z</time>
      </trkpt>
      <trkpt lat="42.6549" lon="1.8293">
        <ele>1186</ele>
        <time>2022-08-15T08:22:30Z</time>
      </trkpt>
      <trkpt lat="42.65495" lon="1.8294">
        <ele>1186</ele>
        <time>2022-08-15T08:22:36Z</time>
      </trkpt>
      <trkpt lat="42.655" lon="1.82952">
        <ele>1186</ele>
        <time>2022-08-15T08:22:44Z</time>
      </trkpt>
      <trkpt lat="42.65499" lon="1.82966">
        <ele>1186</ele>
        <time>2022-08-15T08:22:55Z</time>
      </trkpt>
      <trkpt lat="42.65498" lon="1.82979">
        <ele>1186</ele>
        <time>2022-08-15T08:23:07Z</time>
      </trkpt>
      <trkpt lat="42.65501" lon="1.82991">
        <ele>1186</ele>
        <time>2022-08-15T08:23:14Z</time>
      </trkpt>
      <trkpt lat="42.65506" lon="1.83003">
        <ele>1186</ele>
        <time>2022-08-15T08:23:28Z</time>
      </trkpt>
      <trkpt lat="42.65504" lon="1.83018">
        <ele>1186</ele>
        <time>2022-08-15T08:23:39Z</time>
      </trkpt>
      <trkpt lat="42.65505" lon="1.83031">
        <ele>1186</ele>
        <time>2022-08-15T08:23:46Z</time>
      </trkpt>
      <trkpt lat="42.6551" lon="1.83043">
        <ele>1186</ele>
        <time>2022-08-15T08:23:53Z</time>
      </trkpt>
      <trkpt lat="42.65511" lon="1.83056">
        <ele>1186</ele>
        <time>2022-08-15T08:23:58Z</time>
      </trkpt>
      <trkpt lat="42.65513" lon="1.83068">
        <ele>1186</ele>
        <time>2022-08-15T08:24:06Z</time>
      </trkpt>
      <trkpt lat="42.65517" lon="1.83083">
        <ele>1186</ele>
        <time>2022-08-15T08:24:18Z</time>
      </trkpt>
      <trkpt lat="42.65519" lon="1.83096">
        <ele>1186</ele>
        <time>2022-08-15T08:24:29Z</time>
      </trkpt>
      <trkpt lat="42.65518" lon="1.8311">
        <ele>1186</ele>
        <time>2022-08-15T08:24:34Z</time>
      </trkpt>
      <trkpt lat="42.65514" lon="1.83126">
        <ele>1186</ele>
        <time>2022-08-15T08:24:44Z</time>
      </trkpt>
      <trkpt lat="42.65515" lon="1.83141">
        <ele>1186</ele>
        <time>2022-08-15T08:24:51Z</time>
      </trkpt>
      <trkpt lat="42.65515" lon="1.83156">
        <ele>1186</ele>
        <time>2022-08-15T08:25:00Z</time>
      </trkpt>
      <trkpt lat="42.65517" lon="1.83168">
        <ele>1186</ele>
        <time>2022-08-15T08:25:08Z</time>
      </trkpt>
      <trkpt lat="42.65513" lon="1.83181">
        <ele>1186</ele>
        <time>2022-08-15T08:25:16Z</time>
      </trkpt>
      <trkpt lat="42.65514" lon="1.83193">
        <ele>1186</ele>
        <time>2022-08-15T08:25:24Z</time>
      </trkpt>
      <trkpt lat="42.65505" lon="1.83197">
        <ele>1186</ele>
        <time>2022-08-15T08:26:37Z</time>
      </trkpt>
      <trkpt lat="42.65515" lon="1.83199">
        <ele>1186</ele>
        <time>2022-08-15T08:26:53Z</time>
      </trkpt>
      <trkpt lat="42.65522" lon="1.8321">
        <ele>1140</ele>
        <time>2022-08-15T08:27:02Z</time>
      </trkpt>
      <trkpt lat="42.6553" lon="1.83221">
        <ele>1140</ele>
        <time>2022-08-15T08:27:09Z</time>
      </trkpt>
      <trkpt lat="42.65538" lon="1.83227">
        <ele>1140</ele>
        <time>2022-08-15T08:27:16Z</time>
      </trkpt>
      <trkpt lat="42.65548" lon="1.83231">
        <ele>1140</ele>
        <time>2022-08-15T08:27:24Z</time>
      </trkpt>
      <trkpt lat="42.65557" lon="1.83237">
        <ele>1140</ele>
        <time>2022-08-15T08:27:30Z</time>
      </trkpt>
      <trkpt lat="42.65556" lon="1.83251">
        <ele>1140</ele>
        <time>2022-08-15T08:27:40Z</time>
      </trkpt>
      <trkpt lat="42.65551" lon="1.83262">
        <ele>1140</ele>
        <time>2022-08-15T08:27:48Z</time>
      </trkpt>
      <trkpt lat="42.65548" lon="1.83275">
        <ele>1140</ele>
        <time>2022-08-15T08:27:56Z</time>
      </trkpt>
      <trkpt lat="42.65546" lon="1.83288">
        <ele>1140</ele>
        <time>2022-08-15T08:28:03Z</time>
      </trkpt>
      <trkpt lat="42.65547" lon="1.83302">
        <ele>1140</ele>
        <time>2022-08-15T08:28:10Z</time>
      </trkpt>
      <trkpt lat="42.65551" lon="1.83316">
        <ele>1140</ele>
        <time>2022-08-15T08:28:16Z</time>
      </trkpt>
      <trkpt lat="42.65557" lon="1.83329">
        <ele>1140</ele>
        <time>2022-08-15T08:28:24Z</time>
      </trkpt>
      <trkpt lat="42.65561" lon="1.83343">
        <ele>1140</ele>
        <time>2022-08-15T08:28:41Z</time>
      </trkpt>
      <trkpt lat="42.65564" lon="1.83356">
        <ele>1140</ele>
        <time>2022-08-15T08:28:47Z</time>
      </trkpt>
      <trkpt lat="42.65562" lon="1.83369">
        <ele>1140</ele>
        <time>2022-08-15T08:28:57Z</time>
      </trkpt>
      <trkpt lat="42.65565" lon="1.83381">
        <ele>1140</ele>
        <time>2022-08-15T08:29:05Z</time>
      </trkpt>
      <trkpt lat="42.65564" lon="1.83395">
        <ele>1123</ele>
        <time>2022-08-15T08:29:12Z</time>
      </trkpt>
      <trkpt lat="42.65568" lon="1.83408">
        <ele>1123</ele>
        <time>2022-08-15T08:29:18Z</time>
      </trkpt>
      <trkpt lat="42.65567" lon="1.83425">
        <ele>1123</ele>
        <time>2022-08-15T08:29:25Z</time>
      </trkpt>
      <trkpt lat="42.6557" lon="1.83438">
        <ele>1123</ele>
        <time>2022-08-15T08:29:36Z</time>
      </trkpt>
      <trkpt lat="42.65579" lon="1.83443">
        <ele>1123</ele>
        <time>2022-08-15T08:29:45Z</time>
      </trkpt>
      <trkpt lat="42.65587" lon="1.83449">
        <ele>1123</ele>
        <time>2022-08-15T08:29:53Z</time>
      </trkpt>
      <trkpt lat="42.65595" lon="1.83446">
        <ele>1123</ele>
        <time>2022-08-15T08:30:01Z</time>
      </trkpt>
      <trkpt lat="42.65606" lon="1.83448">
        <ele>1118</ele>
        <time>2022-08-15T08:30:12Z</time>
      </trkpt>
      <trkpt lat="42.65614" lon="1.83454">
        <ele>1118</ele>
        <time>2022-08-15T08:30:17Z</time>
      </trkpt>
      <trkpt lat="42.65623" lon="1.83459">
        <ele>1118</ele>
        <time>2022-08-15T08:30:26Z</time>
      </trkpt>
      <trkpt lat="42.65621" lon="1.83471">
        <ele>1118</ele>
        <time>2022-08-15T08:30:34Z</time>
      </trkpt>
      <trkpt lat="42.6562" lon="1.83485">
        <ele>1118</ele>
        <time>2022-08-15T08:30:41Z</time>
      </trkpt>
      <trkpt lat="42.65612" lon="1.83496">
        <ele>1118</ele>
        <time>2022-08-15T08:30:48Z</time>
      </trkpt>
      <trkpt lat="42.65608" lon="1.83506">
        <ele>1118</ele>
        <time>2022-08-15T08:30:56Z</time>
      </trkpt>
      <trkpt lat="42.656" lon="1.83513">
        <ele>1118</ele>
        <time>2022-08-15T08:31:04Z</time>
      </trkpt>
      <trkpt lat="42.65595" lon="1.83524">
        <ele>1118</ele>
        <time>2022-08-15T08:31:10Z</time>
      </trkpt>
      <trkpt lat="42.65588" lon="1.83534">
        <ele>1118</ele>
        <time>2022-08-15T08:31:18Z</time>
      </trkpt>
      <trkpt lat="42.65581" lon="1.83541">
        <ele>1118</ele>
        <time>2022-08-15T08:31:24Z</time>
      </trkpt>
      <trkpt lat="42.65589" lon="1.83548">
        <ele>1118</ele>
        <time>2022-08-15T08:31:41Z</time>
      </trkpt>
      <trkpt lat="42.65598" lon="1.83546">
        <ele>1118</ele>
        <time>2022-08-15T08:31:47Z</time>
      </trkpt>
      <trkpt lat="42.65607" lon="1.83544">
        <ele>1118</ele>
        <time>2022-08-15T08:31:55Z</time>
      </trkpt>
      <trkpt lat="42.65617" lon="1.8354">
        <ele>1118</ele>
        <time>2022-08-15T08:32:03Z</time>
      </trkpt>
      <trkpt lat="42.65627" lon="1.8354">
        <ele>1118</ele>
        <time>2022-08-15T08:32:14Z</time>
      </trkpt>
      <trkpt lat="42.65635" lon="1.83551">
        <ele>1118</ele>
        <time>2022-08-15T08:32:18Z</time>
      </trkpt>
      <trkpt lat="42.65635" lon="1.83563">
        <ele>1118</ele>
        <time>2022-08-15T08:32:24Z</time>
      </trkpt>
      <trkpt lat="42.65642" lon="1.83571">
        <ele>1118</ele>
        <time>2022-08-15T08:32:41Z</time>
      </trkpt>
      <trkpt lat="42.6565" lon="1.83579">
        <ele>1118</ele>
        <time>2022-08-15T08:32:51Z</time>
      </trkpt>
      <trkpt lat="42.65659" lon="1.83579">
        <ele>1118</ele>
        <time>2022-08-15T08:32:56Z</time>
      </trkpt>
      <trkpt lat="42.65667" lon="1.83589">
        <ele>1107</ele>
        <time>2022-08-15T08:33:02Z</time>
      </trkpt>
      <trkpt lat="42.65676" lon="1.83589">
        <ele>1107</ele>
        <time>2022-08-15T08:33:09Z</time>
      </trkpt>
      <trkpt lat="42.65685" lon="1.83587">
        <ele>1107</ele>
        <time>2022-08-15T08:33:21Z</time>
      </trkpt>
      <trkpt lat="42.65694" lon="1.83588">
        <ele>1107</ele>
        <time>2022-08-15T08:33:31Z</time>
      </trkpt>
      <trkpt lat="42.65703" lon="1.8359">
        <ele>1107</ele>
        <time>2022-08-15T08:33:41Z</time>
      </trkpt>
      <trkpt lat="42.65713" lon="1.83588">
        <ele>1107</ele>
        <time>2022-08-15T08:33:51Z</time>
      </trkpt>
      <trkpt lat="42.65723" lon="1.83585">
        <ele>1107</ele>
        <time>2022-08-15T08:33:58Z</time>
      </trkpt>
      <trkpt lat="42.65732" lon="1.83584">
        <ele>1107</ele>
        <time>2022-08-15T08:34:06Z</time>
      </trkpt>
      <trkpt lat="42.65742" lon="1.83582">
        <ele>1107</ele>
        <time>2022-08-15T08:34:16Z</time>
      </trkpt>
      <trkpt lat="42.65752" lon="1.8358">
        <ele>1107</ele>
        <time>2022-08-15T08:34:25Z</time>
      </trkpt>
      <trkpt lat="42.65762" lon="1.83581">
        <ele>1107</ele>
        <time>2022-08-15T08:34:34Z</time>
      </trkpt>
      <trkpt lat="42.65772" lon="1.83579">
        <ele>1107</ele>
        <time>2022-08-15T08:34:44Z</time>
      </trkpt>
      <trkpt lat="42.65778" lon="1.8357">
        <ele>1106</ele>
        <time>2022-08-15T08:34:52Z</time>
      </trkpt>
      <trkpt lat="42.65788" lon="1.83569">
        <ele>1106</ele>
        <time>2022-08-15T08:35:02Z</time>
      </trkpt>
      <trkpt lat="42.65798" lon="1.83571">
        <ele>1106</ele>
        <time>2022-08-15T08:35:08Z</time>
      </trkpt>
      <trkpt lat="42.65809" lon="1.8357">
        <ele>1106</ele>
        <time>2022-08-15T08:35:27Z</time>
      </trkpt>
      <trkpt lat="42.65817" lon="1.83575">
        <ele>1106</ele>
        <time>2022-08-15T08:35:34Z</time>
      </trkpt>
      <trkpt lat="42.65827" lon="1.83577">
        <ele>1106</ele>
        <time>2022-08-15T08:35:40Z</time>
      </trkpt>
      <trkpt lat="42.65837" lon="1.83577">
        <ele>1106</ele>
        <time>2022-08-15T08:35:45Z</time>
      </trkpt>
      <trkpt lat="42.65846" lon="1.83583">
        <ele>1106</ele>
        <time>2022-08-15T08:35:49Z</time>
      </trkpt>
      <trkpt lat="42.65854" lon="1.83591">
        <ele>1106</ele>
        <time>2022-08-15T08:35:56Z</time>
      </trkpt>
      <trkpt lat="42.65858" lon="1.83602">
        <ele>1106</ele>
        <time>2022-08-15T08:36:06Z</time>
      </trkpt>
      <trkpt lat="42.6586" lon="1.83614">
        <ele>1106</ele>
        <time>2022-08-15T08:38:05Z</time>
      </trkpt>
      <trkpt lat="42.65864" lon="1.83611">
        <ele>1105</ele>
        <time>2022-08-15T08:39:22Z</time>
      </trkpt>
    </trkseg>
  </trk>
</gpx>